     2              OBSERVATION DATA    GPS                 RINEX VERSION / TYPE
TRRINEXO V2.8.3 UX CORS 17-JUL-98 17:35                     PGM / RUN BY / DATE
                                                            COMMENT
Original Marker Name: k526                                  COMMENT
Campaign Name: HPGN 1998                                    COMMENT
4-Character Station Name: K526                              COMMENT
6-Character Antenna Code: TRMCMP                            COMMENT
Vertical Measurement Point: BPA                             COMMENT
Vertical Offset to Rinex Ref. Point: 0.0000                 COMMENT
Radial Measurement Point: RRP                               COMMENT
Radial Offset to Rinex Ref. Point: 0.0000                   COMMENT
Antenna Height from Field Measurement: 2.0000 m             COMMENT
Original XYZ: -2416828.6847 -4702019.1548 3556533.4403      COMMENT
New XYZ position is based on association with SCEC monument COMMENT
E1D0S5B5+0011. Position of that monument is believed to be  COMMENT
valid to within 1 m horizontally; vertical accuracy         COMMENT
should be no worse than 3-times this value.                 COMMENT
                                                            COMMENT
Revised Rinex header created by UCSD GPS archive for        COMMENT
GSAC on 31-Aug-1999 (1999:243) 17:20:26 GMT                 COMMENT
For assistance contact dagnew@ucsd.edu or hjohnson@ucsd.edu COMMENT
                                                            COMMENT
K526 1956                                                   MARKER NAME
001                                                         MARKER NUMBER
NGS NATIONAL GEODETIC SURVEY                                OBSERVER / AGENCY
655 TRIMBLE 4000 SSE 5.63/1.23                              REC # / TYPE / VERS
614 TR GEOD L1/L2 GP                                        ANT # / TYPE
 -2416859.0000 -4702077.0000  3556539.0000                  APPROX POSITION XYZ
        2.0000        0.0000        0.0000                  ANTENNA: DELTA H/E/N
     1     1     0                                          WAVELENGTH FACT L1/2
     6    C1    L1    L2    P2    P1    D1                  # / TYPES OF OBSERV
    30                                                      INTERVAL
  1998     6    15    19    47   60.000000                  TIME OF FIRST OBS
  1998     6    16     1    21   60.000000                  TIME OF LAST OBS
                                                            END OF HEADER
 98  6 15 19 47 59.9990000  0  6 05 06 30 10 17 24
  22526953.956      155878.21916     69352.32155  22526952.0934
     -1914.000
  20970819.987     -251869.89517   -110573.32157  20970817.7144
      2997.953
  20936895.753       10763.83717
      -481.563
  21447480.495       33175.59417     25851.55556  21447478.8664
      -425.047
  22367993.183     -303641.73616   -126940.62755  22367992.4094
      3371.953
  23801090.128       99543.12615     22779.51154  23801092.0154
     -1225.391
 98  6 15 19 48 29.9990000  0  6 05 06 30 10 17 24
  22537956.909      213697.899 6    114406.56645  22537955.7964
     -1941.406
  20953782.589     -341401.302 7   -180338.01146  20953780.2224
      2970.109
  20939752.503       25774.107 7      5177.46557  20939749.7024
      -519.813
  21450008.972       46462.781 7     36205.21346  21450006.8154
      -461.500
  22348822.347     -404385.126 6   -205441.88045  22348821.1984
      3343.594
  23808142.675      136605.846 5     51659.49344  23808144.6674
     -1246.141
 98  6 15 19 48 59.9990000  0  6 05 06 30 10 17 24
  22549135.331      272439.121 6    160178.91045  22549134.5464
     -1973.219
  20936922.565     -430002.551 7   -249377.89646  20936920.3624
      2938.141
  20942844.745       42023.613 7     17839.43647  20942842.1904
      -562.000
  21452764.175       60942.478 7     47488.11846  21452762.5814
      -502.563
  22329831.714     -504179.512 6   -283203.65345  22329830.7414
      3310.859
  23815331.362      174381.484 5     81095.08044  23815331.8434
     -1270.766
 98  6 15 19 49 29.9990000  0  6 05 06 30 10 17 24
  22560471.972      332017.305 6    206603.40945  22560471.3974
     -1998.609
  20920221.245     -517767.731 7   -317766.32947  20920218.9724
      2913.094
  20946152.933       59409.518 7     31386.87447  20946150.8234
      -596.859
  21455732.940       76546.031 7     59646.72446  21455731.7574
      -537.531
  22311004.878     -603115.290 6   -360296.39645  22311003.8474
      3285.156
  23822636.362      212767.989 5    111006.58144  23822635.8944
     -1287.969
 98  6 15 19 49 59.9990000  0  6 05 06 30 10 17 24
  22571950.269      392338.591 6    253606.97645  22571949.8474
     -2023.328
  20903659.440     -604800.492 7   -385584.02347  20903657.2144
      2888.609
  20949655.753       77816.601 7     45730.06347  20949653.3624
      -630.625
  21458899.331       93183.952 7     72611.35446  21458897.8904
      -572.094
  22292318.792     -701311.906 6   -436813.17646  22292318.2064
      3261.000
  23830031.823      251630.186 5    141288.81644  23830031.9174
     -1303.156
 98  6 15 19 50 29.9990000  0  6 05 06 30 10 17 24
  22583577.870      453435.245 6    301214.71345  22583576.3234
     -2049.875
  20887241.534     -691077.345 7   -452812.70647  20887239.1904
      2863.266
  20953355.089       97255.904 7     60877.58747  20953352.5584
      -665.234
  21462267.175      110883.759 7     86403.43046  21462265.6284
      -607.984
  22273774.323     -798764.949 6   -512750.54346  22273773.4444
      3235.828
  23837516.089      290962.338 5    171937.22243  23837517.2374
     -1319.047
 98  6 15 19 50 59.9990000  0  6 05 06 30 10 17 24
  22595356.972      515333.578 6    349447.12945  22595354.7334
     -2076.516
  20870968.776     -776590.795 7   -519446.52447  20870966.4094
      2837.781
  20957250.261      117725.894 7     76828.24147  20957247.9404
      -699.234
  21465841.855      129667.981 7    101040.49746  21465840.3554
      -644.078
  22255374.386     -895457.482 6   -588095.30346  22255373.3314
      3210.453
  23845092.612      330775.614 5    202960.53643  23845092.3904
     -1335.094
 98  6 15 19 51 29.9990000  0  6 05 06 30 10 17 24
  22607288.480      578035.423 6    398305.64045  22607286.1014
     -2103.359
  20854844.448     -861325.783 7   -585473.75347  20854842.0694
      2811.359
  20961341.159      139222.945 7     93579.18147  20961339.0384
      -733.781
  21469623.519      149541.773 7    116526.58246  21469622.1594
      -680.422
  22237120.839     -991378.066 6   -662838.55246  22237120.1244
      3184.344
  23852763.409      371086.306 5    234371.42743  23852762.5894
     -1352.250
 98  6 15 19 51 59.9990000  0  6 05 06 30 10 17 24
  22619368.776      641516.977 6    447771.73145  22619367.0894
     -2128.594
  20838869.167     -945276.155 7   -650889.59847  20838866.7304
      2785.422
  20965628.183      161749.806 7    111132.57047  20965625.7694
      -768.063
  21473606.933      170473.530 7    132837.06646  21473605.4914
      -714.797
  22219015.159    -1086525.318 6   -736979.20246  22219014.3044
      3158.703
  23860531.948      411907.679 5    266180.23443  23860533.4374
     -1369.234
 98  6 15 19 52 29.9990000  0  6 05 06 30 10 17 24
  22631590.175      705744.053 6    497818.76745  22631589.3554
     -2153.016
  20823039.589    -1028460.026 7   -715708.16346  20823037.3044
      2760.172
  20970110.136      185303.410 7    129486.03547  20970107.5584
      -802.156
  21477783.675      192421.361 7    149939.29446  21477782.0934
      -748.281
  22201057.362    -1180893.892 6   -810513.09346  22201056.6474
      3132.484
  23868398.433      453246.864 5    298392.60143  23868398.8434
     -1386.609
 98  6 15 19 52 59.9990000  0  6 05 06 30 10 17 24
  22643948.511      770689.393 6    548425.47945  22643948.5114
     -2176.516
  20807356.120    -1110878.322 7   -779930.18446  20807353.8234
      2734.406
  20974786.112      209879.249 7    148636.03647  20974784.0264
      -836.203
  21482149.331      215363.514 7    167816.32246  21482147.3744
      -780.922
  22183250.011    -1274472.315 6   -883431.28045  22183249.2494
      3106.172
  23876363.605      495104.867 5    331009.13343  23876365.0114
     -1403.609
 98  6 15 19 53 29.9990000  0  6 05 06 30 10 17 24
  22656439.003      836321.547 6    599567.38445  22656438.9444
     -2198.828
  20791816.253    -1192539.840 7   -843562.50546  20791813.9334
      2709.875
  20979655.948      235469.687 7    168576.63647  20979654.0854
      -869.781
  21486697.253      239263.007 7    186439.32446  21486695.6364
      -812.203
  22165590.261    -1367274.509 6   -955744.62445  22165589.4404
      3080.750
  23884422.081      537454.030 5    364008.47943  23884422.5734
     -1419.563
 98  6 15 19 53 59.9990000  0  6 05 06 30 10 17 24
  22669056.081      902623.485 6    651231.17245  22669055.0624
     -2221.094
  20776415.956    -1273468.025 7   -906623.39646  20776413.5894
      2685.781
  20984718.776      262071.131 7    189305.03847  20984716.2694
      -903.219
  21491422.464      264095.111 7    205789.03546  21491421.0584
      -843.016
  22148074.995    -1459315.525 6  -1027464.83245  22148074.4094
      3055.656
  23892572.214      580284.479 5    397382.78043  23892573.6084
     -1435.328
 98  6 15 19 54 29.9990000  0  6 05 06 30 10 17 24
  22681799.683      969593.404 6    703415.46545  22681798.4874
     -2243.656
  20761151.362    -1353683.852 7   -969129.20946  20761149.2654
      2661.672
  20989968.987      289662.178 7    210804.55146  20989966.3154
      -936.125
  21496323.628      289852.231 7    225859.55046  21496322.6084
      -874.313
  22130702.003    -1550611.872 6  -1098604.77945  22130701.2534
      3030.781
  23900811.487      623577.731 5    431117.71144  23900813.6324
     -1450.859
 98  6 15 19 54 59.9990000  0  6 05 06 30 10 17 24
  22694671.690     1037236.613 6    756124.37745  22694669.9564
     -2266.016
  20746024.292    -1433177.983 7  -1031072.65446  20746022.3234
      2637.969
  20995405.112      318229.332 7    233064.66947  20995402.3354
      -968.375
  21501403.464      316545.546 7    246659.55246  21501402.2694
      -905.406
  22113467.925    -1641177.455 6  -1169175.29746  22113467.0114
      3006.969
  23909135.456      667322.906 5    465204.83643  23909136.8864
     -1465.625
 98  6 15 19 55 29.9990000  0  5 05 06 30 10 17
  22707669.378     1105539.355 6    809347.22945  22707667.7844
     -2287.594
  20731028.644    -1511981.674 7  -1092478.09746  20731026.5344
      2615.391
  21001023.339      347753.757 7    256070.70447  21001021.0194
     -1000.156
  21506659.597      344167.933 7    268183.50346  21506658.6594
      -936.375
  22096365.839    -1731050.280 6  -1239206.00946  22096364.9014
      2984.438
 98  6 15 19 55 59.9990000  0  5 05 06 30 10 17
  22720790.933     1174494.762 6    863078.68045  22720790.0194
     -2309.359
  20716164.753    -1590090.643 7  -1153342.20246  20716162.6904
      2591.969
  21006824.558      378239.445 7    279825.77646  21006822.5894
     -1031.953
  21512095.433      372735.397 7    290443.87446  21512094.6124
      -968.203
  22079392.956    -1820243.562 6  -1308707.19346  22079391.9374
      2961.906
 98  6 15 19 56 29.9990000  0  5 05 06 30 10 17
  22734037.464     1244104.147 6    917319.70245  22734036.9374
     -2330.906
  20701436.237    -1667490.629 7  -1213653.85046  20701434.0584
      2568.109
  21012806.526      409676.505 7    304322.18546  21012804.3584
     -1063.578
  21517716.417      402271.554 7    313459.07246  21517715.3624
     -1000.781
  22062549.300    -1908760.148 7  -1377681.10046  22062548.4334
      2939.484
 98  6 15 19 56 59.9990000  0  5 05 06 30 10 17
  22747405.995     1314355.903 6    972061.27145  22747405.8434
     -2352.313
  20686844.112    -1744173.575 7  -1273406.76146  20686841.9684
      2544.422
  21018969.730      442061.579 7    329557.30946  21018967.1874
     -1095.172
  21523522.964      432786.611 7    337237.04146  21523521.8154
     -1033.156
  22045831.472    -1996609.088 6  -1446134.76346  22045830.7104
      2917.375
 98  6 15 19 57 29.9990000  0  5 05 06 30 10 17
  22760895.909     1385247.296 6   1027301.26045  22760896.0384
     -2373.609
  20672386.581    -1820146.721 7  -1332606.58847  20672384.3314
      2520.422
  21025313.073      475395.450 7    355531.74647  21025310.7064
     -1126.938
  21529512.706      464262.275 7    361763.53946  21529511.4994
     -1065.078
  22029240.511    -2083796.721 6  -1514073.13446  22029239.7024
      2895.172
 98  6 15 19 57 59.9990000  0  5 05 06 30 10 17
  22774507.245     1456771.789 6   1083034.56145  22774507.3274
     -2394.844
  20658065.878    -1895402.062 7  -1391247.08746  20658063.7454
      2496.672
  21031834.136      509664.638 7    382234.98447  21031832.0624
     -1157.563
  21535681.698      496679.250 7    387023.52346  21535680.3044
     -1096.031
  22012775.089    -2170321.071 6  -1581494.67446  22012774.4214
      2873.078
 98  6 15 19 58 29.9990000  0  5 05 06 30 10 17
  22788238.378     1528932.677 6   1139263.75045  22788238.1674
     -2415.406
  20643878.878    -1969956.861 7  -1449341.70147  20643876.5934
      2474.031
  21038528.894      544845.882 7    409648.93146  21038526.4444
     -1187.578
  21542024.237      530008.189 7    412994.14046  21542022.3864
     -1125.313
  21996435.026    -2256186.619 6  -1648402.85146  21996434.7574
      2851.578
 98  6 15 19 58 59.9990000  0  5 05 06 30 10 17
  22802091.792     1601733.831 5   1195991.87045  22802091.3704
     -2438.266
  20629824.862    -2043809.745 7  -1506889.37047  20629822.6834
      2449.391
  21045398.980      580950.025 7    437782.02746  21045396.6124
     -1219.578
  21548534.972      564223.282 7    439655.24546  21548533.5654
     -1155.766
  21980223.573    -2341381.867 6  -1714788.71446  21980222.9524
      2827.781
 98  6 15 19 59 29.9990000  0  5 05 06 30 10 17
  22816076.417     1675220.999 6   1253254.53345  22816075.5154
     -2460.516
  20615912.448    -2116920.498 7  -1563858.75647  20615910.2454
      2424.672
  21052452.464      618015.882 7    466664.49846  21052450.1674
     -1251.266
  21555220.745      599356.147 7    467031.49346  21555219.7614
     -1186.391
  21964148.261    -2425856.250 6  -1780612.86446  21964147.3474
      2803.906
 98  6 15 19 59 59.9990000  0  5 05 06 30 10 17
  22830186.105     1749365.636 6   1311029.50845  22830185.2724
     -2482.125
  20602141.628    -2189286.560 7  -1620247.86346  20602139.4484
      2399.984
  21059686.003      656027.500 7    496283.92547  21059683.7184
     -1282.578
  21562082.003      635412.669 7    495127.47646  21562080.7264
     -1217.203
  21948211.347    -2509605.150 6  -1845871.69246  21948209.9764
      2779.594
 98  6 15 20  0 29.9990000  0  5 05 06 30 10 17
  22844412.995     1824128.533 6   1369286.27545  22844412.6444
     -2502.047
  20588508.956    -2260926.023 7  -1676070.79547  20588506.7414
      2375.750
  21067094.894      694960.215 7    526621.09747  21067092.4914
     -1313.047
  21569117.589      672384.183 7    523936.43546  21569116.2884
     -1247.703
  21932409.784    -2592642.096 6  -1910575.73246  21932408.5074
      2756.031
 98  6 15 20  0 59.9990000  0  5 05 06 30 10 17
  22858753.167     1899483.833 6   1428004.61245  22858752.0304
     -2521.922
  20575017.284    -2331826.919 7  -1731318.21246  20575015.2924
      2350.672
  21074675.823      734800.095 7    557665.13746  21074673.4444
     -1343.219
  21576328.823      710281.103 7    553466.49146  21576327.8044
     -1279.203
  21916743.886    -2674968.718 6  -1974726.27446  21916742.7144
      2732.172
 98  6 15 20  1 29.9990000  0  5 05 06 30 10 17
  22873200.651     1975409.283 6   1487167.23245  22873200.2414
     -2539.953
  20561664.597    -2401994.738 7  -1785994.41046  20561662.3704
      2326.953
  21082426.362      775527.886 7    589401.07146  21082423.7724
     -1372.219
  21583717.276      749106.519 7    583720.04246  21583716.0114
     -1309.328
  21901210.425    -2756598.033 6  -2038333.46746  21901209.1714
      2709.656
 98  6 15 20  1 59.9990000  0  5 05 06 30 10 17
  22887752.581     2051880.169 5   1546754.85945  22887752.4294
     -2558.609
  20548446.651    -2471456.000 7  -1840120.04046  20548444.4724
      2303.563
  21090341.847      817123.846 7    621813.49746  21090339.2694
     -1401.250
  21591275.394      788825.668 7    614670.00446  21591274.6904
     -1338.859
  21885804.901    -2837555.872 6  -2101417.43846  21885803.4374
      2687.500
 98  6 15 20  2 29.9990000  0  5 05 06 30 10 17
  22902413.183     2128926.401 5   1606790.81145  22902413.3004
     -2577.906
  20535362.034    -2540215.346 7  -1893698.72546  20535359.7374
      2280.453
  21098424.550      859597.426 7    654909.77346  21098421.8084
     -1430.359
  21599001.839      829427.008 7    646307.38746  21599000.8784
     -1367.594
  21870522.651    -2917862.182 6  -2163993.73746  21870521.8784
      2666.281
 98  6 15 20  2 59.9990000  0  5 05 06 30 10 17
  22917186.370     2206554.707 5   1667280.31845  22917186.5344
     -2597.375
  20522407.073    -2608294.165 7  -1946747.13446  20522404.7304
      2258.219
  21106672.847      902942.860 7    688685.40946  21106669.9524
     -1459.344
  21606887.495      870867.224 7    678598.45746  21606885.8904
     -1395.109
  21855360.722    -2997540.026 6  -2226080.33846  21855359.5504
      2645.672
 98  6 15 20  3 29.9990000  0  5 05 06 30 10 17
  22932068.120     2284757.805 5   1728217.74045  22932068.3084
     -2615.984
  20509575.003    -2675727.533 7  -1999292.58847  20509572.6594
      2237.563
  21115086.378      947155.982 7    723137.17246  21115083.5304
     -1487.859
  21614927.175      913115.015 7    711518.79246  21614925.8744
     -1421.141
  21840313.573    -3076613.369 6  -2287695.87646  21840312.5194
      2626.234
 98  6 15 20  3 59.9990000  0  5 05 06 30 10 17
  22947058.019     2363523.742 5   1789593.72245  22947058.1834
     -2634.969
  20496860.487    -2742540.747 7  -2051354.80847  20496858.0154
      2216.547
  21123661.730      992218.406 7    758250.73346  21123659.1874
     -1516.297
  21623116.409      956148.375 7    745051.26746  21623115.0854
     -1447.781
  21825376.089    -3155108.837 6  -2348861.14746  21825375.4214
      2606.734
 98  6 15 20  4 29.9990000  0  5 05 06 30 10 17
  22962148.003     2442828.965 5   1851389.92545  22962146.6904
     -2651.859
  20484264.737    -2808732.827 7  -2102933.03247  20484262.2654
      2196.406
  21132395.065     1038114.412 7    794013.84046  21132392.6634
     -1543.219
  21631454.019      999962.850 7    779192.39946  21631452.1084
     -1473.188
  21810548.886    -3233026.887 7  -2409576.45646  21810547.9604
      2587.688
 98  6 15 20  4 59.9990000  0  5 05 06 30 10 17
  22977336.964     2522642.753 5   1913582.39245  22977336.1444
     -2668.500
  20471784.472    -2874317.612 7  -2154038.03947  20471782.2694
      2176.313
  21141282.839     1084820.822 7    830408.42946  21141280.7304
     -1570.016
  21639940.409     1044561.328 7    813944.44746  21639938.5694
     -1499.734
  21795832.987    -3310359.036 7  -2469835.23146  21795831.7804
      2568.250
 98  6 15 20  5 29.9990000  0  5 05 06 30 10 17
  22992614.933     2602930.763 5   1976144.40245  22992613.9134
     -2684.328
  20459416.534    -2939309.578 7  -2204681.10747  20459414.5654
      2156.141
  21150320.269     1132311.479 7    867414.12546  21150317.7144
     -1596.234
  21648575.503     1089938.932 7    849303.59946  21648574.1204
     -1525.547
  21781225.237    -3387124.105 7  -2529652.11446  21781224.0654
      2549.172
 98  6 15 20  5 59.9990000  0  5 05 06 30 10 17
  23007984.339     2683697.480 5   2039079.42645  23007982.6874
     -2700.125
  20447166.995    -3003683.450 7  -2254842.54747  20447165.0154
      2135.359
  21159506.183     1180583.102 7    905028.35746  21159503.3234
     -1621.891
  21657358.167     1136090.919 7    885266.16846  21657356.5974
     -1551.328
  21766727.300    -3463310.912 7  -2589018.40646  21766725.8124
      2529.859
 98  6 15 20  6 29.9990000  0  5 05 06 30 10 17
  23023442.151     2764926.607 5   2102374.76545  23023440.8864
     -2715.359
  20435034.448    -3067441.327 7  -2304523.98647  20435032.4214
      2115.141
  21168835.675     1229610.415 7    943231.42746  21168832.6284
     -1646.688
  21666285.151     1183002.639 7    921820.73746  21666283.6874
     -1576.234
  21752338.167    -3538925.397 7  -2647938.72946  21752337.0424
      2511.078
 98  6 15 20  6 59.9990000  0  6 05 06 30 10 26 17
  23038985.925     2846607.943 5   2166022.47645  23038984.7064
     -2729.922
  20423015.409    -3130601.594 7  -2353739.75947  20423013.0074
      2095.375
  21178306.026     1279377.938 7    982011.28246  21178303.4014
     -1671.078
  21675353.105     1230653.909 7    958951.58746  21675351.7334
     -1600.313
  23632374.339      -13840.32815
      3459.984
  21738054.206    -3613988.596 7  -2706429.47846  21738052.9404
      2493.156
 98  6 15 20  7 29.9990000  0  6 05 06 30 10 26 17
  23054610.690     2928722.541 5   2230007.79945  23054609.7414
     -2744.172
  20411112.581    -3193150.085 7  -2402478.82347  20411110.2724
      2074.734
  21187917.073     1329882.464 7   1021365.44946  21187914.8354
     -1695.578
  21684556.581     1279019.846 7    996639.31446  21684554.8354
     -1623.922
  23612658.901     -117440.033 5
      3446.813
  21723873.433    -3688506.894 6  -2764495.63846  21723872.4954
      2474.938
 98  6 15 20  7 59.9990000  0  6 05 06 30 10 26 17
  23070314.105     3011244.422 5   2294310.46844  23070314.4334
     -2757.188
  20399325.034    -3255094.604 7  -2450747.26247  20399322.8554
      2054.859
  21197662.550     1381097.475 7   1061273.23046  21197660.6404
     -1718.734
  21693894.151     1328089.057 7   1034875.04946  21693893.0264
     -1647.469
  23593018.550     -220653.525 5    -16059.25253  23593020.0504
      3433.969
  21709794.995    -3762490.827 6  -2822145.40646  21709793.6244
      2457.359
 98  6 15 20  8 29.9990000  0  6 05 06 30 10 26 17
  23086089.948     3094147.669 5   2358910.27244  23086090.5114
     -2769.563
  20387651.050    -3316440.877 7  -2498549.53447  20387648.9404
      2034.969
  21207541.714     1433012.202 7   1101726.24046  21207539.6054
     -1742.281
  21703366.089     1377862.441 7   1073659.49146  21703364.8354
     -1670.563
  23573452.480     -323471.077 5    -96176.68843  23573453.4874
      3420.453
  21695816.847    -3835946.522 6  -2879383.58646  21695815.8044
      2439.859
 98  6 15 20  8 59.9990000  0  6 05 06 30 10 26 17
  23101932.519     3177399.247 5   2423781.55044  23101932.5774
     -2780.813
  20376087.894    -3377207.696 7  -2545900.28547  20376085.6204
      2015.750
  21217552.644     1485618.373 7   1142718.04246  21217550.0074
     -1765.000
  21712966.394     1428312.564 7   1112971.26546  21712965.0224
     -1693.063
  23553963.769     -425886.511 5   -175980.73942  23553964.0624
      3406.891
  21681933.206    -3908903.410 6  -2936233.06046  21681932.1984
      2423.609
 98  6 15 20  9 29.9990000  0  6 05 06 30 10 26 17
  23117840.112     3260992.829 5   2488919.32244  23117840.3474
     -2792.109
  20364633.964    -3437395.956 7  -2592800.20346  20364631.1514
      1997.000
  21227692.347     1538904.502 7   1184239.66946  21227689.8154
     -1787.250
  21722694.636     1479437.532 7   1152808.88446  21722693.0194
     -1715.234
  23534551.417     -527893.133 5   -255466.31342  23534551.0074
      3393.625
  21668142.589    -3981373.848 6  -2992703.50746  21668141.2764
      2407.797
 98  6 15 20  9 59.9990000  0  6 05 06 30 10 26 17
  23133812.573     3344925.496 5   2554321.29345  23133811.6834
     -2803.563
  20353284.964    -3497035.920 7  -2639272.88946  20353282.7024
      1978.906
  21237957.925     1592850.541 7   1226275.51146  21237955.8154
     -1809.313
  21732548.573     1531218.556 7   1193157.69946  21732547.0384
     -1736.922
  23515215.542     -629510.902 5   -334648.81942  23515215.0034
      3380.750
  21654441.347    -4053374.312 6  -3048807.72946  21654439.9524
      2392.141
 98  6 15 20 10 29.9990000  0  6 05 06 30 10 26 17
  23149850.487     3429205.019 5   2619993.54944  23149848.4724
     -2814.859
  20342037.581    -3556140.359 7  -2685328.28246  20342035.4014
      1961.766
  21248350.151     1647459.949 7   1268828.27446  21248348.2414
     -1831.266
  21742523.355     1583638.928 7   1234004.72446  21742522.0304
     -1757.609
  23495950.355     -730748.765 5   -413535.26243  23495948.8904
      3368.656
  21640828.698    -4124909.045 6  -3104549.03846  21640827.2334
      2377.000
 98  6 15 20 10 59.9990000  0  6 05 06 30 10 26 17
  23165954.347     3513832.871 5   2685937.23145  23165952.3904
     -2826.906
  20330887.448    -3614736.309 7  -2730987.44246  20330885.2224
      1944.719
  21258866.620     1702724.868 7   1311891.82346  21258864.5114
     -1852.875
  21752618.003     1636684.553 7   1275338.95546  21752616.5384
     -1778.594
  23476752.433     -831629.070 5   -492143.18542  23476754.2264
      3356.797
  21627303.089    -4195987.693 7  -3159934.96546  21627301.6364
      2361.484
 98  6 15 20 11 29.9990000  0  6 05 06 30 10 26 17
  23182127.565     3598823.769 5   2752163.80444  23182127.6594
     -2839.250
  20319834.355    -3672822.248 7  -2776249.20347  20319832.0464
      1927.594
  21269507.144     1758639.351 7   1355461.52846  21269504.8584
     -1874.859
  21762829.972     1690348.505 6   1317154.99646  21762828.9174
     -1799.141
  23457622.909     -932159.864 5   -570478.73943  23457622.8864
      3345.094
  21613867.784    -4266590.134 7  -3214949.81846  21613866.8474
      2345.266
 98  6 15 20 11 59.9990000  0  6 05 06 30 10 26 17
  23198367.776     3684163.353 5   2818662.06744  23198367.7764
     -2850.250
  20308874.761    -3730415.013 7  -2821126.67647  20308872.4994
      1911.563
  21280266.917     1815183.831 7   1399522.13546  21280264.3974
     -1895.094
  21773155.417     1744608.315 7   1359435.35946  21773153.9994
     -1818.500
  23438554.808    -1032360.195 5   -648556.76643  23438556.1444
      3334.594
  21600520.644    -4336730.762 7  -3269604.82346  21600519.1204
      2330.531
 98  6 15 20 12 29.9990000  0  6 05 06 30 10 26 17
  23214670.706     3769838.743 5   2885422.01344  23214669.9684
     -2861.313
  20298009.097    -3787513.573 7  -2865619.04247  20298006.8124
      1895.078
  21291144.276     1872345.782 7   1444063.88746  21291142.0504
     -1915.672
  21783593.425     1799461.507 6   1402178.07546  21783591.7964
     -1838.266
  23419549.487    -1132234.432 5   -726380.73143  23419549.3234
      3323.641
  21587258.120    -4406423.680 7  -3323910.95446  21587256.6444
      2315.734
 98  6 15 20 12 59.9990000  0  6 05 06 30 10 26 17
  23231037.167     3855842.375 5   2952437.73844  23231037.6474
     -2872.000
  20287238.433    -3844113.991 7  -2909723.24547  20287235.9014
      1878.328
  21302137.456     1930115.203 7   1489078.99546  21302135.2414
     -1935.297
  21794143.276     1854901.519 6   1445378.04946  21794142.0344
     -1857.453
  23400608.237    -1231773.065 5   -803943.18144  23400605.8354
      3312.219
  21574078.300    -4475683.372 6  -3377879.51246  21574077.2574
      2301.766
 98  6 15 20 13 29.9990000  0  6 05 06 30 10 26 17
  23247462.409     3942161.612 5   3019699.34244  23247462.1054
     -2882.859
  20276564.167    -3900206.644 7  -2953431.79446  20276561.6594
      1860.859
  21313242.831     1988474.546 7   1534553.78146  21313240.6634
     -1955.609
  21804803.253     1910918.674 6   1489027.74646  21804801.6594
     -1877.453
  23381733.440    -1330957.796 5   -881229.83443  23381732.8194
      3299.750
  21560977.980    -4544525.896 6  -3431523.00146  21560977.0194
      2287.563
 98  6 15 20 13 59.9990000  0  7 05 06 30 10 26 17 23
  23263948.315     4028792.498 5   3087203.80743  23263949.0424
     -2892.688
  20265988.894    -3955780.024 7  -2996735.71947  20265986.6324
      1843.719
  21324461.526     2047426.347 7   1580490.22146  21324459.1714
     -1974.844
  21815575.909     1967530.922 6   1533141.15346  21815574.5734
     -1896.859
  23362929.206    -1429774.530 5   -958229.74244  23362930.0624
      3287.688
  21547956.355    -4612955.684 6  -3484844.87546  21547955.0894
      2274.156
  23712091.847     -118285.178 5
      4073.250
 98  6 15 20 14 29.9990000  0  7 05 06 30 10 26 17 23
  23280488.331     4115709.621 5   3154931.30844  23280488.9874
     -2901.609
  20255511.370    -4010840.630 7  -3039640.07646  20255508.8154
      1827.109
  21335790.394     2106961.541 7   1626881.25146  21335788.1204
     -1994.047
  21826459.183     2024721.363 6   1577705.10546  21826457.6714
     -1915.703
  23344193.011    -1528230.546 5  -1034948.64044  23344193.0694
      3276.156
  21535011.526    -4680981.692 6  -3537852.12446  21535009.9444
      2261.094
  23688871.183     -240313.933 5         2.38453  23688872.2144
      4062.016
 98  6 15 20 14 59.9990000  0  7 05 06 30 10 26 17 23
  23297078.542     4202891.378 5   3222865.02344  23297078.1444
     -2910.313
  20245130.761    -4065390.819 7  -3082146.71446  20245128.3124
      1809.641
  21347229.167     2167072.433 7   1673720.88546  21347226.9404
     -2013.141
  21837450.433     2082483.074 6   1622714.20746  21837449.2374
     -1934.922
  23325524.698    -1626333.278 5  -1111392.21344  23325526.2454
      3264.125
  21522141.534    -4748614.163 6  -3590552.71046  21522140.2104
      2247.813
  23665715.042     -361999.103 5    -94817.08843  23665715.8514
      4050.469
 98  6 15 20 15 29.9990000  0  7 05 06 30 10 26 17 23
  23313714.331     4290315.329 5   3290987.45443  23313713.7104
     -2917.609
  20234848.222    -4119426.920 7  -3124252.75647  20234845.8194
      1792.969
  21358775.659     2227749.912 7   1721002.02046  21358773.7844
     -2031.750
  21848551.245     2140815.418 6   1668167.94246  21848550.1204
     -1953.688
  23306923.573    -1724084.295 5  -1187561.70144  23306924.7694
      3253.031
  21509347.120    -4815848.013 6  -3642942.69346  21509345.9724
      2234.734
  23642623.050     -483344.005 5   -189371.41343  23642624.7024
      4039.422
 98  6 15 20 15 59.9990000  0  7 05 06 30 10 26 17 23
  23330393.448     4377965.132 5   3359285.89444  23330393.1904
     -2925.313
  20224662.620    -4172953.084 7  -3165961.45047  20224660.1944
      1775.703
  21370429.144     2288988.787 7   1768720.60046  21370427.3274
     -2050.516
  21859759.362     2199713.585 6   1714062.59346  21859758.7654
     -1972.469
  23288386.714    -1821497.452 5  -1263467.92444  23288388.4954
      3241.547
  21496629.550    -4882682.479 7  -3695021.46046  21496627.7924
      2221.172
  23619597.980     -604344.041 5   -283656.97643  23619599.6204
      4027.453
 98  6 15 20 16 29.9980000  0  7 05 06 30 10 26 17 23
  23347115.303     4465836.786 5   3427757.17043  23347115.6544
     -2932.734
  20214575.459    -4225960.063 7  -3207265.57946  20214572.7404
      1758.438
  21382189.522     2350789.925 7   1816877.30646  21382187.4364
     -2069.297
  21871074.279     2259172.515 6   1760394.18946  21871072.7914
     -1991.328
  23269912.795    -1918570.170 5  -1339108.90843  23269913.7214
      3230.438
  21483988.670    -4949109.784 7  -3746782.95646  21483987.2874
      2207.719
  23596639.881     -724987.752 5   -377664.91144  23596640.7484
      4016.109
 98  6 15 20 16 59.9980000  0  7 05 06 30 10 26 17 23
  23363880.279     4553930.373 5   3496401.42044  23363880.8774
     -2940.094
  20204586.318    -4278452.611 7  -3248168.85646  20204583.8694
      1741.406
  21394054.826     2413140.990 7   1865462.52446  21394052.4944
     -2087.172
  21882494.873     2319189.335 6   1807160.51646  21882493.2094
     -2009.547
  23251505.334    -2015308.246 5  -1414489.08044  23251505.6044
      3218.953
  21471422.920    -5015143.026 7  -3798237.40646  21471421.3264
      2194.609
  23573743.811     -845309.665 5   -471422.07544  23573743.3304
      4005.625
 98  6 15 20 17 29.9980000  0  7 05 06 30 10 26 17 23
  23380686.889     4642253.048 5   3565224.12143  23380686.1864
     -2948.063
  20194692.201    -4330447.318 7  -3288684.20146  20194689.9164
      1725.047
  21406021.904     2476027.446 7   1914464.93046  21406019.0334
     -2105.141
  21894018.998     2379748.435 6   1854349.39145  21894017.0764
     -2027.609
  23233160.787    -2111703.483 5  -1489602.15443  23233160.8224
      3207.609
  21458932.131    -5080781.330 7  -3849384.10846  21458930.8774
      2181.484
  23550905.912     -965318.433 5   -564935.21144  23550906.8144
      3994.953
 98  6 15 20 17 59.9980000  0  7 05 06 30 10 26 17 23
  23397543.787     4730832.712 5   3634247.09744  23397543.8114
     -2956.828
  20184893.576    -4381939.284 7  -3328807.79946  20184891.1624
      1708.203
  21418091.818     2539459.127 7   1963892.18046  21418089.6504
     -2123.234
  21905646.670     2440853.814 6   1901963.95745  21905645.5334
     -2045.594
  23214884.873    -2207750.537 5  -1564443.85544  23214885.6704
      3195.906
  21446516.982    -5146024.263 7  -3900222.73946  21446515.2254
      2168.406
  23528132.607    -1084991.844 4   -658187.05443  23528134.7754
      3983.594
 98  6 15 20 18 29.9980000  0  7 05 06 30 10 26 17 23
  23414445.615     4819653.698 5   3703458.10644  23414446.2014
     -2964.781
  20175186.100    -4432953.939 7  -3368559.46647  20175183.7564
      1692.781
  21430262.068     2603414.356 7   2013727.39846  21430260.3934
     -2140.469
  21917373.256     2502477.920 6   1949982.70445  21917372.5414
     -2062.766
  23196670.592    -2303464.601 5  -1639026.09244  23196670.5804
      3184.734
  21434172.139    -5210897.376 7  -3950773.17246  21434170.5804
      2156.375
  23505421.514    -1204342.447 5   -751187.32443  23505424.3974
      3973.063
 98  6 15 20 18 59.9980000  0  7 05 06 30 10 26 17 23
  23431396.170     4908731.957 5   3772869.59143  23431397.4004
     -2973.391
  20165567.240    -4483500.123 7  -3407946.09447  20165564.7444
      1677.547
  21442533.084     2667897.973 7   2063974.35646  21442531.3504
     -2158.078
  21929200.100     2564627.291 6   1998410.77345  21929198.9514
     -2080.109
  23178524.662    -2398820.102 5  -1713328.98544  23178524.6504
      3172.828
  21421897.326    -5275402.140 7  -4001036.60846  21421896.0614
      2144.391
  23482773.232    -1323359.561 5   -843927.74443  23482774.2174
      3961.719
 98  6 15 20 19 29.9980000  0  7 05 06 30 10 26 17 23
  23448392.701     4998050.783 5   3842468.54443  23448391.9044
     -2981.109
  20156032.693    -4533604.556 7  -3446988.50246  20156030.3264
      1662.391
  21454902.897     2732900.364 7   2114625.54746  21454900.9754
     -2175.563
  21941122.795     2627279.993 6   2047231.03346  21941122.0684
     -2096.922
  23160443.272    -2493838.641 5  -1787369.25943  23160442.9434
      3161.688
  21409689.256    -5339556.015 7  -4051026.61146  21409687.8974
      2132.328
  23460188.662    -1442042.223 5   -936407.57144  23460187.3614
      3950.219
 98  6 15 20 19 59.9980000  0  7 05 06 30 10 26 17 23
  23465432.279     5087595.818 4   3912243.71843  23465433.8504
     -2988.672
  20146588.162    -4583236.526 7  -3485662.74946  20146585.6194
      1646.391
  21467372.912     2798430.848 7   2165688.23346  21467370.6864
     -2193.219
  21953141.529     2690440.452 6   2096446.95345  21953140.7564
     -2113.922
  23142426.600    -2588520.258 5  -1861146.98344  23142426.3304
      3150.391
  21397551.615    -5403337.124 6  -4100726.15446  21397550.1044
      2119.531
  23437669.397    -1560378.167 5  -1028617.23244  23437670.2874
      3938.875
 98  6 15 20 20 29.9980000  0  7 05 06 30 10 26 17 23
  23482512.615     5177350.014 4   3982181.94343  23482514.7604
     -2995.047
  20137230.717    -4632409.571 7  -3523979.39446  20137227.9514
      1631.469
  21479941.467     2864480.151 7   2217155.18346  21479939.0764
     -2210.250
  21965255.662     2754098.345 6   2146050.48546  21965254.5024
     -2130.000
  23124469.318    -2682880.206 5  -1934674.08144  23124468.2174
      3140.031
  21385485.592    -5466744.472 7  -4150134.45446  21385484.3854
      2107.516
  23415209.147    -1678401.442 5  -1120583.24644  23415210.9284
      3929.234
 98  6 15 20 20 59.9980000  0  7 05 06 30 10 26 17 23
  23499630.209     5267303.157 4   4052275.12043  23499630.4554
     -3001.234
  20127963.662    -4681107.940 7  -3561926.16246  20127961.2134
      1615.453
  21492609.959     2931051.603 7   2269028.99646  21492607.7094
     -2227.391
  21977462.561     2818245.773 6   2196035.46846  21977461.1074
     -2146.047
  23106574.834    -2776918.135 5  -2007950.30344  23106573.6394
      3129.781
  21373491.397    -5529776.895 7  -4199250.59546  21373489.8974
      2095.047
  23392808.014    -1796122.438 5  -1212313.68744  23392810.4164
      3919.281
 98  6 15 20 21 29.9980000  0  7 05 06 30 10 26 17 23
  23516782.756     5357439.226 4   4122510.87743  23516783.2724
     -3007.688
  20118791.756    -4729307.158 7  -3599483.98246  20118789.4944
      1597.828
  21505375.545     2998135.518 7   2321302.15346  21505373.3184
     -2244.609
  21989761.787     2882876.745 6   2246397.24146  21989760.7094
     -2162.547
  23088738.818    -2870644.681 5  -2080983.81644  23088739.3224
      3118.703
  21361570.561    -5592420.615 7  -4248063.85646  21361569.3074
      2081.391
  23370465.061    -1913535.339 5  -1303804.08944  23370466.1394
      3908.438
 98  6 15 20 21 59.9980000  0  7 05 06 30 10 26 17 23
  23533970.600     5447758.451 5   4192889.33843  23533970.6354
     -3013.656
  20109715.600    -4777002.067 7  -3636648.84046  20109713.2094
      1581.953
  21518235.397     3065712.363 7   2373959.41946  21518233.4984
     -2260.469
  22002151.951     2947988.880 6   2297133.94246  22002151.0254
     -2178.234
  23070965.295    -2964049.412 5  -2153766.64644  23070965.4594
      3108.250
  21349722.490    -5654682.432 7  -4296579.51946  21349721.4824
      2069.547
  23348180.959    -2030639.759 5  -1395054.09644  23348182.3774
      3898.516
 98  6 15 20 22 29.9980000  0  7 05 06 30 10 26 17 23
  23551191.662     5538253.069 5   4263404.43143  23551193.3974
     -3019.391
  20100729.561    -4824223.569 7  -3673444.80046  20100727.1474
      1565.828
  21531184.475     3133762.343 7   2426985.35346  21531182.5294
     -2276.266
  22014632.225     3013573.163 6   2348238.55145  22014630.4324
     -2194.219
  23053253.615    -3057128.421 5  -2226295.63744  23053252.4324
      3096.688
  21337940.201    -5716596.978 7  -4344824.60046  21337939.2294
      2057.891
  23325956.287    -2147435.394 5  -1486063.49744  23325956.6744
      3887.484
 98  6 15 20 22 59.9980000  0  7 05 06 30 10 26 17 23
  23568442.842     5628906.234 5   4334043.11343  23568444.4244
     -3024.672
  20091834.600    -4870967.048 7  -3709868.27846  20091832.0104
      1550.172
  21544220.092     3202262.538 7   2480362.08746  21544217.9594
     -2290.781
  22027201.115     3079624.583 6   2399707.16945  22027200.2724
     -2209.594
  23035604.787    -3149866.389 5  -2298558.87744  23035603.9554
      3085.484
  21326223.006    -5778172.400 7  -4392805.40946  21326221.5294
      2046.703
  23303794.240    -2263896.894 5  -1576812.56244  23303794.4864
      3876.328
 98  6 15 20 23 29.9980000  0  7 05 06 30 10 26 17 23
  23585727.240     5719739.797 5   4404822.35543  23585729.3144
     -3030.906
  20083031.014    -4917229.407 7  -3745916.86146  20083028.9394
      1534.031
  21557341.397     3271216.524 7   2534092.43546  21557339.1824
     -2306.063
  22039860.678     3146153.420 6   2451547.79445  22039859.9984
     -2225.625
  23018026.826    -3242242.078 5  -2370539.80544  23018027.1784
      3072.922
  21314573.693    -5839390.602 7  -4440507.86546  21314572.3114
      2034.641
  23281698.865    -2380003.782 5  -1667285.32044  23281698.1744
      3864.281
 98  6 15 20 23 59.9980000  0  7 05 06 30 10 26 17 23
  23603046.381     5810753.429 5   4475741.92842  23603047.1074
     -3036.500
  20074316.959    -4963023.026 7  -3781600.19247  20074314.5224
      1518.813
  21570548.725     3340624.491 7   2588176.53446  21570546.8614
     -2321.188
  22052611.568     3213156.369 6   2503757.86045  22052610.3034
     -2241.141
  23000516.240    -3334255.467 5  -2442238.46144  23000515.2684
      3061.438
  21302990.389    -5900260.648 7  -4487939.03646  21302988.7254
      2023.297
  23259670.006    -2495761.607 5  -1757486.05344  23259670.4044
      3852.969
 98  6 15 20 24 29.9980000  0  7 05 06 30 10 26 17 23
  23620397.342     5901931.847 5   4546789.89443  23620398.5844
     -3041.719
  20065693.436    -5008339.454 7  -3816911.68247  20065691.2684
      1502.656
  21583844.756     3410496.279 7   2642622.04646  21583843.0574
     -2336.609
  22065449.975     3280623.470 6   2556329.59845  22065448.4514
     -2256.156
  22983073.607    -3425919.301 5  -2513664.71844  22983072.8694
      3049.844
  21291475.029    -5960774.700 7  -4535092.81546  21291473.4474
      2011.281
  23237707.029    -2611177.407 5  -1847420.27444  23237707.9794
      3841.813
 98  6 15 20 24 59.9980000  0  7 05 06 30 10 26 17 23
  23637779.842     5993277.292 4   4617967.96843  23637778.9864
     -3047.641
  20057163.100    -5053166.515 7  -3851841.85746  20057161.4004
      1486.328
  21597231.795     3480842.304 7   2697437.08746  21597229.9904
     -2352.797
  22078371.998     3348530.364 6   2609244.02845  22078371.2014
     -2270.469
  22965696.404    -3517235.315 5  -2584819.95344  22965695.9244
      3038.375
  21280028.404    -6020925.813 7  -4581963.77646  21280027.0574
      1999.250
  23215808.311    -2726258.562 5  -1937093.72345  23215808.2404
      3830.859
 98  6 15 20 25 29.9980000  0  7 05 06 30 10 26 17 23
  23655194.826     6084789.713 4   4689276.17842  23655193.5844
     -3053.656
  20048724.889    -5097509.076 7  -3886394.48846  20048722.6504
      1469.234
  21610710.498     3551671.851 7   2752628.90446  21610708.6704
     -2369.641
  22091374.998     3416859.838 6   2662487.75145  22091373.6624
     -2285.359
  22948384.084    -3608213.825 5  -2655712.18344  22948383.7684
      3026.266
  21268649.256    -6080724.192 7  -4628559.89146  21268647.7444
      1986.719
  23193969.201    -2841023.985 5  -2026521.14444  23193969.3654
      3819.547
 98  6 15 20 25 59.9980000  0  7 05 06 30 10 26 17 23
  23672642.584     6176476.129 4   4760719.92942  23672642.7724
     -3059.000
  20040382.561    -5141348.923 7  -3920555.39546  20040380.1934
      1453.031
  21624284.279     3623002.304 7   2808211.04746  21624282.1114
     -2386.063
  22104461.490     3485629.718 6   2716074.63445  22104461.0804
     -2299.609
  22931138.350    -3698837.883 5  -2726328.24344  22931138.0104
      3014.891
  21257340.357    -6140152.859 7  -4674867.89546  21257338.9164
      1974.813
  23172194.061    -2955455.186 5  -2115688.13744  23172194.5064
      3808.797
 98  6 15 20 26 29.9980000  0  7 05 06 30 10 26 17 23
  23690116.350     6268308.315 3   4832277.28342  23690115.9864
     -3063.250
  20032131.264    -5184709.874 7  -3954343.14346  20032128.9204
      1437.797
  21637949.389     3694813.512 7   2864167.79346  21637947.3974
     -2401.250
  22117627.022     3554816.024 6   2769986.01645  22117626.2364
     -2312.859
  22913958.607    -3789118.282 5  -2796676.50043  22913957.7404
      3003.703
  21246097.748    -6199232.217 7  -4720903.73346  21246096.7644
      1963.891
  23150479.209    -3069567.345 5  -2204606.56645  23150478.8694
      3798.594
 98  6 15 20 26 59.9980000  0  7 05 06 30 10 26 17 23
  23707620.631     6360287.725 4   4903949.31742  23707622.2604
     -3068.641
  20023969.936    -5227599.804 7  -3987763.85346  20023967.6154
      1421.672
  21651702.857     3767090.084 6   2920487.16046  21651701.0064
     -2416.922
  22130872.943     3624423.466 6   2824225.55045  22130872.3464
     -2327.766
  22896846.061    -3879045.806 5  -2866749.80244  22896848.5804
      2991.531
  21234919.857    -6257971.654 7  -4766674.69146  21234918.3814
      1952.156
  23128826.014    -3183355.172 5  -2293272.26945  23128825.4284
      3787.234
 98  6 15 20 27 29.9980000  0  7 05 06 30 10 26 17 23
  23725150.279     6452407.829 4   4975731.02542  23725151.5574
     -3072.594
  20015896.873    -5270023.262 7  -4020821.08946  20015894.2364
      1406.641
  21665540.272     3839806.454 6   2977149.20746  21665538.3264
     -2430.688
  22144204.115     3694477.460 6   2878813.04245  22144203.1194
     -2342.375
  22879800.857    -3968620.563 5  -2936548.20544  22879799.4394
      2980.219
  21223806.779    -6316371.625 7  -4812181.13446  21223805.4794
      1941.203
  23107235.779    -3296810.795 5  -2381679.10645  23107235.5224
      3776.469
 98  6 15 20 27 59.9980000  0  7 05 06 30 10 26 17 23
  23742704.170     6544654.656 4   5047611.45242  23742707.3814
     -3076.906
  20007909.553    -5311996.019 7  -4053527.13746  20007907.1864
      1391.781
  21679456.326     3912934.392 7   3034131.97546  21679453.9004
     -2444.234
  22157617.873     3764968.701 6   2933741.25445  22157617.6044
     -2356.781
  22862819.897    -4057855.285 5  -3006081.63345  22862820.5414
      2969.000
  21212755.811    -6374445.773 7  -4857433.69346  21212754.4754
      1930.703
  23085708.037    -3409938.858 5  -2469830.72145  23085708.2134
      3765.719
 98  6 15 20 28 29.9980000  0  7 05 06 30 10 26 17 23
  23760284.936     6637037.734 5   5119598.10442  23760286.4944
     -3082.063
  20000009.256    -5353511.466 7  -4085876.82946  20000006.7484
      1375.891
  21693449.303     3986466.626 7   3091429.78246  21693446.9944
     -2457.938
  22171114.693     3835895.505 6   2989008.86645  22171114.3074
     -2371.594
  22845905.748    -4146737.203 5  -3075340.16844  22845903.7914
      2956.391
  21201764.865    -6432203.125 7  -4902439.38946  21201763.8574
      1919.813
  23064242.201    -3522741.442 5  -2557728.70745  23064242.8114
      3754.531
 98  6 15 20 28 59.9980000  0  7 05 06 30 10 26 17 23
  23777891.123     6729562.491 4   5191695.13542  23777890.6894
     -3086.531
  19992197.303    -5394563.570 7  -4117865.46546  19992194.6314
      1360.703
  21707518.678     4060401.215 7   3149041.10846  21707516.4044
     -2471.281
  22184694.600     3907255.788 6   3044614.26645  22184693.6154
     -2386.016
  22829062.287    -4235247.569 5  -3144309.17144  22829061.2914
      2944.063
  21190833.725    -6489647.371 7  -4947201.11546  21190832.1314
      1909.547
  23042835.553    -3635228.806 5  -2645381.08144  23042835.8224
      3744.234
 98  6 15 20 29 29.9980000  0  6 06 30 10 26 17 23
  19984473.147    -5435154.894 7  -4149495.05846  19984470.7684
      1345.109
  21721665.779     4134744.281 7   3206970.71446  21721663.9284
     -2485.156
  22198355.873     3979047.138 6   3100555.54645  22198354.8654
     -2400.125
  22812291.982    -4323376.685 5  -3212981.10644  22812291.5724
      2931.031
  21179962.654    -6546774.112 7  -4991715.43746  21179961.3304
      1898.703
  23021490.193    -3747401.991 5  -2732788.61945  23021490.4984
      3733.953
 98  6 15 20 29 59.9980000  0  6 06 30 10 26 17 23
  19976836.232    -5475287.253 7  -4180767.01546  19976833.5964
      1330.406
  21735890.904     4209497.754 7   3265220.11746  21735889.2994
     -2498.203
  22212094.631     4051244.419 6   3156813.15245  22212094.2324
     -2412.906
  22795595.186    -4411123.831 5  -3281355.37044  22795594.1074
      2918.813
  21169151.709    -6603585.506 7  -5035984.03646  21169150.1154
      1888.844
  23000199.897    -3859285.477 5  -2819970.42945  23000200.4944
      3725.078
 98  6 15 20 30 29.9980000  0  6 06 30 10 26 17 23
  19969285.600    -5514964.928 7  -4211684.67546  19969283.3734
      1314.672
  21750192.490     4284653.304 7   3323782.85746  21750190.5574
     -2512.281
  22225908.537     4123836.420 6   3213378.29745  22225907.7994
     -2426.672
  22778969.584    -4498488.945 5  -3349431.98145  22778968.9634
      2905.578
  21158401.256    -6660080.641 7  -5080006.20146  21158399.9324
      1877.453
  22978962.162    -3970887.058 5  -2906932.60445  22978961.3424
      3714.859
 98  6 15 20 30 59.9980000  0  6 06 30 10 26 17 23
  19961824.209    -5554174.936 7  -4242237.93346  19961821.9944
      1298.906
  21764572.475     4360222.389 6   3382667.82046  21764570.7294
     -2525.922
  22239800.209     4196835.032 6   3270260.29945  22239799.5534
     -2440.219
  22762415.498    -4585482.552 5  -3417219.11745  22762414.2794
      2893.766
  21147714.225    -6716239.978 7  -5123766.71046  21147713.0064
      1866.078
  22957783.240    -4082184.941 5  -2993658.09245  22957781.9044
      3704.422
 98  6 15 20 31 29.9980000  0  6 06 30 10 26 17 23
  19954455.139    -5592900.598 7  -4272413.75446  19954452.3504
      1282.578
  21779031.014     4436198.204 6   3441869.70346  21779028.9514
     -2539.266
  22253766.561     4270231.037 6   3327451.97345  22253765.9164
     -2452.969
  22745928.068    -4672124.419 5  -3484732.14245  22745927.4124
      2882.219
  21137093.490    -6772053.553 7  -5167257.77946  21137092.0374
      1854.703
  22936665.115    -4193163.591 5  -3080134.84545  22936664.1314
      3694.141
 98  6 15 20 31 59.9980000  0  6 06 30 10 26 17 23
  19947179.381    -5631135.547 7  -4302207.21046  19947176.7564
      1266.281
  21793564.092     4512572.064 7   3501381.73546  21793561.6784
     -2552.375
  22267806.943     4344010.189 6   3384942.18645  22267805.8894
     -2465.719
  22729506.561    -4758419.276 5  -3551974.77845  22729506.3504
      2870.719
  21126535.795    -6827534.444 7  -5210489.62346  21126534.4004
      1844.047
  22915605.865    -4303830.154 5  -3166368.42244  22915603.7324
      3683.422
 98  6 15 20 32 29.9980000  0  6 06 30 10 26 17 23
  19939997.318    -5668876.656 7  -4331615.85046  19939995.0454
      1249.875
  21808173.139     4589339.834 7   3561200.71646  21808170.9004
     -2565.484
  22281918.709     4418170.129 6   3442729.12645  22281917.8184
     -2478.188
  22713151.756    -4844365.180 5  -3618945.48745  22713150.7254
      2859.094
  21116037.975    -6882701.342 7  -5253476.77946  21116036.3464
      1833.984
  22894608.404    -4414166.748 5  -3252344.86145  22894608.6044
      3672.453
 98  6 15 20 32 59.9980000  0  6 06 30 10 26 17 23
  19932911.068    -5706115.701 7  -4360633.28346  19932908.7364
      1233.000
  21822855.053     4666499.012 6   3621324.70746  21822853.6584
     -2578.141
  22296101.498     4492701.407 6   3500805.40545  22296099.9754
     -2490.234
  22696864.147    -4929955.423 6  -3685639.06745  22696863.1504
      2846.969
  21105595.943    -6937574.275 7  -5296234.88846  21105594.4204
      1824.391
  22873674.654    -4524175.973 5  -3338066.18645  22873674.9004
      3661.703
 98  6 15 20 33 29.9980000  0  6 06 30 10 26 17 23
  19925922.225    -5742843.753 7  -4389252.53246  19925919.9044
      1215.609
  21837611.311     4744043.169 6   3681748.69446  21837610.1274
     -2591.375
  22310354.990     4567601.229 6   3559168.87045  22310353.4904
     -2503.141
  22680650.381    -5015157.967 6  -3752030.54645  22680648.3074
      2833.188
  21095209.795    -6992154.150 7  -5338764.63846  21095208.2954
      1814.297
  22852803.045    -4633854.762 5  -3423530.06745  22852804.2754
      3650.234
 98  6 15 20 33 59.9980000  0  6 06 30 10 26 17 23
  19919029.436    -5779065.163 7  -4417476.99846  19919027.0104
      1199.469
  21852440.818     4821969.356 6   3742470.35546  21852439.0964
     -2603.375
  22324679.982     4642882.936 6   3617829.90745  22324678.9394
     -2515.406
  22664514.061    -5099952.842 5  -3818104.37045  22664512.1624
      2820.141
  21084879.803    -7046439.650 7  -5381065.00546  21084878.0454
      1804.922
  22831997.397    -4743186.592 5  -3508723.60645  22831998.2174
      3638.734
 98  6 15 20 34 29.9980000  0  6 06 30 10 26 17 23
  19912227.443    -5814808.864 7  -4445329.22046  19912225.0184
      1183.625
  21867336.568     4900244.701 7   3803464.08146  21867334.2364
     -2614.922
  22339074.568     4718523.780 6   3676770.78045  22339073.6074
     -2527.234
  22648449.389    -5184369.855 5  -3883883.75644  22648448.3464
      2807.813
  21074604.170    -7100435.661 7  -5423139.79446  21074602.6934
      1794.828
  22811258.631    -4852177.031 6  -3593651.10245  22811258.6664
      3627.406
 98  6 15 20 34 59.9980000  0  6 06 30 10 26 17 23
  19905517.248    -5850072.628 7  -4472807.46346  19905514.7404
      1167.547
  21882297.842     4978870.740 6   3864731.05746  21882295.6974
     -2626.594
  22353538.490     4794533.686 6   3735999.22845  22353537.2834
     -2539.813
  22632455.709    -5268418.453 5  -3949376.08745  22632455.1824
      2795.703
  21064389.975    -7154113.344 7  -5464966.54246  21064388.2874
      1783.766
  22790584.459    -4960819.773 6  -3678307.67545  22790582.9824
      3615.625
 98  6 15 20 35 29.9980000  0  6 06 30 10 26 17 23
  19898894.248    -5884876.462 7  -4499927.32346  19898892.1154
      1153.078
  21897325.139     5057840.382 6   3926265.77846  21897322.6544
     -2637.797
  22368071.498     4870905.255 6   3795509.51645  22368070.1274
     -2551.313
  22616527.818    -5352121.164 6  -4014598.85045  22616526.9394
      2784.859
  21054236.772    -7207466.863 7  -5506540.69346  21054235.2954
      1773.438
  22769975.100    -5069121.532 5  -3762698.52545  22769974.0684
      3604.734
 98  6 15 20 35 59.9980000  0  6 06 30 10 26 17 23
  19892356.404    -5919231.620 7  -4526697.56546  19892353.9794
      1137.328
  21912420.459     5137166.043 6   3988077.92946  21912418.9004
     -2650.422
  22382672.732     4947636.948 6   3855300.40345  22382671.8894
     -2564.000
  22600664.217    -5435485.161 6  -4079557.71445  22600662.9754
      2772.922
  21044146.967    -7260490.318 7  -5547857.64146  21044145.8074
      1761.656
  22749430.834    -5177075.599 5  -3846818.45945  22749430.0254
      3592.547
 98  6 15 20 36 29.9980000  0  6 06 30 10 26 17 23
  19885904.881    -5953135.664 7  -4553116.29846  19885902.4434
      1122.609
  21927582.537     5216842.141 6   4050163.16846  21927581.0614
     -2661.844
  22397341.670     5024720.715 6   3915365.63445  22397340.8734
     -2575.172
  22584862.623    -5518520.226 6  -4144260.22845  22584861.4284
      2762.234
  21034118.576    -7313190.528 7  -5588922.71446  21034116.9944
      1751.531
  22728949.865    -5284703.080 5  -3930683.92245  22728949.2214
      3582.328
 98  6 15 20 36 59.9980000  0  6 06 30 10 26 17 23
  19879539.311    -5986587.047 7  -4579182.30146  19879536.9084
      1107.531
  21942813.209     5296877.128 6   4112528.04646  21942811.2874
     -2673.578
  22412075.123     5102144.275 6   3975695.61745  22412073.7754
     -2586.047
  22569128.115    -5601206.733 5  -4208691.15145  22569127.1314
      2750.141
  21024147.232    -7365591.434 7  -5629754.57346  21024145.3694
      1742.000
  22708529.443    -5392016.766 6  -4014304.86345  22708528.9044
      3572.063
 98  6 15 20 37 29.9980000  0  6 06 30 10 26 17 23
  19873261.584    -6019577.533 7  -4604889.15946  19873259.1004
      1091.828
  21958110.959     5377266.211 6   4175168.84446  21958108.6154
     -2685.484
  22426869.076     5179887.859 6   4036275.00045  22426867.4004
     -2596.969
  22553467.420    -5683504.141 5  -4272818.90745  22553468.0534
      2736.469
  21014230.053    -7417705.354 7  -5670362.80446  21014228.5414
      1732.359
  22688168.225    -5499016.301 6  -4097681.01745  22688167.5924
      3561.234
 98  6 15 20 37 59.9980000  0  6 06 30 10 26 17 23
  19867075.076    -6052085.104 7  -4630219.73346  19867072.5574
      1074.859
  21973474.240     5458006.024 6   4238082.92346  21973471.8614
     -2697.313
  22441727.350     5257968.469 6   4097116.99845  22441725.9674
     -2608.703
  22537884.865    -5765386.926 5  -4336623.54445  22537885.0294
      2722.016
  21004368.076    -7469530.949 7  -5710746.36546  21004366.5764
      1722.516
  22667869.154    -5605688.504 6  -4180802.11045  22667869.4004
      3550.078
 98  6 15 20 38 29.9980000  0  6 06 30 10 26 17 23
  19860983.115    -6084099.278 7  -4655165.83846  19860980.5254
      1059.125
  21988901.256     5539075.494 6   4301253.87845  21988899.4864
     -2707.781
  22456647.162     5336374.680 6   4158212.70045  22456646.4364
     -2618.703
  22522384.240    -5846847.145 6  -4400098.92345  22522383.7364
      2708.234
  20994556.482    -7521089.963 7  -5750922.20946  20994554.8544
      1714.313
  22647629.693    -5712049.708 6  -4263680.87045  22647628.8504
      3540.125
 98  6 15 20 38 59.9980000  0  6 06 30 10 26 17 23
  19854982.287    -6115634.194 7  -4679738.48646  19854979.8504
      1043.469
  22004389.295     5620464.724 6   4364674.00645  22004388.4164
     -2717.641
  22471625.490     5415085.227 6   4219545.54845  22471625.2914
     -2628.516
  22506963.842    -5927882.049 6  -4463242.84745  22506962.1434
      2694.531
  20984793.443    -7572395.142 7  -5790900.24046  20984792.2364
      1706.188
  22627448.920    -5818095.771 6  -4346314.07145  22627447.7364
      3529.875
 98  6 15 20 39 29.9980000  0  6 06 30 10 26 17 23
  19849073.029    -6146687.906 7  -4703936.17746  19849070.2524
      1026.844
  22019934.506     5702155.887 6   4428329.39946  22019933.2994
     -2728.438
  22486664.404     5494115.909 6   4281127.84145  22486663.8424
     -2640.219
  22491620.561    -6008506.495 5  -4526066.98845  22491619.4714
      2680.656
  20975079.342    -7623442.349 7  -5830677.26846  20975077.8774
      1696.953
  22607329.131    -5923823.556 6  -4428699.27145  22607328.2524
      3518.609
 98  6 15 20 39 59.9980000  0  6 06 30 10 26 17 23
  19843258.225    -6177244.398 7  -4727746.42146  19843255.7994
      1010.250
  22035541.990     5784170.445 6   4492236.79746  22035540.8424
     -2739.188
  22501769.920     5573496.715 6   4342982.96245  22501767.9864
     -2651.688
  22476356.217    -6088722.043 5  -4588572.46845  22476355.8184
      2666.875
  20965418.225    -7674212.595 7  -5870238.47746  20965416.5374
      1687.750
  22587275.193    -6029210.757 6  -4510819.07645  22587273.8224
      3507.266
 98  6 15 20 40 29.9980000  0  6 06 30 10 26 17 23
  19837535.522    -6207318.667 7  -4751180.91046  19837533.0144
       994.266
  22051208.717     5866498.486 6   4556388.46346  22051207.1704
     -2750.000
  22516938.350     5653205.121 6   4405093.38745  22516936.6274
     -2662.781
  22461169.045    -6168531.261 5  -4650761.33745  22461167.5574
      2653.328
  20955808.732    -7724710.123 7  -5909587.18446  20955807.2684
      1678.031
  22567284.607    -6134261.689 6  -4592676.85945  22567282.9674
      3495.531
 98  6 15 20 40 59.9980000  0  6 06 30 10 26 17 23
  19831904.482    -6236910.569 7  -4774239.53546  19831902.2564
       978.188
  22066937.647     5949159.125 6   4620799.30346  22066935.9124
     -2760.859
  22532172.084     5733257.625 6   4467471.92745  22532170.9824
     -2674.484
  22446059.607    -6247935.167 6  -4712634.35845  22446058.6354
      2639.906
  20946256.553    -7774906.305 7  -5948701.07446  20946254.8184
      1668.219
  22547361.561    -6238956.086 6  -4674256.82245  22547361.4434
      3483.844
 98  6 15 20 41 29.9980000  0  6 06 30 10 26 17 23
  19826365.084    -6266018.385 7  -4796920.94346  19826362.6234
       962.281
  22082730.076     6032144.849 6   4685463.47045  22082728.2254
     -2771.516
  22547472.897     5813663.848 6   4530126.06145  22547472.2404
     -2685.672
  22431025.639    -6326935.178 6  -4774192.69545  22431024.7014
      2626.734
  20936760.725    -7824807.126 7  -5987584.81946  20936759.6824
      1658.469
  22527504.287    -6343305.123 6  -4755567.66945  22527503.8184
      3472.625
 98  6 15 20 41 59.9980000  0  6 06 30 10 26 17 23
  19820915.115    -6294658.948 7  -4819238.25846  19820912.4434
       946.922
  22098578.537     6115435.085 6   4750364.90645  22098576.9794
     -2781.313
  22562834.561     5894386.020 6   4593026.42345  22562833.8114
     -2695.922
  22416067.084    -6405544.606 6  -4835446.68345  22416064.8934
      2613.688
  20927319.943    -7874419.976 7  -6026244.16146  20927318.6314
      1648.828
  22507711.537    -6447317.211 6  -4836615.97045  22507711.1864
      3461.453
 98  6 15 20 42 29.9980000  0  6 06 30 10 26 17 23
  19815553.795    -6322831.454 7  -4841190.85846  19815551.6504
       931.266
  22114487.857     6199030.395 6   4815504.05245  22114485.3384
     -2791.766
  22578254.186     5975420.600 6   4656170.18545  22578254.2324
     -2706.328
  22401182.522    -6483764.047 6  -4896396.81445  22401180.2954
      2601.047
  20917936.615    -7923728.465 7  -6064666.35746  20917935.2094
      1638.484
  22487982.740    -6550992.174 6  -4917401.58045  22487982.7994
      3450.219
 98  6 15 20 42 59.9980000  0  6 06 30 10 26 17 23
  19810283.553    -6350527.804 7  -4862772.42646  19810281.2564
       915.063
  22130455.561     6282941.413 6   4880889.19246  22130453.3934
     -2802.219
  22593733.936     6056766.166 6   4719556.28245  22593733.4554
     -2716.672
  22386370.717    -6561599.282 6  -4957047.55745  22386368.4084
      2587.844
  20908611.475    -7972732.957 7  -6102851.65646  20908609.9984
      1628.438
  22468319.701    -6654326.890 6  -4997922.04245  22468319.4084
      3438.719
 98  6 15 20 43 29.9980000  0  6 06 30 10 26 17 23
  19805106.162    -6377735.182 7  -4883972.97046  19805103.7604
       899.063
  22146482.467     6367165.420 6   4946518.23646  22146480.8144
     -2812.484
  22609271.076     6138411.915 6   4783176.31645  22609269.3424
     -2725.844
  22371634.350    -6639036.375 6  -5017388.07945  22371632.6274
      2575.000
  20899346.522    -8021420.591 7  -6140790.06846  20899344.8224
      1617.625
  22448720.803    -6757315.470 6  -5078172.78645  22448719.5374
      3427.375
 98  6 15 20 43 59.9980000  0  6 06 30 10 26 17 23
  19800018.037    -6404472.631 7  -4904807.34446  19800015.7524
       883.422
  22162568.178     6451696.542 6   5012386.60245  22162567.1474
     -2822.938
  22624857.100     6220320.747 6   4847001.32345  22624856.7014
     -2734.797
  22356972.686    -6716087.241 6  -5077427.62845  22356971.7014
      2561.656
  20890141.498    -8069792.712 7  -6178482.61946  20890140.0454
      1607.156
  22429187.561    -6859962.054 6  -5158157.04945  22429186.0964
      3415.938
 98  6 15 20 44 29.9980000  0  6 06 30 10 26 17 23
  19795019.553    -6430740.780 7  -4925276.02346  19795016.9864
       868.094
  22178712.795     6536539.840 6   5078498.22045  22178712.0804
     -2832.828
  22640493.850     6302492.807 6   4911031.44145  22640493.5684
     -2743.000
  22342386.201    -6792739.558 6  -5137156.62745  22342385.2054
      2548.734
  20880994.678    -8117859.273 7  -6215937.07146  20880993.2254
      1597.906
  22409716.936    -6962278.306 6  -5237883.89245  22409715.7524
      3405.359
 98  6 15 20 44 59.9980000  0  6 06 30 10 26 17 23
  19790108.240    -6456550.111 7  -4945387.19046  19790105.7684
       852.844
  22194911.662     6621661.484 6   5144826.73745  22194910.1274
     -2841.578
  22656176.732     6384908.485 6   4975251.40945  22656176.1824
     -2751.078
  22327874.748    -6868994.125 6  -5196575.72945  22327873.6234
      2535.234
  20871897.100    -8165668.934 7  -6253191.34546  20871895.3654
      1589.688
  22390306.982    -7064280.482 6  -5317366.01745  22390306.7134
      3395.141
 98  6 15 20 45 29.9980000  0  6 06 30 10 26 17 23
  19785285.623    -6481893.363 7  -4965135.18646  19785283.1624
       837.109
  22211161.037     6707050.787 6   5211363.78545  22211158.9754
     -2850.578
  22671909.084     6467579.112 6   5039670.04345  22671908.7564
     -2759.844
  22313442.107    -6944840.492 6  -5255676.73045  22313441.7214
      2521.578
  20862847.170    -8213226.221 7  -6290248.97046  20862845.7644
      1581.531
  22370955.522    -7165972.412 6  -5396606.39645  22370954.5144
      3384.656
 98  6 15 20 45 59.9980000  0  6 06 30 10 26 17 23
  19780551.436    -6506771.656 7  -4984520.86346  19780548.9284
       821.453
  22227457.889     6792692.587 6   5278097.58145  22227456.1894
     -2858.609
  22687690.701     6550509.704 6   5104291.24045  22687690.7954
     -2768.844
  22299086.232    -7020278.439 6  -5314459.49045  22299085.0374
      2507.797
  20853837.803    -8260570.193 7  -6327140.35846  20853836.1274
      1574.781
  22351663.701    -7267351.410 6  -5475602.93645  22351663.1394
      3374.219
 98  6 15 20 46 29.9980000  0  6 06 30 10 26 17 23
  19775907.889    -6531172.577 7  -5003534.56746  19775905.3114
       805.609
  22243797.264     6878560.679 6   5345007.72345  22243796.2214
     -2865.641
  22703524.037     6633716.052 6   5169127.30845  22703524.8464
     -2777.953
  22284808.529    -7095311.253 6  -5372926.55145  22284806.9124
      2494.672
  20844866.967    -8307712.133 7  -6363874.33246  20844865.1394
      1568.453
  22332431.279    -7368419.652 6  -5554357.31445  22332430.4944
      3363.844
 98  6 15 20 46 59.9980000  0  6 06 30 10 26 17 23
  19771355.357    -6555097.575 7  -5022177.42446  19771352.9794
       789.281
  22260178.123     6964639.862 6   5412082.36245  22260177.4084
     -2873.203
  22719409.662     6717198.416 6   5234178.43545  22719409.3814
     -2787.656
  22270606.139    -7169942.911 6  -5431081.00745  22270604.0064
      2480.813
  20835934.092    -8354655.218 7  -6400453.35046  20835932.2994
      1560.625
  22313259.545    -7469171.512 6  -5632865.16345  22313258.2094
      3352.734
 98  6 15 20 47 29.9980000  0  6 06 30 10 26 17 23
  19766897.373    -6578522.692 7  -5040430.76446  19766895.0184
       772.266
  22276605.272     7050963.819 6   5479347.74345  22276604.4864
     -2881.891
  22735353.889     6800981.424 6   5299463.86045  22735353.4324
     -2797.953
  22256484.092    -7244153.617 6  -5488907.47445  22256482.9324
      2466.344
  20827050.631    -8401337.790 7  -6436829.37746  20827048.9554
      1551.344
  22294154.022    -7569566.533 6  -5711094.96645  22294152.8734
      3340.078
 98  6 15 20 47 59.9980000  0  6 06 30 10 26 17 23
  19762533.428    -6601456.456 7  -5058301.22646  19762531.2364
       756.047
  22293078.334     7137528.223 6   5546800.49245  22293077.0334
     -2889.750
  22751351.357     6885050.275 6   5364972.01645  22751351.4044
     -2807.266
  22242442.936    -7317940.550 6  -5546403.73045  22242442.2214
      2452.141
  20818219.764    -8447745.108 7  -6472990.90646  20818218.5334
      1541.656
  22275118.279    -7669599.003 6  -5789042.26245  22275117.9984
      3328.313
 98  6 15 20 48 29.9980000  0  6 06 30 10 26 17 23
  19758262.772    -6623897.991 7  -5075788.12746  19758260.3934
       740.266
  22309599.014     7224343.901 6   5614449.02445  22309596.6474
     -2897.969
  22767403.334     6969403.348 6   5430701.64945  22767402.5144
     -2816.063
  22228484.334    -7391292.474 6  -5603561.04245  22228483.2214
      2437.969
  20809447.264    -8493844.641 7  -6508912.60846  20809445.8114
      1531.781
  22256150.006    -7769275.685 6  -5866712.32345  22256149.0924
      3316.875
 98  6 15 20 48 59.9980000  0  6 06 30 10 26 17 23
  19754083.787    -6645858.220 7  -5092899.98646  19754081.5374
       723.844
  22326169.506     7311422.804 6   5682302.65645  22326167.0574
     -2907.094
  22783505.561     7054021.993 6   5496638.21045  22783505.2094
     -2825.063
  22214610.553    -7464203.354 6  -5660374.63345  22214609.0534
      2422.953
  20800733.826    -8539634.637 7  -6544593.11446  20800732.4794
      1521.078
  22237249.818    -7868600.942 6  -5944108.54745  22237248.5294
      3304.953
 98  6 15 20 49 29.9980000  0  6 06 30 10 26 17 23
  19749997.514    -6667332.780 7  -5109633.40246  19749995.1584
       708.531
  22342790.084     7398765.774 6   5750362.04145  22342787.7404
     -2915.016
  22799657.607     7138901.449 6   5562777.97845  22799657.4554
     -2832.750
  22200820.943    -7536667.309 6  -5716839.98845  22200819.5844
      2408.625
  20792077.623    -8585122.841 7  -6580038.45246  20792075.9944
      1512.344
  22218415.881    -7967574.046 6  -6021230.34045  22218414.2174
      3294.047
 98  6 15 20 49 59.9980000  0  6 06 30 10 26 17 23
  19745998.178    -6688348.982 7  -5126009.66146  19745996.0104
       692.469
  22359454.131     7486337.866 6   5818599.97245  22359452.9474
     -2923.172
  22815852.600     7224007.195 5   5629094.09945  22815852.7754
     -2840.922
  22187113.818    -7608697.391 6  -5772967.26345  22187112.7404
      2393.328
  20783469.717    -8630356.536 7  -6615285.48646  20783468.1824
      1503.391
  22199642.920    -8066227.110 6  -6098102.79945  22199641.4674
      3282.703
 98  6 15 20 50 29.9980000  0  6 06 30 10 26 17 23
  19742087.639    -6708900.695 7  -5142023.98246  19742085.4824
       677.063
  22376162.451     7574139.480 6   5887016.75045  22376160.9514
     -2930.750
  22832088.990     7309335.523 5   5695583.62845  22832090.0224
     -2848.188
  22173489.842    -7680290.094 6  -5828753.73545  22173489.8304
      2378.922
  20774907.147    -8675354.614 7  -6650348.90746  20774905.4594
      1496.047
  22180931.951    -8164549.323 6  -6174717.43245  22180931.7874
      3271.406
 98  6 15 20 50 59.9980000  0  6 06 30 10 26 17 23
  19738267.670    -6728974.639 7  -5157666.00646  19738265.2444
       661.203
  22392916.107     7662174.194 6   5955615.18445  22392914.8424
     -2938.047
  22848369.881     7394889.626 5   5762249.12245  22848367.5964
     -2855.266
  22159950.475    -7751439.885 6  -5884195.07645  22159949.8774
      2364.547
  20766386.326    -8720130.121 7  -6685238.90546  20766385.0144
      1489.047
  22162288.818    -8262519.187 6  -6251057.52345  22162289.4634
      3259.891
 98  6 15 20 51 29.9980000  0  7 22 06 30 10 26 17 23
  23568336.006      -24284.84113
      2204.406
  19734538.178    -6748573.135 7  -5172937.55846  19734535.9634
       645.266
  22409708.936     7750425.671 6   6024382.49945  22409707.7294
     -2945.516
  22864689.842     7480646.596 6   5829072.69645  22864689.1974
     -2861.828
  22146492.607    -7822160.579 6  -5939302.05345  22146491.6114
      2350.234
  20757907.467    -8764688.455 7  -6719959.66846  20757905.7444
      1481.359
  22143712.365    -8360137.850 6  -6327123.94845  22143711.0764
      3247.938
 98  6 15 20 51 59.9980000  0  7 22 06 30 10 26 17 23
  23555803.889      -90149.962 4
      2187.047
  19730901.201    -6767685.650 7  -5187830.42946  19730899.1274
       629.281
  22426545.311     7838900.839 6   6093324.13445  22426543.5764
     -2952.422
  22881045.943     7566600.962 6   5896050.06945  22881045.4634
     -2868.078
  22133115.928    -7892457.959 6  -5994079.17145  22133115.1074
      2336.641
  20749472.857    -8809011.395 7  -6754497.01446  20749471.4394
      1473.906
  22125205.990    -8457396.386 6  -6402909.74045  22125204.3384
      3236.391
 98  6 15 20 52 29.9980000  0  7 22 06 30 10 26 17 23
  23543369.412     -155487.917 3
      2169.188
  19727358.357    -6786303.984 7  -5202338.22646  19727356.1074
       611.969
  22443424.029     7927599.476 6   6162439.89145  22443422.6474
     -2960.625
  22897439.889     7652751.173 5   5963180.07845  22897439.0924
     -2875.203
  22119817.475    -7962339.495 6  -6048532.24445  22119816.6434
      2322.109
  20741083.842    -8853097.585 7  -6788849.87546  20741082.0494
      1465.141
  22106765.740    -8554299.093 6  -6478418.26145  22106764.3694
      3223.984
 98  6 15 20 52 59.9980000  0  7 22 06 30 10 26 17 23
  23531033.193     -220316.604 4    -40381.81252  23531032.8424
      2152.438
  19723911.443    -6804416.271 7  -5216451.69446  19723908.8894
       595.344
  22460343.889     8016516.513 6   6231725.82745  22460343.1274
     -2967.391
  22913871.154     7739097.619 5   6030462.93845  22913871.8224
     -2881.422
  22106599.467    -8031799.539 6  -6102656.91945  22106598.8114
      2308.328
  20732742.561    -8896930.041 7  -6823005.03246  20732741.1074
      1456.625
  22088391.615    -8650852.950 6  -6553654.96945  22088390.1504
      3212.703
 98  6 15 20 53 29.9980000  0  7 22 06 30 10 26 17 23
  23518792.748     -284644.594 5    -90507.49243  23518790.6744
      2136.141
  19720560.545    -6822026.912 7  -5230174.27946  19720558.0024
       578.672
  22477304.701     8105643.804 6   6301175.61645  22477303.8344
     -2974.516
  22930340.475     7825640.904 6   6097899.18245  22930340.2404
     -2888.375
  22093463.162    -8100832.628 6  -6156448.88145  22093462.4714
      2293.797
  20724453.232    -8940490.378 7  -6856948.14046  20724451.7444
      1447.469
  22070082.873    -8747063.793 6  -6628624.40445  22070082.4284
      3201.328
 98  6 15 20 53 59.9980000  0  7 22 06 30 10 26 17 23
  23506642.295     -348493.999 4   -140260.30343  23506639.7524
      2119.984
  19717303.928    -6839139.401 7  -5243508.69046  19717301.3854
       561.750
  22494304.342     8194977.682 6   6370786.37745  22494303.2404
     -2981.391
  22946850.545     7912399.636 6   6165503.33945  22946848.8934
     -2896.063
  22080410.631    -8169424.251 6  -6209896.82945  22080408.6044
      2278.422
  20716213.795    -8983788.388 7  -6890686.84646  20716212.0844
      1438.625
  22051839.139    -8842934.514 6  -6703328.80845  22051838.7054
      3189.719
 98  6 15 20 54 29.9980000  0  7 22 06 30 10 26 17 23
  23494585.178     -411851.332 5   -189629.59343  23494584.3694
      2103.859
  19714144.115    -6855744.144 7  -5256447.45646  19714141.6074
       545.375
  22511343.443     8284515.714 6   6440556.19145  22511342.3304
     -2987.563
  22963404.092     7999388.176 6   6233286.58945  22963402.4164
     -2903.156
  22067446.561    -8237550.571 6  -6262982.23245  22067444.8974
      2263.359
  20708024.623    -9026822.487 7  -6924219.90546  20708023.3344
      1430.453
  22033660.451    -8938464.260 6  -6777767.50645  22033660.1824
      3178.984
 98  6 15 20 54 59.9980000  0  7 22 06 30 10 26 17 23
  23482623.693     -474709.809 4   -238610.18143  23482624.9944
      2087.125
  19711077.240    -6871861.327 7  -5269006.30746  19711074.7094
       529.766
  22528416.584     8374234.984 6   6510467.24945  22528414.8854
     -2993.203
  22979999.272     8086600.004 5   6301243.80745  22979998.7564
     -2910.422
  22054569.248    -8305223.643 6  -6315714.45345  22054567.5964
      2248.828
  20699881.756    -9069613.542 7  -6957563.57046  20699880.3734
      1422.906
  22015543.990    -9033669.533 6  -6851953.35445  22015542.6434
      3168.547
 98  6 15 20 55 29.9980000  0  7 22 06 30 10 26 17 23
  23470759.162     -537058.894 4   -287193.82042  23470758.7994
      2069.406
  19708100.623    -6887504.714 7  -5281195.96046  19708098.0574
       513.219
  22545523.264     8464133.683 6   6580518.09245  22545521.8694
     -2999.969
  22996637.568     8174037.142 5   6369376.53945  22996637.7094
     -2918.750
  22041775.607    -8372453.246 6  -6368101.11345  22041774.5184
      2233.172
  20691783.100    -9112173.522 7  -6990727.18746  20691781.4364
      1414.625
  21997487.436    -9128555.576 6  -6925890.44945  21997486.1474
      3157.203
 98  6 15 20 55 59.9980000  0  7 22 06 30 10 26 17 23
  23458994.186     -598882.989 4   -335368.40843  23458992.8034
      2052.391
  19705215.217    -6902665.243 7  -5293009.36046  19705212.6744
       497.797
  22562665.482     8554213.498 6   6650710.09445  22562665.0724
     -3004.969
  23013321.912     8261709.363 6   6437692.50045  23013320.1784
     -2925.688
  22029068.529    -8439229.385 6  -6420134.42545  22029067.2404
      2218.875
  20683726.373    -9154509.750 7  -7023716.44046  20683725.0374
      1408.000
  21979495.186    -9223106.840 6  -6999566.69545  21979494.0614
      3146.547
 98  6 15 20 56 29.9980000  0  7 22 06 30 10 26 17 23
  23447328.397     -660186.107 4   -383137.06742  23447328.0334
      2034.391
  19702419.818    -6917356.580 7  -5304457.15946  19702417.4984
       481.531
  22579837.123     8644456.468 6   6721029.26045  22579835.8574
     -3011.359
  23030045.904     8349595.598 6   6506175.22445  23030045.3544
     -2933.484
  22016444.897    -8505564.559 6  -6471824.14145  22016443.0334
      2203.328
  20675710.420    -9196633.692 7  -7056540.28546  20675709.0144
      1400.156
  21961564.154    -9317332.831 6  -7072989.48845  21961563.2404
      3134.844
 98  6 15 20 56 59.9980000  0  7 22 06 30 10 26 17 23
  23435762.123     -720966.194 3   -430498.10043  23435761.8424
      2017.969
  19699712.631    -6931582.321 7  -5315542.15646  19699709.8544
       467.141
  22597043.186     8734873.919 6   6791484.33245  22597042.5184
     -3016.266
  23046811.147     8437696.291 6   6574825.04745  23046809.9634
     -2939.531
  22003906.936    -8571450.342 6  -6523163.68145  22003904.9084
      2189.328
  20667736.326    -9238539.099 7  -7089193.83846  20667734.7794
      1393.859
  21943699.506    -9411210.011 6  -7146140.49745  21943699.0724
      3123.891
 98  6 15 20 57 29.9980000  0  7 22 06 30 10 26 17 23
  23424292.506     -781239.923 4   -477464.64342  23424291.8734
      2000.203
  19697092.662    -6945350.148 7  -5326270.34146  19697090.0844
       450.703
  22614282.639     8825461.648 6   6862072.11945  22614280.8114
     -3022.891
  23063613.178     8525992.341 5   6643627.09945  23063612.9554
     -2946.781
  21991455.365    -8636886.847 6  -6574153.11845  21991453.1274
      2173.094
  20659802.123    -9280235.075 7  -7121684.20746  20659800.2484
      1385.891
  21925903.748    -9504731.333 6  -7219014.19445  21925902.8224
      3110.828
 98  6 15 20 57 59.9980000  0  7 22 06 30 10 26 17 23
  23412922.139     -840991.385 4   -524024.20042  23412921.4714
      1983.078
  19694563.920    -6958639.504 7  -5336625.68546  19694561.4364
       434.969
  22631555.045     8916231.994 6   6932802.18245  22631552.9004
     -3028.688
  23080452.498     8614486.491 5   6712583.55044  23080452.0294
     -2952.859
  21979091.732    -8701855.354 6  -6624777.87345  21979089.2484
      2158.016
  20651909.522    -9321708.358 7  -7154001.05146  20651908.4324
      1378.672
  21908179.529    -9597873.788 6  -7291592.65746  21908178.4634
      3098.625
 98  6 15 20 58 29.9980000  0  7 22 06 30 10 26 17 23
  23401649.147     -900228.985 4   -570183.34242  23401648.4794
      1965.766
  19692126.193    -6971448.250 7  -5346606.53946  19692123.6974
       418.641
  22648863.373     9007186.676 6   7003675.85645  22648862.0024
     -3035.328
  23097327.561     8703164.409 5   6781683.19143  23097328.0534
     -2959.266
  21966815.350    -8766370.962 6  -6675049.75145  21966814.0844
      2142.750
  20644060.397    -9362958.224 7  -7186143.78646  20644058.8974
      1370.984
  21890523.139    -9690657.695 6  -7363891.74846  21890521.5924
      3086.609
 98  6 15 20 58 59.9980000  0  7 22 06 30 10 26 17 23
  23390478.420     -958938.197 4   -615930.75142  23390478.1624
      1948.719
  19689782.256    -6983766.131 7  -5356204.89346  19689779.7134
       402.891
  22666209.162     9098340.859 6   7074705.01445  22666207.8384
     -3041.188
  23114238.904     8792035.469 5   6850933.25844  23114238.8114
     -2965.078
  21954624.162    -8830432.650 6  -6724967.92545  21954623.1314
      2128.313
  20636255.022    -9403974.023 7  -7218104.15846  20636253.2874
      1363.703
  21872935.787    -9783074.618 6  -7435904.88245  21872934.4984
      3075.000
 98  6 15 20 59 29.9980000  0  7 22 06 30 10 26 17 23
  23379404.561    -1017128.946 4   -661274.23242  23379402.9084
      1930.922
  19687531.412    -6995594.377 7  -5365421.71346  19687529.0104
       385.969
  22683589.998     9189676.668 6   7145875.69245  22683588.6864
     -3047.422
  23131185.756     8881089.906 5   6920326.27345  23131185.5334
     -2971.375
  21942520.014    -8894042.292 6  -6774533.86245  21942518.5494
      2112.672
  20628495.654    -9444749.338 7  -7249877.12046  20628494.2724
      1354.813
  21855416.326    -9875138.985 6  -7507643.30245  21855415.8344
      3063.094
 98  6 15 20 59 59.9980000  0  7 22 06 30 10 26 17 23
  23368429.482    -1074800.606 3   -706213.09242  23368428.1824
      1913.547
  19685373.795    -7006934.171 7  -5374257.92046  19685370.9124
       369.625
  22701000.506     9281171.226 6   7217170.07745  22700999.4164
     -3052.531
  23148163.404     8970306.807 5   6989845.89345  23148163.1004
     -2976.641
  21930500.959    -8957205.567 6  -6823751.93645  21930499.2254
      2097.734
  20620784.107    -9485274.420 7  -7281455.10046  20620782.3264
      1346.375
  21837959.576    -9966874.812 6  -7579125.69845  21837959.4244
      3052.125
 98  6 15 21  0 29.9980000  0  7 22 06 30 10 26 17 23
  23357556.131    -1131947.222 4   -750742.86742  23357554.6544
      1896.703
  19683310.967    -7017774.406 7  -5382704.85946  19683308.3774
       353.547
  22718442.084     9372825.434 6   7288588.87045  22718441.4044
     -3057.188
  23165171.576     9059686.214 5   7059492.13245  23165171.7644
     -2981.563
  21918570.951    -9019895.365 6  -6872601.09345  21918568.9944
      2081.969
  20613123.451    -9525532.619 7  -7312825.11346  20613122.0454
      1337.938
  21820570.756   -10058258.846 6  -7650333.98645  21820569.6784
      3040.391
 98  6 15 21  0 59.9980000  0  7 22 06 30 10 26 17 23
  23346778.693    -1188578.375 3   -794871.09042  23346779.7254
      1879.484
  19681342.412    -7028119.503 7  -5390765.97846  19681339.8224
       336.594
  22735911.287     9464621.899 6   7360118.52845  22735910.6434
     -3061.766
  23182210.311     9149224.934 5   7129262.47944  23182210.5104
     -2987.000
  21906736.522    -9082086.618 6  -6921061.76045  21906734.6114
      2064.750
  20605514.701    -9565516.778 7  -7343981.59246  20605513.1194
      1328.422
  21803253.334   -10149263.878 6  -7721246.93946  21803251.8694
      3027.313
 98  6 15 21  1 29.9980000  0  7 22 06 30 10 26 17 23
  23336097.725    -1244707.819 4   -838608.26142  23336097.6194
      1862.234
  19679470.014    -7037958.458 7  -5398432.69746  19679467.4824
       319.234
  22753402.232     9556538.523 6   7431741.79045  22753400.8854
     -3066.047
  23199276.662     9238908.238 5   7199145.50444  23199277.0254
     -2991.953
  21894997.678    -9143771.718 6  -6969128.03845  21894995.9434
      2047.609
  20597955.818    -9605235.694 7  -7374931.39946  20597954.4364
      1319.484
  21786006.897   -10239892.806 6  -7791866.83146  21786005.4794
      3014.594
 98  6 15 21  1 59.9980000  0  7 22 06 30 10 26 17 23
  23325514.076    -1300320.749 4   -881942.99842  23325515.1784
      1845.531
  19677696.154    -7047279.950 7  -5405696.20446  19677693.7524
       302.453
  22770916.912     9648582.461 6   7503464.26345  22770914.4634
     -3070.172
  23216371.100     9328742.819 5   7269146.38943  23216371.3114
     -2997.000
  21883356.381    -9204948.839 6  -7016798.47545  21883354.8934
      2030.984
  20590446.959    -9644698.096 7  -7405681.30846  20590445.6824
      1311.578
  21768833.842   -10330135.059 6  -7862185.40945  21768833.1274
      3001.563
 98  6 15 21  2 29.9980000  0  7 22 06 30 10 26 17 23
  23315024.186    -1355447.647 4   -924898.99542  23315023.3184
      1829.219
  19676014.600    -7056116.083 7  -5412581.50546  19676012.2094
       286.406
  22788455.350     9740743.223 5   7575277.76245  22788454.0144
     -3073.969
  23233496.045     9418728.542 5   7339265.06343  23233495.7174
     -3002.453
  21871807.350    -9265640.447 6  -7064090.59745  21871805.3814
      2015.031
  20582979.943    -9683938.470 7  -7436258.21546  20582977.9394
      1304.359
  21751733.272   -10419997.286 6  -7932207.85345  21751732.2754
      2989.188
 98  6 15 21  2 59.9980000  0  7 22 06 30 10 26 17 23
  23304632.443    -1410061.969 5   -967455.55943  23304633.3114
      1811.563
  19674427.592    -7064455.332 7  -5419079.63446  19674425.1894
       269.438
  22806015.686     9833027.933 5   7647187.81945  22806014.8774
     -3078.406
  23250653.850     9508890.909 5   7409521.40644  23250653.8384
     -3008.391
  21860349.576    -9325849.247 6  -7111006.50545  21860347.7724
      1999.031
  20575554.084    -9722959.033 7  -7466663.85646  20575552.3974
      1297.031
  21734704.092   -10509489.608 6  -8001942.09845  21734702.8854
      2977.047
 98  6 15 21  3 29.9980000  0  7 22 06 30 10 26 17 23
  23294339.475    -1464148.395 4  -1009600.80843  23294338.6434
      1793.891
  19672935.373    -7072296.107 7  -5425189.32646  19672932.8544
       253.125
  22823601.607     9925440.329 5   7719197.39345  22823601.4794
     -3082.609
  23267842.748     9599220.514 5   7479908.03744  23267842.0924
     -3013.891
  21848979.834    -9385597.637 6  -7157563.65745  21848978.5454
      1983.922
  20568167.514    -9761776.746 7  -7496911.41446  20568166.1314
      1290.453
  21717740.318   -10598633.891 6  -8071405.12546  21717738.8894
      2965.594
 98  6 15 21  3 59.9980000  0  7 22 06 30 10 26 17 23
  23284146.600    -1517709.161 4  -1051336.42742  23284147.4904
      1776.797
  19671536.170    -7079650.189 7  -5430919.78346  19671533.8734
       237.063
  22841211.240    10017978.319 6   7791304.84645  22841210.6434
     -3086.578
  23285063.506     9689718.097 5   7550425.57244  23285061.4324
     -3019.172
  21837696.881    -9444889.297 6  -7203764.90445  21837695.4984
      1968.828
  20560819.537    -9800391.451 7  -7527000.78646  20560817.8264
      1283.922
  21700842.654   -10687431.335 6  -8140597.87646  21700841.2484
      2954.188
 98  6 15 21  4 29.9980000  0  7 22 06 30 10 26 17 23
  23274053.998    -1570750.006 5  -1092666.95343  23274053.7294
      1759.594
  19670230.897    -7086511.259 7  -5436266.07846  19670228.5414
       220.594
  22858843.420    10110635.674 5   7863505.28045  22858843.5374
     -3090.016
  23302313.701     9780370.148 5   7621063.47444  23302311.9324
     -3023.734
  21826501.467    -9503719.970 6  -7249606.95145  21826500.7994
      1953.609
  20553508.678    -9838809.374 7  -7556936.82546  20553506.9794
      1277.703
  21684009.904   -10775888.155 6  -8209525.19746  21684008.8854
      2943.375
 98  6 15 21  4 59.9980000  0  7 22 06 30 10 26 17 23
  23264060.959    -1623262.692 4  -1133585.89643  23264062.7874
      1742.047
  19669024.092    -7092850.912 7  -5441206.06946  19669021.4084
       202.656
  22876497.537    10203411.538 5   7935798.07745  22876496.3424
     -3094.328
  23319592.522     9871164.567 5   7691812.30344  23319591.2684
     -3028.516
  21815397.576    -9562071.775 6  -7295075.84245  21815396.4634
      1937.125
  20546237.639    -9877019.285 7  -7586710.77646  20546236.3854
      1270.188
  21667242.607   -10864000.988 6  -8278184.50246  21667241.4594
      2931.438
 98  6 15 21  5 29.9980000  0  7 22 06 30 10 26 17 23
  23254167.170    -1675259.943 4  -1174103.18543  23254168.3074
      1724.813
  19667918.287    -7098664.029 7  -5445735.77446  19667915.5334
       185.156
  22894175.061    10296305.723 5   8008183.06445  22894174.5454
     -3098.297
  23336895.334     9962101.759 5   7762672.35943  23336894.1044
     -3033.672
  21804387.186    -9619933.529 6  -7340162.89145  21804385.5334
      1920.438
  20539008.670    -9915006.818 7  -7616311.43546  20539007.5684
      1262.547
  21650541.514   -10951762.950 6  -8346570.40746  21650540.2604
      2919.578
 98  6 15 21  5 59.9980000  0  7 22 06 30 10 26 17 23
  23244369.506    -1726747.857 5  -1214223.62143  23244369.2134
      1707.609
  19666911.287    -7103954.845 7  -5449858.50046  19666908.6044
       167.625
  22911873.881    10389314.718 5   8080657.52845  22911872.5574
     -3102.375
  23354229.451    10053188.434 5   7833648.89043  23354229.6864
     -3038.719
  21793472.506    -9677291.012 6  -7384856.97445  21793471.1824
      1903.391
  20531823.443    -9952765.434 7  -7645733.72346  20531821.9794
      1254.828
  21633908.647   -11039168.499 6  -8414678.57645  21633907.8504
      2907.438
 98  6 15 21  6 29.9980000  0  7 22 06 30 10 26 17 23
  23234670.443    -1777713.645 4  -1253937.21842  23234670.9124
      1690.141
  19666003.725    -7108723.251 7  -5453574.15446  19666001.0294
       150.375
  22929597.123    10482446.638 5   8153227.75845  22929596.5254
     -3106.406
  23371591.904    10144428.453 5   7904744.96243  23371592.3384
     -3043.984
  21782654.467    -9734138.727 6  -7429153.85445  21782652.5334
      1886.563
  20524681.967    -9990294.785 7  -7674977.36746  20524680.2324
      1247.078
  21617344.678   -11126212.848 6  -8482505.27846  21617343.6114
      2895.531
 98  6 15 21  6 59.9980000  0  7 22 06 30 10 26 17 23
  23225069.584    -1828164.320 4  -1293249.42143  23225069.3504
      1673.266
  19665192.068    -7112989.078 7  -5456898.19046  19665189.6544
       134.156
  22947342.975    10575697.052 6   8225890.33945  22947341.6504
     -3110.141
  23388983.373    10235822.434 5   7975960.98244  23388984.8734
     -3048.922
  21771930.451    -9790494.390 6  -7473067.31545  21771928.5764
      1870.563
  20517583.693   -10027596.907 7  -7704043.95046  20517582.3224
      1239.828
  21600848.865   -11212901.936 6  -8550055.16546  21600847.2484
      2883.781
 98  6 15 21  7 29.9980000  0  7 22 06 30 10 26 17 23
  23215567.928    -1878097.500 3  -1332158.35542  23215568.8424
      1655.453
  19664471.850    -7116774.745 7  -5459848.05846  19664469.1434
       118.125
  22965111.514    10669071.175 6   8298649.29245  22965110.6474
     -3115.016
  23406404.061    10327369.406 5   8047296.20344  23406404.8224
     -3054.219
  21761298.623    -9846363.952 6  -7516602.00945  21761297.9554
      1853.953
  20510527.092   -10064679.286 7  -7732939.29846  20510525.5334
      1232.313
  21584421.318   -11299227.051 6  -8617321.43346  21584419.8544
      2871.047
 98  6 15 21  7 59.9980000  0  7 22 06 30 10 26 17 23
  23206170.561    -1927477.585 4  -1370636.35743  23206169.7404
      1636.844
  19663847.022    -7120058.022 7  -5462406.47546  19663844.3504
       101.172
  22982910.107    10762612.105 5   8371538.23545  22982908.9824
     -3120.672
  23423855.545    10419078.531 5   8118757.81644  23423856.4594
     -3059.313
  21750765.857    -9901712.467 6  -7559730.67245  21750764.4984
      1836.359
  20503516.943   -10101518.657 7  -7761645.29746  20503515.3974
      1224.078
  21568070.975   -11385147.896 6  -8684272.69546  21568069.6744
      2857.422
 98  6 15 21  8 29.9980000  0  7 22 06 30 10 26 17 23
  23196879.272    -1976308.633 4  -1408686.47742  23196879.4364
      1618.844
  19663315.811    -7122849.156 7  -5464581.39246  19663313.1044
        85.094
  23000739.506    10856306.580 5   8444546.80045  23000739.4124
     -3125.344
  23441334.647    10510921.681 5   8190323.81744  23441336.5924
     -3063.328
  21740331.287    -9956547.775 6  -7602459.43345  21740330.3034
      1819.484
  20496550.639   -10138127.191 7  -7790171.41947  20496549.1864
      1216.594
  21551795.397   -11470677.220 6  -8750918.88746  21551794.0494
      2844.734
 98  6 15 21  8 59.9980000  0  7 22 06 30 10 26 17 23
  23187689.662    -2024597.649 4  -1446314.30443  23187689.4044
      1600.766
  19662876.686    -7125157.627 7  -5466380.21546  19662874.0844
        69.172
  23018596.318    10950140.943 5   8517664.39945  23018595.3694
     -3129.672
  23458831.834    10602879.166 4   8261978.93043  23458833.0184
     -3066.734
  21729994.545   -10010868.304 6  -7644787.06245  21729993.1864
      1802.109
  20489628.686   -10174502.689 7  -7818515.95846  20489627.2214
      1208.844
  21535594.506   -11555813.704 6  -8817258.97746  21535592.6784
      2831.500
 98  6 15 21  9 29.9980000  0  7 22 06 30 10 26 17 23
  23178604.092    -2072342.353 5  -1483517.93943  23178604.1274
      1581.953
  19662526.725    -7126995.877 7  -5467812.61446  19662524.1704
        53.078
  23036472.951    11044083.001 5   8590865.87545  23036472.1434
     -3133.234
  23476347.092    10694927.559 4   8333704.87143  23476349.7644
     -3070.031
  21719758.334   -10064662.989 6  -7686704.96245  21719756.5414
      1784.000
  20482749.982   -10210649.671 7  -7846682.43147  20482748.5534
      1200.703
  21519467.545   -11640561.889 6  -8883296.49146  21519465.6584
      2818.250
 98  6 15 21  9 59.9980000  0  7 22 06 30 10 26 17 23
  23169624.178    -2119533.486 4  -1520290.18543  23169623.8264
      1563.938
  19662268.170    -7128355.042 7  -5468871.71146  19662265.7564
        37.281
  23054364.545    11138098.881 5   8664124.88945  23054364.2054
     -3134.641
  23493882.756    10787069.692 4   8405503.84943  23493884.7254
     -3073.109
  21709622.279   -10117926.547 6  -7728208.99645  21709620.6394
      1766.750
  20475916.303   -10246560.680 7  -7874665.03347  20475914.9904
      1193.094
  21503412.529   -11724930.398 6  -8949038.12946  21503410.8184
      2806.016
 98  6 15 21 10 29.9980000  0  7 22 06 30 10 26 17 23
  23160747.295    -2166183.221 5  -1556640.64543  23160745.5724
      1545.625
  19662100.334    -7129237.637 7  -5469559.45346  19662097.3934
        20.953
  23072262.107    11232154.629 5   8737414.96845  23072260.9714
     -3136.250
  23511435.873    10879313.906 5   8477382.39543  23511437.0684
     -3077.141
  21699583.545   -10170677.952 6  -7769313.95245  21699581.7874
      1749.484
  20469127.154   -10282239.463 7  -7902466.67047  20469125.6074
      1184.906
  21487429.404   -11808921.800 6  -9014485.93246  21487427.5534
      2792.859
 98  6 15 21 10 59.9980000  0  7 22 06 30 10 26 17 23
  23151974.303    -2212282.045 4  -1592561.79842  23151973.9984
      1527.391
  19662028.475    -7129615.474 7  -5469853.88346  19662025.7444
         3.953
  23090169.522    11326262.783 5   8810745.88044  23090168.3614
     -3137.766
  23529015.193    10971692.790 5   8549365.84443  23529015.5574
     -3081.688
  21689645.162   -10222906.173 6  -7810011.23345  21689643.7684
      1732.156
  20462385.350   -10317666.404 7  -7930072.07847  20462383.6744
      1176.813
  21471523.264   -11892509.194 6  -9079618.93146  21471521.8344
      2779.469
 98  6 15 21 11 29.9980000  0  7 22 06 30 10 26 17 23
  23143303.897    -2257846.076 5  -1628066.18543  23143304.8694
      1510.438
  19662052.951    -7129486.903 7  -5469753.70246  19662050.5144
       -12.500
  23108084.295    11420404.510 5   8884102.94145  23108084.3654
     -3138.438
  23546619.568    11064199.553 5   8621448.97843  23546619.6394
     -3085.297
  21679803.475   -10274625.425 6  -7850311.91845  21679801.5184
      1716.078
  20455685.873   -10352871.648 7  -7957504.72847  20455684.5024
      1170.375
  21455690.725   -11975709.648 6  -9144450.42246  21455689.5294
      2767.359
 98  6 15 21 11 59.9980000  0  7 22 06 30 10 26 17 23
  23134731.037    -2302894.780 5  -1663169.10143  23134729.6544
      1493.125
  19662176.100    -7128839.715 7  -5469249.41546  19662173.1934
       -30.344
  23126009.506    11514597.967 5   8957500.37045  23126008.8034
     -3140.953
  23564246.756    11156833.417 5   8693631.15643  23564246.8034
     -3089.891
  21670054.748   -10325854.004 6  -7890230.26045  21670052.8144
      1699.406
  20449025.139   -10387874.795 7  -7984779.90747  20449023.4984
      1163.500
  21439929.998   -12058533.324 6  -9208988.31946  21439928.8144
      2754.500
 98  6 15 21 12 29.9980000  0  7 22 06 30 10 26 17 23
  23126255.748    -2347437.183 5  -1697877.44842  23126255.9124
      1476.094
  19662398.342    -7127671.278 7  -5468338.94746  19662395.4944
       -47.828
  23143948.186    11608864.798 5   9030954.93845  23143946.6624
     -3143.703
  23581896.357    11249577.761 5   8765899.40643  23581894.3894
     -3093.313
  21660399.592   -10376590.958 6  -7929765.50545  21660397.9164
      1682.719
  20442399.303   -10422691.602 7  -8011909.88647  20442397.8144
      1157.359
  21424239.982   -12140985.268 6  -9273236.54646  21424238.9044
      2742.172
 98  6 15 21 12 59.9980000  0  7 22 06 30 10 26 17 23
  23117882.615    -2391440.292 5  -1732165.54443  23117882.1234
      1458.125
  19662725.459    -7125952.212 7  -5466999.43246  19662722.8344
       -65.953
  23161905.811    11703235.047 5   9104490.08544  23161904.4284
     -3146.797
  23599568.568    11342448.432 5   8838266.06442  23599569.8574
     -3097.188
  21650846.889   -10426791.029 6  -7968882.40745  21650845.2954
      1664.609
  20435814.428   -10457298.010 7  -8038875.91347  20435812.9864
      1150.438
  21408623.420   -12223048.564 6  -9337181.93646  21408621.6044
      2729.516
 98  6 15 21 13 29.9980000  0  7 22 06 30 10 26 17 23
  23109608.240    -2434914.897 4  -1766041.81742  23109608.4984
      1440.344
  19663152.279    -7123708.707 7  -5465251.24646  19663149.5844
       -83.453
  23179879.631    11797684.410 5   9178086.87844  23179878.6354
     -3149.828
  23617260.514    11435418.738 5   8910710.36942  23617260.0924
     -3100.859
  21641396.826   -10476450.807 6  -8007578.30545  21641395.7014
      1646.188
  20429268.162   -10491699.421 7  -8065682.20647  20429266.2754
      1142.953
  21393077.850   -12304744.288 6  -9400840.89946  21393076.4084
      2717.000
 98  6 15 21 13 59.9980000  0  7 22 06 30 10 26 17 23
  23101435.217    -2477865.682 4  -1799509.99342  23101437.3034
      1422.609
  19663677.076    -7120951.400 7  -5463102.70446  19663674.6864
      -100.656
  23197867.818    11892217.797 5   9251749.14744  23197867.2444
     -3152.719
  23634972.584    11528495.056 5   8983237.33042  23634971.8464
     -3104.563
  21632050.686   -10525564.283 6  -8045848.51245  21632049.3144
      1627.500
  20422764.764   -10525874.013 7  -8092311.76347  20422763.1704
      1134.797
  21377600.514   -12386074.050 6  -9464214.70246  21377599.2604
      2704.500
 98  6 15 21 14 29.9980000  0  7 22 06 30 10 26 17 23
  23093363.873    -2520280.985 4  -1832560.83542  23093364.9394
      1405.000
  19664300.295    -7117676.481 7  -5460550.82846  19664297.7294
      -117.797
  23215872.998    11986833.721 5   9325475.74144  23215872.8694
     -3155.063
  23652705.154    11621684.276 5   9055852.23743  23652704.8854
     -3108.250
  21622812.639   -10574110.683 6  -8083676.84645  21622811.2794
      1608.891
  20416311.061   -10559788.860 7  -8118738.91447  20416309.3974
      1126.031
  21362197.357   -12467019.312 6  -9527288.88746  21362196.1504
      2691.750
 98  6 15 21 14 59.9980000  0  7 22 06 30 10 26 17 23
  23085395.350    -2562162.859 4  -1865196.03842  23085394.5884
      1387.563
  19665022.451    -7113881.702 7  -5457593.86246  19665019.5104
      -134.703
  23233891.584    12081520.630 5   9399257.58944  23233892.1704
     -3156.891
  23670462.420    11714996.246 5   9128562.78443  23670463.5804
     -3111.906
  21613681.576   -10622095.157 6  -8121067.32045  21613679.4204
      1590.688
  20409908.686   -10593432.532 7  -8144954.76147  20409906.9284
      1117.422
  21346867.943   -12547576.626 6  -9590060.77646  21346866.6784
      2679.234
 98  6 15 21 15 29.9980000  0  6 22 06 30 26 17 23
  23077524.029    -2603520.435 4  -1897422.70042  23077524.6154
      1369.984
  19665840.639    -7109580.642 7  -5454242.39346  19665838.2364
      -151.656
  23251921.811    12176266.449 5   9473085.41244  23251920.3934
     -3159.063
  21604652.365   -10669544.809 6  -8158041.03645  21604649.8574
      1573.125
  20403553.232   -10626829.838 7  -8170978.63947  20403551.5804
      1109.734
  21331610.756   -12627753.278 6  -9652536.05346  21331609.5144
      2666.250
 98  6 15 21 15 59.9980000  0  6 22 06 30 26 17 23
  23069757.576    -2644335.891 5  -1929226.92442  23069754.8814
      1351.422
  19666759.404    -7104753.780 7  -5450481.21746  19666757.1074
      -169.641
  23269965.092    12271083.227 5   9546968.50444  23269962.8304
     -3161.422
  21595724.592   -10716461.399 6  -8194599.36845  21595722.3304
      1555.109
  20397240.100   -10660004.532 7  -8196829.05447  20397238.5644
      1102.500
  21316429.967   -12707527.807 6  -9714697.98246  21316428.8184
      2652.453
 98  6 15 21 16 29.9980000  0  6 22 06 30 26 17 23
  23062095.326    -2684598.547 5  -1960600.36142  23062093.6504
      1333.313
  19667779.311    -7099395.208 7  -5446305.71446  19667776.6504
      -187.016
  23288019.436    12365955.757 5   9620894.99145  23288018.6044
     -3162.719
  21586896.897   -10762847.985 6  -8230744.72845  21586895.1974
      1537.922
  20390965.162   -10692982.078 7  -8222525.84547  20390963.8504
      1096.703
  21301326.756   -12786897.348 6  -9776544.34146  21301325.3264
      2639.438
 98  6 15 21 16 59.9980000  0  6 22 06 30 26 17 23
  23054540.670    -2724300.574 5  -1991537.02943  23054540.7994
      1313.750
  19668899.686    -7093506.759 7  -5441717.32446  19668897.1894
      -205.250
  23306080.475    12460867.405 5   9694851.99144  23306080.0294
     -3164.391
  21578171.943   -10808699.851 6  -8266473.42145  21578170.4434
      1519.234
  20384723.295   -10725781.685 7  -8248083.97847  20384722.0534
      1090.234
  21286299.943   -12865863.058 6  -9838076.04246  21286298.1744
      2625.188
 98  6 15 21 17 29.9980000  0  6 22 06 30 26 17 23
  23047095.514    -2763423.057 5  -2022022.10142  23047094.9044
      1294.594
  19670122.311    -7087081.282 7  -5436710.46946  19670119.8614
      -222.922
  23324149.951    12555825.768 5   9768845.38743  23324149.2254
     -3166.016
  21569552.670   -10853994.865 6  -8301768.21845  21569550.7724
      1500.391
  20378518.272   -10758391.339 7  -8273494.09547  20378516.7364
      1083.719
  21271354.779   -12944401.140 6  -9899274.50746  21271353.3974
      2610.875
 98  6 15 21 17 59.9980000  0  6 22 06 30 26 17 23
  23039759.920    -2801970.072 5  -2052058.69242  23039757.7644
      1275.609
  19671446.131    -7080125.439 7  -5431290.33546  19671443.7874
      -240.344
  23342228.772    12650831.473 5   9842875.69244  23342227.2834
     -3167.328
  21561042.326   -10898712.819 6  -8336613.35345  21561041.2014
      1481.125
  20372353.943   -10790784.610 7  -8298735.60047  20372352.2794
      1075.922
  21256490.514   -13022513.447 6  -9960141.20246  21256488.9674
      2597.016
 98  6 15 21 18 29.9980000  0  6 22 06 30 26 17 23
  23032529.732    -2839967.977 5  -2081667.41942  23032528.6784
      1257.609
  19672866.092    -7072662.613 7  -5425475.15746  19672863.8074
      -257.172
  23360314.381    12745869.773 5   9916931.34044  23360313.6894
     -3168.594
  21552640.701   -10942866.174 6  -8371018.53245  21552639.2014
      1462.359
  20366234.654   -10822941.022 7  -8323792.54447  20366233.0254
      1067.766
  21241701.865   -13100227.961 7 -10020697.93846  21241700.2254
      2583.844
 98  6 15 21 18 59.9980000  0  6 22 06 30 26 17 23
  23025402.272    -2877423.430 5  -2110853.50443  23025400.5844
      1239.375
  19674382.756    -7064693.200 7  -5419265.23446  19674379.9674
      -274.156
  23378408.162    12840952.255 5   9991021.45444  23378407.9634
     -3170.500
  21544346.373   -10986452.998 6  -8404982.27245  21544344.5334
      1443.391
  20360163.389   -10854845.400 7  -8348653.10047  20360161.7014
      1059.156
  21226990.818   -13177535.823 7 -10080937.79346  21226989.5294
      2569.953
 98  6 15 21 19 29.9970000  0  6 22 06 30 26 17 23
  23018374.899    -2914348.843 5  -2139626.54343  23018374.1384
      1221.563
  19675993.345    -7056229.307 7  -5412669.99046  19675990.5794
      -291.031
  23396513.337    12936096.419 5  10065159.61444  23396514.2744
     -3173.609
  21536159.282   -11029478.370 6  -8438508.51045  21536157.6064
      1424.063
  20354139.259   -10886502.758 7  -8373321.17147  20354137.5014
      1050.547
  21212356.196   -13254439.339 6 -10140862.57546  21212354.6264
      2556.250
 98  6 15 21 19 59.9970000  0  6 22 06 30 26 17 23
  23011450.415    -2950740.726 5  -2167983.78943  23011450.0404
      1204.156
  19677702.001    -7047250.484 7  -5405673.51946  19677699.5874
      -308.109
  23414635.728    13031328.983 5  10139366.65944  23414635.5644
     -3175.703
  21528080.657   -11071930.472 6  -8471588.03345  21528078.9464
      1405.766
  20348162.524   -10917911.535 7  -8397795.54147  20348161.1654
      1043.031
  21197799.478   -13330934.582 6 -10200469.23546  21197798.1424
      2542.938
 98  6 15 21 20 29.9970000  0  6 22 06 30 26 17 23
  23004626.532    -2986604.308 5  -2195929.45143  23004625.3024
      1186.828
  19679511.439    -7037742.705 7  -5398264.87946  19679509.0014
      -325.656
  23432773.165    13126635.623 5  10213631.45844  23432772.9074
     -3177.844
  21520107.868   -11113827.296 6  -8504234.89545  21520105.8294
      1387.500
  20342227.470   -10949099.303 7  -8422097.68947  20342226.0994
      1036.438
  21183321.157   -13407018.304 6 -10259755.23246  21183319.6924
      2529.406
 98  6 15 21 20 59.9970000  0  6 22 06 30 26 17 23
  22997903.110    -3021929.677 5  -2223455.72943  22997902.4664
      1168.078
  19681422.939    -7027698.506 7  -5390438.23746  19681420.1854
      -344.125
  23450920.024    13222004.361 5  10287944.61744  23450919.8024
     -3180.031
  21512241.345   -11155165.310 6  -8536446.30845  21512239.8804
      1368.281
  20336331.478   -10980084.596 7  -8446242.06747  20336329.7904
      1029.078
  21168921.782   -13482687.272 6 -10318718.03946  21168920.4114
      2515.281
 98  6 15 21 21 29.9970000  0  6 22 06 30 26 17 23
  22991289.103    -3056691.658 5  -2250542.97244  22991287.6734
      1149.297
  19683440.814    -7017093.550 7  -5382174.65346  19683438.2354
      -362.953
  23469078.493    13317427.788 5  10362300.39043  23469079.5954
     -3181.297
  21504484.689   -11195925.775 6  -8568207.68045  21504482.7434
      1349.156
  20330477.790   -11010844.728 7  -8470211.00047  20330476.0914
      1021.563
  21154600.509   -13557946.214 6 -10377361.33246  21154599.2674
      2501.906
 98  6 15 21 21 59.9970000  0  6 22 06 30 26 17 23
  22984779.579    -3090895.290 5  -2277195.13544  22984778.5364
      1130.672
  19685565.821    -7005926.515 7  -5373473.07946  19685563.4424
      -381.703
  23487237.860    13412855.779 5  10436659.73643  23487238.5404
     -3180.766
  21496834.212   -11236132.764 6  -8599537.77745  21496832.5954
      1331.141
  20324665.423   -11041389.945 7  -8494012.46947  20324664.0874
      1014.547
  21140354.657   -13632810.878 7 -10435697.39446  21140352.7594
      2488.938
 98  6 15 21 22 29.9970000  0  6 22 06 30 26 17 23
  22978380.399    -3124527.354 5  -2303401.97144  22978379.8844
      1111.313
  19687798.204    -6994195.582 7  -5364332.10646  19687795.8024
      -400.438
  23505396.915    13508280.691 5  10511016.67743  23505396.5754
     -3180.953
  21489289.040   -11275783.417 6  -8630434.35746  21489287.4704
      1312.063
  20318895.212   -11071712.260 7  -8517640.24047  20318893.5834
      1006.781
  21126182.993   -13707281.201 7 -10493726.18746  21126181.4354
      2475.594
 98  6 15 21 22 59.9970000  0  6 22 06 30 26 17 23
  22972088.509    -3157587.162 5  -2329162.84944  22972087.2204
      1092.406
  19690134.204    -6981919.558 7  -5354766.37846  19690131.8494
      -418.297
  23523553.353    13603693.677 5  10585364.31243  23523552.4744
     -3180.359
  21481850.103   -11314871.497 6  -8660892.59245  21481848.3104
      1293.422
  20313168.618   -11101805.730 7  -8541089.69947  20313167.0364
       999.156
  21112086.548   -13781359.083 6 -10551449.16746  21112085.5284
      2462.609
 98  6 15 21 23 29.9970000  0  6 22 06 30 26 17 23
  22965905.712    -3190075.420 5  -2354478.38445  22965905.5714
      1073.531
  19692573.837    -6969099.328 7  -5344776.61446  19692571.5644
      -436.109
  23541711.228    13699111.878 5  10659715.97343  23541710.8644
     -3180.734
  21474521.321   -11353386.703 6  -8690904.42145  21474519.3064
      1274.359
  20307486.837   -11131664.097 7  -8564355.95647  20307485.0674
       991.563
  21098068.814   -13855023.276 6 -10608849.80746  21098067.5484
      2448.344
 98  6 15 21 23 59.9970000  0  6 22 06 30 26 17 23
  22959826.134    -3222025.641 6  -2379374.65845  22959825.4074
      1056.094
  19695107.603    -6955784.823 7  -5334401.68347  19695105.2124
      -451.922
  23559866.407    13794514.616 5  10734055.60643  23559865.1534
     -3179.969
  21467295.517   -11391358.060 6  -8720492.47845  21467293.2784
      1256.438
  20301842.360   -11161325.285 7  -8587468.57447  20301840.8494
       985.344
  21084128.439   -13928281.251 7 -10665933.92346  21084126.7864
      2435.063
 98  6 15 21 24 29.9970000  0  6 22 06 30 26 17 23
  22953847.251    -3253444.515 5  -2403856.88445  22953846.6304
      1038.438
  19697732.064    -6941993.081 7  -5323654.89146  19697729.6494
      -467.688
  23578019.321    13889908.697 5  10808388.52243  23578017.8924
     -3179.672
  21460175.829   -11428770.203 6  -8749644.79945  21460174.2004
      1237.609
  20296236.712   -11190783.703 7  -8610423.18147  20296235.1534
       978.391
  21070265.079   -14001131.677 6 -10722700.45746  21070263.3214
      2421.438
 98  6 15 21 24 59.9970000  0  6 22 06 30 26 17 23
  22947970.618    -3284329.247 6  -2427922.90645  22947969.8924
      1020.578
  19700448.970    -6927716.297 7  -5312530.12646  19700446.2284
      -484.047
  23596171.165    13985297.501 5  10882717.30644  23596172.2084
     -3179.563
  21453165.837   -11465612.410 6  -8778352.98146  21453163.7864
      1218.516
  20290672.610   -11220022.441 7  -8633206.61147  20290670.8884
       970.859
  21056482.439   -14073560.454 7 -10779138.42246  21056480.7984
      2407.250
 98  6 15 21 25 29.9970000  0  6 22 06 30 26 17 23
  22942195.564    -3314676.859 6  -2451570.40645  22942194.3334
      1002.328
  19703259.228    -6912947.341 7  -5301021.86446  19703256.7314
      -500.750
  23614320.720    14080675.998 5  10957038.03843  23614321.4234
     -3179.000
  21446264.220   -11501879.755 6  -8806613.22646  21446261.8884
      1199.141
  20285151.282   -11249036.499 7  -8655814.96147  20285149.8884
       963.188
  21042780.517   -14145563.636 7 -10835244.75646  21042778.6894
      2392.891
 98  6 15 21 25 59.9970000  0  6 22 06 30 26 17 23
  22936523.478    -3344484.790 6  -2474797.32945  22936522.7864
       984.234
  19706163.321    -6897686.187 7  -5289130.07046  19706160.7674
      -517.422
  23632463.587    14176018.113 5  11031330.44043  23632463.7744
     -3177.844
  21439470.993   -11537577.220 6  -8834429.41546  21439469.0244
      1179.969
  20279671.376   -11277832.826 7  -8678253.65447  20279669.9704
       956.047
  21029156.290   -14217160.637 7 -10891034.59746  21029154.5794
      2379.594
 98  6 15 21 26 29.9970000  0  6 22 06 30 26 17 23
  22930954.149    -3373747.953 6  -2497599.79145  22930952.2864
       966.234
  19709164.603    -6881914.741 7  -5276840.65146  19709161.9424
      -534.406
  23650602.634    14271329.629 5  11105598.97144  23650602.2124
     -3176.688
  21432787.587   -11572698.323 6  -8861796.49546  21432786.0994
      1161.172
  20274232.048   -11306417.610 7  -8700527.50347  20274230.5484
       949.266
  21015607.454   -14288359.299 6 -10946514.03446  21015605.7084
      2366.609
 98  6 15 21 26 59.9970000  0  6 22 06 30 26 17 23
  22925492.626    -3402449.061 6  -2519964.30045  22925492.2984
       947.359
  19712266.485    -6865614.398 7  -5264139.09546  19712264.0484
      -552.016
  23668736.962    14366632.370 5  11179860.71543  23668735.9074
     -3176.672
  21426214.478   -11607239.266 6  -8888711.49046  21426212.7314
      1141.813
  20268834.243   -11334783.460 7  -8722630.75947  20268832.5214
       942.063
  21002136.923   -14359146.314 6 -11001672.70946  21002135.5644
      2352.891
 98  6 15 21 27 29.9970000  0  5 22 06 26 17 23
  22920138.915    -3430584.057 6
       928.469
  19715467.884    -6848789.996 7  -5251029.18646  19715465.4934
      -569.453
  21419750.024   -11641208.827 6  -8915181.26846  21419748.4424
      1123.000
  20263476.251   -11362939.828 7  -8744570.78647  20263474.3764
       935.266
  20988743.798   -14429529.169 6 -11056516.46946  20988742.4744
      2339.531
 98  6 15 21 27 59.9970000  0  5 22 06 26 17 23
  22914889.509    -3458167.491 6
       910.375
  19718766.298    -6831456.571 7  -5237522.63546  19718764.0134
      -586.250
  21413391.368   -11674625.204 6  -8941219.99146  21413389.9974
      1104.703
  20258153.665   -11390911.172 7  -8766366.64247  20258151.7314
       929.406
  20975422.360   -14499532.808 7 -11111064.71846  20975420.8724
      2327.266
 98  6 15 21 28 29.9970000  0  5 22 06 26 17 23
  22909743.962    -3485211.559 6     -2087.52555  22909742.4624
       892.453
  19722163.071    -6813608.751 7  -5223615.25346  19722160.2594
      -603.703
  21407136.782   -11707492.650 6  -8966830.96346  21407134.5674
      1086.375
  20252866.774   -11418695.191 7  -8788016.53047  20252865.0404
       922.766
  20962173.290   -14569158.754 7 -11165318.67146  20962171.6144
      2314.438
 98  6 15 21 28 59.9970000  0  5 22 06 26 17 23
  22904703.774    -3511698.820 6    -22726.94545  22904703.6104
       873.609
  19725662.204    -6795218.151 7  -5209284.92446  19725659.7084
      -622.266
  21400991.556   -11739787.076 6  -8991995.42746  21400989.3064
      1066.672
  20247620.235   -11446264.904 7  -8809499.41847  20247618.5604
       915.391
  20948999.915   -14638384.929 7 -11219261.11246  20948998.1464
      2300.859
 98  6 15 21 29 29.9970000  0  5 22 06 26 17 23
  22899765.314    -3537648.242 6    -42947.27845  22899763.6734
       855.844
  19729264.306    -6776291.132 7  -5194536.61546  19729261.7514
      -640.078
  21394954.759   -11771507.009 6  -9016712.24046  21394953.4934
      1047.297
  20242411.384   -11473638.142 7  -8830829.21047  20242409.7434
       909.016
  20935898.181   -14707233.321 6 -11272909.17646  20935896.1534
      2288.438
 98  6 15 21 29 59.9970000  0  5 22 06 26 17 23
  22894931.235    -3563052.204 6    -62742.59345  22894930.3214
       837.797
  19732970.321    -6756815.700 7  -5179360.96346  19732967.9664
      -658.234
  21389034.626   -11802619.605 6  -9040955.79346  21389032.9274
      1026.906
  20237241.337   -11500804.461 7  -8851997.77247  20237240.1184
       902.000
  20922870.642   -14775694.362 7 -11326255.40546  20922868.9314
      2275.516
 98  6 15 21 30 29.9970000  0  5 22 06 26 17 23
  22890196.524    -3587931.490 5    -82129.03245  22890195.2004
       820.141
  19736777.790    -6736808.107 7  -5163770.64346  19736775.5174
      -676.266
  21383229.423   -11833128.932 6  -9064729.26746  21383227.7244
      1006.344
  20232112.149   -11527759.680 7  -8873001.82947  20232111.0014
       894.375
  20909917.079   -14843764.773 7 -11379297.24646  20909915.2394
      2261.781
 98  6 15 21 30 59.9970000  0  5 22 06 26 17 23
  22885561.564    -3612291.095 5   -101110.53445  22885559.7244
       803.219
  19740684.157    -6716279.208 7  -5147774.11046  19740681.6614
      -692.859
  21377538.907   -11863029.356 6  -9088028.29646  21377537.6064
       986.375
  20227023.298   -11554501.258 7  -8893839.42147  20227021.7514
       887.672
  20897040.017   -14911433.347 7 -11432025.99146  20897038.3764
      2248.734
 98  6 15 21 31 29.9970000  0  5 22 06 26 17 23
  22881025.556    -3636126.615 5   -119683.66545  22881024.4544
       785.625
  19744687.118    -6695244.081 7  -5131383.11546  19744684.5994
      -709.578
  21371965.649   -11892315.372 6  -9110848.55446  21371964.6424
       966.000
  20221976.790   -11581022.719 7  -8914505.49447  20221975.1734
       880.281
  20884243.056   -14978682.825 7 -11484428.14146  20884241.4854
      2234.297
 98  6 15 21 31 59.9970000  0  5 22 06 26 17 23
  22876588.735    -3659441.616 5   -137851.18545  22876587.7864
       768.672
  19748784.806    -6673709.671 7  -5114603.07646  19748782.5094
      -726.109
  21366506.892   -11921002.780 6  -9133202.36846  21366505.7314
       946.516
  20216971.142   -11607326.466 7  -8935001.92647  20216969.4894
       873.172
  20871527.587   -15045502.393 7 -11536495.30446  20871525.8764
      2220.156
 98  6 15 21 32 29.9970000  0  6 22 06 21 26 17 23
  22872252.587    -3682229.483 5   -155607.95745  22872252.1424
       750.703
  19752980.306    -6651661.871 7  -5097422.98446  19752977.8454
      -743.469
  23687152.071      -75984.26015
      3301.047
  21361160.954   -11949096.399 6  -9155093.49546  21361159.1964
       926.703
  20212010.189   -11633397.313 7  -8955316.87547  20212008.7594
       865.328
  20858897.384   -15111875.186 7 -11588214.34546  20858895.0754
      2205.031
 98  6 15 21 32 59.9970000  0  6 22 06 21 26 17 23
  22868017.704    -3704480.108 5   -172946.10045  22868016.9074
       732.172
  19757271.907    -6629109.570 7  -5079849.77346  19757269.5644
      -760.391
  23668325.212     -174920.780 5
      3294.141
  21355924.907   -11976611.832 6  -9176534.09246  21355922.5644
       907.234
  20207088.985   -11659258.739 7  -8975468.63747  20207087.6614
       858.266
  20846348.579   -15177816.769 7 -11639597.37246  20846347.1384
      2190.766
 98  6 15 21 33 29.9970000  0  6 22 06 21 26 17 23
  22863892.024    -3726164.826 5   -189843.25044  22863889.9624
       713.625
  19761661.876    -6606040.278 7  -5061873.70746  19761659.5564
      -777.484
  23649538.446     -273643.701 5    -61526.51153  23649539.4544
      3287.469
  21350801.579   -12003536.830 6  -9197514.59546  21350799.4704
       887.969
  20202209.993   -11684897.744 7  -8995447.08847  20202208.4114
       851.172
  20833882.079   -15243330.170 7 -11690646.72946  20833880.5094
      2177.047
 98  6 15 21 33 59.9970000  0  6 22 06 21 26 17 23
  22859872.564    -3747288.166 5   -206303.01144  22859871.2744
       695.281
  19766151.501    -6582446.208 7  -5043488.73146  19766149.4274
      -794.766
  23630793.087     -372153.809 5   -138287.54643  23630793.3454
      3280.375
  21345788.798   -12029878.305 6  -9218040.41546  21345786.7354
       868.563
  20197374.056   -11710310.931 7  -9015249.57247  20197372.3104
       843.625
  20821493.415   -15308433.367 7 -11741376.46346  20821491.2004
      2163.641
 98  6 15 21 34 29.9970000  0  6 22 06 21 26 17 23
  22855956.548    -3767865.656 4   -222337.37744  22855956.5714
       676.641
  19770738.462    -6558343.850 7  -5024707.68846  19770735.9194
      -812.047
  23612084.571     -470461.927 5   -214891.18044  23612085.6734
      3273.859
  21340886.696   -12055638.799 6  -9238113.53545  21340884.8804
       848.766
  20192579.735   -11735506.014 7  -9034882.11247  20192577.9784
       836.281
  20809182.189   -15373129.857 7 -11791789.28546  20809180.5014
      2149.719
 98  6 15 21 34 59.9970000  0  6 22 06 21 26 17 23
  22852146.259    -3787884.234 4   -237936.26544  22852145.0054
       657.922
  19775424.720    -6533715.957 7  -5005517.13546  19775422.3644
      -829.906
  23593412.048     -568585.825 5   -291351.32743  23593413.2084
      3267.547
  21336098.759   -12080797.991 6
       828.406
  20187825.821   -11760486.773 7  -9054347.65247  20187824.2744
       828.891
  20796948.485   -15437416.924 7 -11841883.07146  20796946.9974
      2136.063
 98  6 15 21 35 29.9970000  0  6 22 06 21 26 17 23
  22848441.017    -3807359.369 5   -253111.67944  22848440.9464
       640.797
  19780212.165    -6508558.223 7  -4985913.72746  19780209.8214
      -847.109
  23574774.532     -666528.649 5   -367670.33844  23574774.7314
      3262.344
  21331426.040   -12105356.945 6
       809.078
  20183112.282   -11785254.842 7  -9073647.44247  20183110.8534
       822.719
  20784791.368   -15501302.473 7 -11891663.97746  20784789.8214
      2123.078
 98  6 15 21 35 59.9970000  0  6 22 06 21 26 17 23
  22844832.212    -3826322.202 5   -267887.89444  22844831.3924
       623.547
  19785099.954    -6482872.679 7  -4965899.03346  19785097.6344
      -865.094
  23556167.595     -764311.377 5   -443864.57543  23556168.8604
      3256.672
  21326864.118   -12129327.696 6    -16160.43656  21326862.3254
       788.969
  20178433.821   -11809840.882 7  -9092805.39547  20178432.3454
       816.594
  20772711.243   -15564783.987 7 -11941130.06746  20772710.0484
      2109.188
 98  6 15 21 36 29.9970000  0  6 22 06 21 26 17 23
  22841323.657    -3844762.269 5   -282256.75544  22841324.6064
       606.203
  19790089.907    -6456647.173 7  -4945463.59146  19790087.4354
      -882.938
  23537590.985     -861926.840 5   -519928.46643  23537591.4194
      3251.438
  21322418.103   -12152692.750 6    -34366.97746  21322416.5914
       769.250
  20173789.134   -11834250.053 7  -9111825.53247  20173787.4814
       811.141
  20760709.454   -15627853.301 7 -11990274.96346  20760708.0134
      2096.125
 98  6 15 21 36 59.9970000  0  6 22 06 21 26 17 23
  22837913.626    -3862679.752 5   -296218.43344  22837913.2634
       588.953
  19795182.657    -6429887.721 7  -4924612.07846  19795180.3604
      -900.406
  23519047.751     -959374.866 5   -595861.92743  23519048.4784
      3245.469
  21318083.751   -12175470.472 6    -52115.84246  21318082.1694
       749.797
  20169175.860   -11858493.945 7  -9130716.87747  20169174.0564
       805.453
  20748780.704   -15690539.629 7 -12039121.42446  20748779.2284
      2083.375
 98  6 15 21 37 29.9970000  0  6 22 06 21 26 17 23
  22834600.587    -3880090.647 5   -309785.35844  22834600.2004
       571.875
  19800372.407    -6402616.097 7  -4903361.47746  19800370.0754
      -917.578
  23500537.954    -1056644.469 5   -671656.32144  23500539.5834
      3239.219
  21313859.907   -12197666.476 6    -69411.43146  21313857.8104
       729.969
  20164595.267   -11882564.321 7  -9149473.02047  20164593.4154
       799.391
  20736925.884   -15752837.833 7 -12087665.45446  20736924.2674
      2069.844
 98  6 15 21 37 59.9970000  0  6 22 06 21 26 17 23
  22831384.735    -3896991.149 5   -322954.59744  22831385.8024
       554.625
  19805657.962    -6374840.096 7  -4881717.85246  19805655.7124
      -934.063
  23482063.556    -1153723.345 5   -747302.10543  23482064.5994
      3232.594
  21309748.501   -12219271.916 6    -86246.82246  21309747.0834
       710.344
  20160049.235   -11906452.734 7  -9168087.36847  20160047.7244
       792.969
  20725147.376   -15814735.224 7 -12135897.14746  20725145.8414
      2056.750
 98  6 15 21 38 29.9970000  0  6 22 06 21 26 17 23
  22828267.782    -3913371.603 5   -335718.58644  22828267.5364
       537.250
  19811034.439    -6346586.036 7  -4859701.71747  19811032.0484
      -949.828
  23463628.774    -1250603.677 5   -822793.21244  23463628.9974
      3226.000
  21305747.595   -12240296.405 6   -102629.54346  21305745.8494
       691.344
  20155540.462   -11930145.702 7  -9186549.42747  20155539.1264
       786.375
  20713442.353   -15876245.809 7 -12183827.43746  20713440.5244
      2043.766
 98  6 15 21 38 59.9970000  0  6 22 06 21 26 17 23
  22825250.985    -3929223.152 5   -348070.45244  22825249.9074
       519.422
  19816502.751    -6317850.661 7  -4837310.54046  19816500.5014
      -965.875
  23445230.423    -1347283.375 5   -898127.95043  23445231.3374
      3219.250
  21301856.267   -12260744.111 6   -118562.82946  21301854.8604
       671.609
  20151071.407   -11953630.779 7  -9204849.48847  20151070.2354
       779.219
  20701813.673   -15937352.542 7 -12231443.05846  20701811.9744
      2029.844
 98  6 15 21 39 29.9970000  0  6 22 06 21 26 17 23
  22822338.415    -3944530.914 5   -359998.60644  22822337.8174
       501.141
  19822064.337    -6288624.604 7  -4814537.00846  19822062.0994
      -982.406
  23426871.548    -1443760.415 5   -973304.81643  23426870.5644
      3212.688
  21298080.485   -12280588.753 6   -134026.19146  21298078.8924
       651.672
  20146644.501   -11976895.225 7  -9222977.62747  20146643.1894
       772.047
  20690266.517   -15998034.121 7 -12278727.37046  20690264.9464
      2015.781
 98  6 15 21 39 59.9970000  0  6 22 06 21 26 17 23
  22819529.126    -3959290.954 5   -371499.97444  22819528.6344
       482.875
  19827720.017    -6258901.857 7  -4791376.43946  19827717.7204
      -999.078
  23408549.243    -1540043.846 5  -1048330.76543  23408548.4584
      3206.359
  21294417.024   -12299841.730 6   -149028.49546  21294415.3844
       631.859
  20142257.634   -11999949.299 7  -9240941.83847  20142256.1694
       764.875
  20678797.712   -16058301.792 7 -12325689.16946  20678796.2124
      2002.063
 98  6 15 21 40 29.9970000  0  6 22 06 21 26 17 23
  22816825.790    -3973499.545 6   -382571.61344  22816824.3254
       464.484
  19833472.462    -6228674.120 7  -4767822.38046  19833470.0364
     -1016.219
  23390262.868    -1636140.598 5  -1123211.24444  23390263.5834
      3200.219
  21290867.532   -12318492.206 6   -163561.34846  21290865.1654
       611.609
  20137911.587   -12022786.697 7  -9258737.21547  20137910.0284
       757.719
  20667408.556   -16118153.007 7 -12372326.46146  20667406.9744
      1988.031
 98  6 15 21 40 59.9970000  0  6 22 06 21 26 17 23
  22814226.423    -3987159.626 6   -393215.86644  22814225.8254
       446.469
  19839322.532    -6197932.326 7  -4743867.74246  19839320.2714
     -1032.984
  23372010.837    -1732055.417 5  -1197949.98645  23372010.6964
      3194.094
  21287434.368   -12336532.559 6   -177618.76446  21287432.8684
       591.094
  20133606.032   -12045413.358 7  -9276368.37547  20133604.4034
       750.969
  20656098.962   -16177586.147 7 -12418637.98246  20656096.9814
      1974.328
 98  6 15 21 41 29.9970000  0  6 22 06 21 26 17 23
  22811728.634    -4000286.490 6   -403444.60645  22811728.2824
       428.609
  19845269.017    -6166682.617 7  -4719517.35347  19845266.9194
     -1050.422
  23353796.829    -1827773.343 5  -1272535.30344  23353796.8294
      3186.984
  21284119.337   -12353952.891 6   -191193.05246  21284117.4274
       570.281
  20129339.649   -12067833.703 7  -9293838.77447  20129338.0914
       743.578
  20644868.501   -16236602.369 7 -12464624.61646  20644866.9664
      1959.969
 98  6 15 21 41 59.9970000  0  6 22 06 21 26 17 23
  22809329.634    -4012892.353 6   -413267.39245  22809328.0754
       411.438
  19851312.493    -6134926.598 7  -4694772.42347  19851309.9854
     -1066.938
  23335620.806    -1923286.289 5  -1346960.89245  23335620.9814
      3180.313
  21280921.040   -12370760.357 6   -204289.78246  21280919.0834
       549.844
  20125113.368   -12090042.834 7  -9311144.59547  20125111.9274
       736.766
  20633717.931   -16295199.314 7 -12510284.55146  20633716.1264
      1946.203
 98  6 15 21 42 29.9970000  0  6 22 06 21 26 17 23
  22807032.337    -4024966.057 6   -422675.50245  22807031.1774
       393.313
  19857451.993    -6102661.219 7  -4669630.58746  19857449.6964
     -1084.297
  23317485.634    -2018584.205 5  -1421218.92844  23317486.5134
      3172.609
  21277840.790   -12386944.785 6   -216901.03346  21277839.0094
       529.078
  20120927.853   -12112037.313 7  -9328283.15147  20120926.4704
       729.484
  20622648.282   -16353369.940 7 -12555612.28546  20622646.3844
      1931.766
 98  6 15 21 42 59.9970000  0  6 22 06 21 26 17 23
  22804832.618    -4036524.944 6   -431682.43245  22804832.2674
       377.125
  19863686.540    -6069898.457 7  -4644101.18346  19863684.3964
     -1100.047
  23299390.673    -2113674.726 5  -1495315.32744  23299390.7784
      3166.563
  21274874.931   -12402535.002 6   -229049.25646  21274873.0674
       510.125
  20116778.681   -12133841.497 7  -9345273.42447  20116777.3104
       723.969
  20611655.712   -16411137.170 7 -12600625.68046  20611654.1894
      1919.266
 98  6 15 21 43 29.9970000  0  6 22 06 21 26 17 23
  22802728.939    -4047579.022 6   -440296.01845  22802727.8494
       359.953
  19870015.439    -6036640.138 7  -4618185.62646  19870013.2944
     -1116.922
  23281333.032    -2208568.240 5  -1569258.26243  23281333.9234
      3159.938
  21272018.993   -12417540.343 6   -240741.73246  21272016.6964
       490.547
  20112665.478   -12155456.896 7  -9362116.59347  20112663.9894
       717.234
  20600737.048   -16468513.614 7 -12645334.57746  20600735.4194
      1906.109
 98  6 15 21 43 59.9970000  0  6 22 06 21 26 17 23
  22800725.946    -4058103.549 5   -448496.96545  22800724.6224
       341.719
  19876441.649    -6002870.081 7  -4591871.30846  19876439.3994
     -1134.422
  23263314.306    -2303256.681 5  -1643041.37444  23263314.9504
      3152.641
  21269277.564   -12431948.873 6   -251969.16846  21269275.5134
       469.953
  20108591.368   -12176866.102 7  -9378799.09547  20108589.8334
       710.078
  20589894.626   -16525492.705 7 -12689733.84346  20589893.1384
      1892.438
 98  6 15 21 44 29.9970000  0  6 22 06 21 26 17 23
  22798826.931    -4068084.363 5   -456274.23445  22798825.5364
       323.844
  19882967.259    -5968576.068 7  -4565148.71946  19882964.8214
     -1151.625
  23245337.087    -2397727.752 5  -1716655.09544  23245336.6304
      3145.578
  21266651.774   -12445746.081 6   -262720.22146  21266649.9584
       450.000
  20104557.501   -12198064.996 7  -9395317.71847  20104555.8374
       703.406
  20579129.837   -16582061.822 7 -12733813.64746  20579128.0324
      1878.984
 98  6 15 21 44 59.9970000  0  6 22 06 21 26 17 23
  22797028.829    -4077533.964 5   -463637.55345  22797027.9034
       306.813
  19889591.595    -5933765.384 7  -4538023.53846  19889589.1814
     -1168.453
  23227399.649    -2491990.288 5  -1790106.34344  23227398.7944
      3139.094
  21264141.603   -12458937.687 6   -272999.41446  21264139.6344
       429.984
  20100562.157   -12219060.653 7  -9411677.97647  20100560.3414
       696.875
  20568442.540   -16638221.956 7 -12777574.77146  20568440.6064
      1865.469
 98  6 15 21 45 29.9970000  0  6 22 06 21 26 17 23
  22795328.235    -4086471.448 5   -470601.82045  22795327.7784
       289.109
  19896312.360    -5898449.123 7  -4510504.40446  19896310.0644
     -1185.844
  23209500.517    -2586050.870 5  -1863400.22145  23209500.3174
      3131.641
  21261745.946   -12471525.122 6   -282807.81046  21261745.0914
       409.297
  20096603.946   -12239861.532 7  -9427886.45347  20096602.2594
       690.016
  20557834.540   -16693966.795 7 -12821012.28246  20557832.9234
      1850.844
 98  6 15 21 45 59.9970000  0  6 22 06 21 26 17 23
  22793727.392    -4094882.736 5   -477156.07145  22793726.3254
       272.234
  19903130.962    -5862615.871 7  -4482582.41246  19903128.6774
     -1202.609
  23191643.165    -2679886.233 5  -1936518.61944  23191644.7354
      3124.594
  21259467.079   -12483500.815 6   -292139.51646  21259465.6734
       389.656
  20092682.634   -12260466.036 7  -9443941.91747  20092681.1464
       684.172
  20547310.524   -16749271.618 7 -12864106.92646  20547309.1184
      1836.578
 98  6 15 21 46 29.9970000  0  6 22 06 21 26 17 23
  22792224.485    -4102780.609 5   -483310.26245  22792223.6184
       254.625
  19910047.485    -5826269.146 7  -4454260.31046  19910045.3884
     -1220.234
  23173828.892    -2773506.514 5  -2009469.41044  23173829.2784
      3117.125
  21257300.868   -12494886.221 6   -301011.26946  21257298.8764
       369.688
  20088796.853   -12280887.541 7  -9459854.78047  20088795.1184
       677.516
  20536869.540   -16804138.919 7 -12906860.63346  20536867.8994
      1821.641
 98  6 15 21 46 59.9970000  0  6 22 06 21 26 17 23
  22790819.009    -4110166.352 5   -489065.35545  22790818.6574
       237.969
  19917063.149    -5789401.865 7  -4425532.57447  19917060.9354
     -1237.266
  23156052.376    -2866917.872 5  -2082257.42944  23156052.0604
      3110.484
  21255247.157   -12505678.678 6   -309420.96946  21255245.5644
       350.109
  20084948.587   -12301110.137 7  -9475612.64847  20084946.9464
       670.797
  20526511.657   -16858571.460 7 -12949275.58346  20526509.5364
      1807.516
 98  6 15 21 47 29.9970000  0  6 22 06 21 26 17 23
  22789510.657    -4117039.217 5   -494420.84345  22789509.8604
       220.250
  19924176.470    -5752021.517 7  -4396405.04447  19924174.4664
     -1254.688
  23138316.579    -2960121.841 5  -2154883.83744  23138316.2634
      3103.250
  21253306.353   -12515876.899 6   -317367.62746  21253304.3844
       329.859
  20081139.571   -12321125.961 7  -9491209.39947  20081138.0714
       663.484
  20516233.524   -16912583.450 7 -12991362.82546  20516231.9314
      1793.438
 98  6 15 21 47 59.9970000  0  6 22 06 21 26 17 23
  22788304.282    -4123382.751 5   -499363.82945  22788303.1694
       202.906
  19931388.649    -5714121.583 7  -4366872.66547  19931386.9394
     -1271.750
  23120620.821    -3053111.551 5  -2227343.27244  23120620.8214
      3096.422
  21251482.282   -12525464.949 6   -324838.83846  21251479.9854
       309.406
  20077373.829   -12340915.094 7  -9506629.50447  20077372.5054
       655.953
  20506034.462   -16966179.157 7 -13033125.68446  20506032.7284
      1779.938
 98  6 15 21 48 29.9970000  0  6 22 06 21 26 17 23
  22787196.618    -4129202.116 5   -503898.41245  22787196.1614
       185.391
  19938696.743    -5675717.540 7  -4336947.45846  19938694.6464
     -1288.094
  23102963.806    -3145901.346 5  -2299646.97444  23102962.5524
      3089.953
  21249776.431   -12534427.640 6   -331822.76246  21249774.6144
       288.297
  20073652.626   -12360470.992 7  -9521867.87047  20073650.9504
       648.031
  20495911.728   -17019375.160 7 -13074577.09446  20495909.8994
      1766.859
 98  6 15 21 48 59.9970000  0  6 22 06 21 26 17 23
  22786185.767    -4134516.079 5   -508039.14845  22786185.3454
       168.406
  19946094.079    -5636844.630 7  -4306656.90746  19946092.0404
     -1303.781
  23085341.024    -3238509.599 5  -2371809.18245  23085340.7674
      3083.391
  21248188.798   -12542769.428 6   -338322.85446  21248187.2394
       267.422
  20069973.149   -12379806.076 7  -9536934.17747  20069971.7434
       640.734
  20485860.720   -17072192.775 7 -13115733.65646  20485858.7284
      1753.938
 98  6 15 21 49 29.9970000  0  6 22 06 21 26 17 23
  22785271.798    -4139318.269 5   -511781.12345  22785270.8844
       151.453
  19953581.454    -5597497.563 7  -4275996.88346  19953579.5564
     -1319.813
  23067756.759    -3330915.946 5  -2443814.08445  23067756.5244
      3076.563
  21246719.939   -12550489.596 6   -344338.59246  21246718.4034
       246.859
  20066333.267   -12398934.396 7  -9551839.35747  20066331.8604
       634.172
  20475883.321   -17124622.786 7 -13156588.19146  20475881.6574
      1740.922
 98  6 15 21 49 59.9970000  0  6 22 06 21 26 17 23
  22784456.298    -4143603.532 6   -515120.30345  22784455.0674
       134.328
  19961162.689    -5557658.588 7  -4244953.55646  19961160.6494
     -1335.938
  23050215.353    -3423101.361 5  -2515646.81345  23050214.8724
      3069.328
  21245369.071   -12557587.362 6   -349869.32046  21245368.1344
       226.563
  20062731.149   -12417862.863 7  -9566588.81747  20062729.7314
       627.969
  20465984.087   -17176644.985 7 -13197124.94746  20465982.3414
      1727.313
 98  6 15 21 50 29.9970000  0  6 22 06 21 26 17 23
  22783737.876    -4147378.813 6   -518062.09545  22783736.5994
       117.453
  19968834.946    -5517340.763 7  -4213537.09146  19968832.7674
     -1351.844
  23032712.603    -3515074.472 5  -2587314.13844  23032712.7434
      3062.250
  21244131.040   -12564092.118 6   -354937.98546  21244129.5284
       207.281
  20059162.790   -12436614.686 7  -9581200.62047  20059161.1144
       622.406
  20456161.665   -17228261.595 7 -13237345.66246  20456159.8494
      1713.766
 98  6 15 21 50 59.9970000  0  6 22 06 21 26 17 23
  22783116.673    -4150643.373 6   -520605.92445  22783116.7674
        99.891
  19976600.626    -5476530.889 7  -4181737.21647  19976598.6924
     -1369.172
  23015253.196    -3606822.729 5  -2658806.24245  23015253.4074
      3053.953
  21243004.134   -12570019.582 6   -359556.77546  21243002.1774
       187.516
  20055625.814   -12455202.197 7  -9595684.39147  20055624.3024
       616.531
  20446419.392   -17279456.954 7 -13277238.14146  20446417.7284
      1699.109
 98  6 15 21 51 29.9970000  0  6 22 06 21 26 17 23
  22782594.524    -4153389.184 6   -522745.52645  22782593.3414
        82.766
  19984465.306    -5435203.034 7  -4149533.72047  19984463.5014
     -1386.359
  22997839.556    -3698332.110 5  -2730112.20645  22997840.2944
      3046.359
  21241988.321   -12575354.207 6   -363713.63846  21241986.2824
       167.656
  20052121.415   -12473618.575 7  -9610034.81547  20052119.9394
       610.766
  20436758.790   -17330223.366 7 -13316796.35446  20436757.3604
      1684.797
 98  6 15 21 51 59.9970000  0  6 22 06 21 26 17 23
  22782170.939    -4155614.977 6   -524479.94445  22782169.7084
        65.625
  19992426.751    -5393363.701 7  -4116931.66946  19992425.0874
     -1403.094
  22980470.196    -3789609.190 5  -2801237.15245  22980471.4394
      3038.797
  21241089.142   -12580080.541 6   -367396.50446  21241087.2784
       147.344
  20048651.978   -12491850.224 7  -9624241.29347  20048650.3254
       604.516
  20427182.353   -17380549.425 7 -13356011.44046  20427180.7474
      1670.328
 98  6 15 21 52 29.9970000  0  6 22 06 21 26 17 23
  22781842.040    -4157341.433 6   -525825.25744  22781840.2824
        49.438
  20000484.540    -5351020.715 7  -4083937.15946  20000482.5484
     -1419.984
  22963142.454    -3880666.703 5  -2872190.99545  22963142.0444
      3031.531
  21240306.470   -12584194.327 6   -370602.04746  21240304.2314
       126.641
  20045218.642   -12509892.646 7  -9638300.31747  20045216.9194
       598.219
  20417684.915   -17430457.086 7 -13394900.50946  20417683.3454
      1656.672
 98  6 15 21 52 59.9970000  0  6 22 06 21 26 17 23
  22781604.454    -4158591.603 6   -526799.45044  22781603.0604
        33.953
  20008638.415    -5308172.095 7  -4050548.64546  20008636.3534
     -1436.578
  22945854.884    -3971514.924 5  -2942981.74645  22945855.0364
      3025.063
  21239642.548   -12587682.212 6   -373319.88846  21239640.1574
       105.922
  20041820.798   -12527749.518 7  -9652214.75947  20041819.3104
       592.156
  20408264.462   -17479961.637 7 -13433475.46146  20408262.7744
      1643.891
 98  6 15 21 53 29.9970000  0  6 22 06 21 26 17 23
  22781456.970    -4159363.617 5   -527401.05144  22781455.9274
        17.641
  20016889.392    -5264814.513 7  -4016763.54246  20016887.3414
     -1453.719
  22928607.032    -4062154.276 5  -3013609.75245  22928607.1734
      3017.656
  21239099.298   -12590535.061 6   -375542.88346  21239097.4234
        84.563
  20038460.540   -12545406.760 7  -9665973.65447  20038459.1104
       585.094
  20398918.571   -17529074.912 7 -13471745.52346  20398917.1184
      1630.453
 98  6 15 21 53 59.9970000  0  6 22 06 21 26 17 23
  22781403.368    -4159645.897 5   -527621.01344  22781402.3374
         1.359
  20025235.360    -5220955.123 7  -3982587.42746  20025233.3684
     -1470.141
  22911400.087    -4152574.427 5  -3084066.94445  22911400.2514
      3010.531
  21238676.267   -12592761.609 6   -377277.84246  21238674.6854
        64.078
  20035139.454   -12562858.477 7  -9679572.39447  20035137.9784
       578.516
  20389646.595   -17577799.928 7 -13509713.05146  20389645.0954
      1618.266
 98  6 15 21 54 29.9970000  0  6 22 06 21 26 17 23
  22781443.743    -4159435.023 5   -527456.73744  22781442.3724
       -15.625
  20033675.860    -5176601.362 7  -3948026.08147  20033673.6814
     -1486.719
  22894234.189    -4242781.392 5  -3154357.99845  22894233.0644
      3003.125
  21238368.181   -12594377.901 6   -378537.30146  21238366.3174
        43.563
  20031856.446   -12580111.532 7  -9693016.33347  20031854.9584
       571.609
  20380443.259   -17626164.049 7 -13547399.36046  20380441.5954
      1605.672
 98  6 15 21 54 59.9970000  0  6 22 06 21 26 17 23
  22781582.962    -4158699.828 5   -526883.85644  22781582.0134
       -33.719
  20042208.009    -5131763.790 7  -3913087.73847  20042205.7474
     -1502.516
  22877110.868    -4332763.773 5  -3224474.08345  22877109.8964
      2995.422
  21238176.931   -12595384.310 6   -379321.50346  21238175.3844
        23.344
  20028612.228   -12597159.288 7  -9706300.30247  20028610.7044
       564.656
  20371313.626   -17674139.608 7 -13584782.90146  20371311.7864
      1592.594
 98  6 15 21 55 29.9970000  0  6 22 06 21 26 17 23
  22781828.845    -4157409.710 5   -525878.57444  22781827.3454
       -52.109
  20050830.485    -5086451.727 7  -3877779.66346  20050828.4584
     -1518.078
  22860034.556    -4422500.560 5  -3294398.77245  22860033.6654
      2987.266
  21238103.720   -12595769.169 6   -379621.38346  21238102.3724
         2.641
  20025409.548   -12613989.705 7  -9719414.91547  20025408.1894
       557.500
  20362261.173   -17721710.896 7 -13621851.42146  20362259.4274
      1578.938
 98  6 15 21 55 59.9970000  0  6 22 06 21 26 17 23
  22782178.899    -4155570.528 5   -524445.44145  22782178.5484
       -70.031
  20059541.626    -5040675.144 7  -3842109.62446  20059539.6574
     -1533.313
  22843002.251    -4512005.593 6  -3364142.88945  22843002.0524
      2980.219
  21238146.540   -12595542.376 6   -379444.66946  21238144.9354
       -17.438
  20022247.728   -12630604.194 7  -9732361.27447  20022246.5674
       550.563
  20353287.103   -17768870.119 7 -13658598.83446  20353285.3454
      1565.375
 98  6 15 21 56 29.9970000  0  6 22 06 21 26 17 23
  22782628.720    -4153205.597 5   -522602.63445  22782628.0404
       -87.891
  20068339.790    -4994441.883 7  -3806083.72946  20068337.5754
     -1549.094
  22826010.259    -4601303.744 6  -3433725.79245  22826009.7434
      2972.766
  21238304.228   -12594714.254 6   -378799.37946  21238302.8334
       -38.000
  20019125.415   -12647013.290 7  -9745147.58047  20019124.2784
       543.172
  20344391.212   -17815617.070 7 -13695025.01246  20344389.1264
      1550.656
 98  6 15 21 56 59.9970000  0  6 22 06 21 26 17 23
  22783179.118    -4150313.809 5   -520349.30145  22783179.1534
      -105.156
  20077227.931    -4947735.538 7  -3769689.19646  20077225.5524
     -1565.141
  22809057.907    -4690383.311 5  -3503138.37745  22809057.4034
      2965.563
  21238578.431   -12593273.205 6   -377676.47346  21238576.9664
       -58.328
  20016043.821   -12663207.605 7  -9757766.52247  20016042.6854
       536.063
  20335580.181   -17861918.709 7 -13731104.19946  20335578.2124
      1536.031
 98  6 15 21 57 29.9970000  0  6 22 06 21 26 17 23
  22783828.149    -4146906.508 5   -517694.27045  22783827.9034
      -121.547
  20086211.696    -4900523.730 7  -3732900.81846  20086209.5054
     -1582.125
  22792149.157    -4779238.610 5  -3572376.20645  22792149.0404
      2958.469
  21238969.790   -12591216.304 6   -376073.70346  21238968.6654
       -78.281
  20013005.157   -12679174.230 7  -9770208.04847  20013003.8564
       528.703
  20326853.978   -17907777.769 7 -13766838.51446  20326852.2904
      1521.516
 98  6 15 21 57 59.9970000  0  6 22 06 21 26 17 23
  22784570.259    -4143007.555 5   -514656.13545  22784568.6774
      -138.250
  20095294.610    -4852792.451 7  -3695707.65046  20095292.8294
     -1599.750
  22775282.134    -4867878.304 5  -3641446.00445  22775281.1494
      2950.797
  21239473.524   -12588567.754 6   -374009.90746  21239472.6464
       -98.375
  20010009.103   -12694919.608 7  -9782477.17447  20010007.6144
       521.172
  20318210.587   -17953198.054 7 -13802230.92846  20318208.9114
      1506.641
 98  6 15 21 58 29.9970000  0  6 22 06 21 26 17 23
  22785406.587    -4138611.035 5   -511230.27945  22785406.1304
      -154.703
  20104477.353    -4804537.737 7  -3658106.60746  20104475.3964
     -1617.078
  22758460.642    -4956272.699 5  -3710324.66545  22758459.9854
      2942.313
  21240094.478   -12585306.054 6   -371468.32646  21240093.2824
      -118.938
  20007055.314   -12710442.386 7  -9794572.84647  20007053.7784
       513.797
  20309651.759   -17998175.586 7 -13837278.34146  20309650.0364
      1491.875
 98  6 15 21 58 59.9970000  0  6 22 06 21 26 17 23
  22786333.892    -4133739.145 6   -507434.01845  22786332.5214
      -170.578
  20113756.024    -4755777.925 7  -3620111.96346  20113754.1264
     -1634.078
  22741686.267    -5044423.190 5  -3779013.29345  22741685.8804
      2933.875
  21240830.228   -12581441.118 6   -368456.69946  21240828.6344
      -139.313
  20004140.978   -12725757.942 7  -9806507.05047  20004139.4664
       506.594
  20301174.423   -18042723.767 7 -13871991.19847  20301172.7124
      1477.734
 98  6 15 21 59 29.9970000  0  6 22 06 21 26 17 23
  22787351.696    -4128390.848 6   -503266.53245  22787350.9114
      -185.984
  20123131.399    -4706508.487 7  -3581720.22446  20123129.5484
     -1650.469
  22724961.595    -5132312.324 5  -3847498.27745  22724961.8764
      2925.531
  21241683.548   -12576955.390 6   -364961.33646  21241681.5674
      -159.828
  20001268.954   -12740848.769 7  -9818266.14247  20001267.6424
       499.578
  20292776.579   -18086854.703 7 -13906378.91847  20292775.1494
      1464.250
 98  6 15 21 59 59.9970000  0  6 22 06 21 26 17 23
  22788457.329    -4122579.725 6   -498738.39845  22788456.1924
      -201.781
  20132598.415    -4656760.267 7  -3542955.40446  20132596.4354
     -1666.375
  22708281.915    -5219960.693 5  -3915795.62145  22708282.1494
      2917.359
  21242655.103   -12571851.141 6   -360984.01246  21242653.0994
      -181.047
  19998436.704   -12755733.002 7  -9829864.24647  19998435.6384
       492.375
  20284455.337   -18130583.114 7 -13940452.98847  20284453.6614
      1450.594
 98  6 15 22  0 29.9970000  0  6 22 06 21 26 17 23
  22789650.509    -4116308.292 6   -493851.58545  22789649.2204
      -216.984
  20142152.876    -4606550.998 7  -3503831.33246  20142150.8254
     -1681.672
  22691647.774    -5307376.963 5  -3983912.11345  22691648.5604
      2909.891
  21243746.462   -12566115.576 6   -356514.75046  21243744.6104
      -201.906
  19995642.415   -12770415.414 7  -9841305.08547  19995641.1734
       485.781
  20276209.634   -18173915.108 7 -13974218.15946  20276207.6654
      1437.500
 98  6 15 22  0 59.9970000  0  6 22 06 21 26 17 23
  22790933.735    -4109568.418 5   -488599.75145  22790933.5364
      -232.234
  20151797.087    -4555872.154 7  -3464341.35746  20151795.0134
     -1696.734
  22675055.399    -5394570.880 5  -4051855.35345  22675055.2714
      2903.219
  21244956.821   -12559754.275 6   -351557.88946  21244955.3454
      -222.000
  19992887.689   -12784893.140 7  -9852586.43047  19992886.6104
       479.578
  20268038.892   -18216851.948 7 -14007675.42746  20268037.1464
      1425.219
 98  6 15 22  1 29.9970000  0  6 22 06 21 26 17 23
  22792307.282    -4102345.479 5   -482971.50044  22792306.7434
      -249.313
  20161529.985    -4504724.904 7  -3424486.39146  20161527.9704
     -1712.984
  22658502.470    -5481552.362 5  -4119633.04945  22658501.7554
      2895.703
  21246286.009   -12552769.811 6   -346115.47846  21246284.8254
      -243.578
  19990170.235   -12799174.058 7  -9863714.41947  19990169.0754
       472.703
  20259941.353   -18259404.641 7 -14040833.35046  20259939.6534
      1411.594
 98  6 15 22  1 59.9970000  0  6 22 06 21 26 17 23
  22793779.915    -4094607.380 5   -476941.83744  22793779.0604
      -265.859
  20171354.017    -4453098.641 7  -3384258.18046  20171352.3064
     -1728.125
  22641992.431    -5568316.120 5  -4187241.10145  22641991.7634
      2888.938
  21247737.009   -12545146.047 6   -340174.89746  21247735.8964
      -264.047
  19987490.142   -12813258.114 7  -9874689.01547  19987488.8294
       466.906
  20251921.649   -18301548.276 7 -14073672.52746  20251920.0324
      1398.531
 98  6 15 22  2 29.9970000  0  6 22 06 21 26 17 23
  22795348.110    -4086364.756 5
      -283.328
  20181266.939    -4401005.461 7  -3343666.12946  20181265.2864
     -1744.500
  22625523.603    -5654856.139 5  -4254674.80945  22625522.7004
      2880.797
  21249304.251   -12536907.865 6   -333755.54746  21249303.1144
      -284.625
  19984844.501   -12827160.904 7  -9885522.35847  19984843.2714
       460.250
  20243978.962   -18343288.239 7 -14106197.16146  20243977.1574
      1384.531
 98  6 15 22  2 59.9970000  0  6 22 06 21 26 17 23
  22797013.837    -4077612.521 5       232.86953  22797007.1104
      -300.031
  20191271.501    -4348431.356 7  -3302699.31546  20191270.0484
     -1760.328
  22609099.774    -5741165.922 5  -4321929.09845  22609100.3024
      2873.234
  21250985.696   -12528073.012 6   -326871.24246  21250984.2674
      -304.375
  19982235.939   -12840867.837 7  -9896203.08547  19982234.7434
       453.547
  20236113.126   -18384622.527 7 -14138405.68847  20236111.6264
      1371.094
 98  6 15 22  3 29.9970000  0  6 22 06 21 26 17 23
  22798772.196    -4068371.336 5      7433.74643  22798770.6034
      -316.297
  20201365.282    -4295389.639 7  -3261368.13846  20201363.6894
     -1776.125
  22592717.884    -5827255.074 5  -4389011.48445  22592717.5914
      2865.734
  21252779.243   -12518648.002 6   -319527.08546  21252777.5674
      -324.125
  19979665.212   -12854377.258 7  -9906729.91047  19979663.9704
       446.688
  20228323.993   -18425553.693 7 -14170300.08647  20228322.4234
      1357.266
 98  6 15 22  3 59.9970000  0  6 22 06 21 26 17 23
  22800619.689    -4058661.073 5     15000.18943  22800618.1654
      -331.141
  20211547.548    -4241878.842 7  -3219671.45146  20211545.6854
     -1791.563
  22576378.501    -5913118.949 6  -4455918.31545  22576378.2084
      2858.266
  21254681.681   -12508650.218 6   -311736.60146  21254679.8534
      -342.453
  19977133.407   -12867681.551 7  -9917096.89047  19977132.2594
       440.047
  20220613.540   -18466073.583 7 -14201874.01047  20220611.6894
      1343.844
 98  6 15 22  4 29.9970000  0  6 22 06 21 26 17 23
  22802555.142    -4048490.889 5     22924.98243  22802555.2474
      -346.922
  20221823.876    -4187878.717 7  -3177593.46546  20221822.1424
     -1808.422
  22560085.524    -5998740.045 6  -4522635.99245  22560085.2784
      2849.984
  21256692.407   -12498086.140 7   -303504.84846  21256690.5564
      -361.859
  19974643.126   -12880768.810 7  -9927294.75347  19974641.8024
       432.422
  20212981.899   -18506177.303 7 -14233123.64347  20212980.0604
      1329.906
 98  6 15 22  4 59.9970000  0  6 22 06 21 26 17 23
  22804580.751    -4037847.141 5     31218.78144  22804580.1304
      -362.734
  20232194.407    -4133380.784 7  -3135127.57646  20232192.5444
     -1824.719
  22543838.056    -6084119.587 6  -4589165.43945  22543836.8844
      2841.859
  21258816.087   -12486926.338 7   -294808.89946  21258813.9194
      -382.344
  19972195.814   -12893629.991 7  -9937316.45447  19972194.3724
       424.969
  20205429.282   -18545868.369 7 -14264051.73647  20205427.4664
      1315.953
 98  6 15 22  5 29.9970000  0  6 22 06 21 26 17 23
  22806697.009    -4026727.155 5     39883.68845  22806695.9314
      -378.516
  20242657.087    -4078397.972 7  -3092283.86046  20242655.3064
     -1840.641
  22527637.837    -6169250.244 5  -4655500.95645  22527637.8604
      2833.578
  21261057.681   -12475146.868 6   -285630.09446  21261055.4784
      -402.813
  19969789.665   -12906275.709 7  -9947170.26847  19969788.0714
       418.188
  20197957.267   -18585132.403 7 -14294647.07047  20197955.4624
      1301.813
 98  6 15 22  5 59.9970000  0  6 22 06 21 26 17 23
  22808904.962    -4015127.790 5     48922.12845  22808904.3884
      -394.188
  20253209.962    -4022941.635 7  -3049071.14946  20253208.1224
     -1855.734
  22511486.743    -6254125.952 5  -4721637.81045  22511486.2634
      2825.500
  21263416.892   -12462747.771 6   -275968.46046  21263414.5014
      -423.328
  19967421.384   -12918719.867 7  -9956867.02247  19967419.4854
       412.063
  20190565.243   -18623977.259 7 -14324915.77747  20190563.3924
      1288.469
 98  6 15 22  6 29.9970000  0  6 22 06 21 26 17 23
  22811204.649    -4003042.044 5     58339.56545  22811204.8844
      -410.922
  20263850.579    -3967028.199 7  -3005502.27146  20263849.0794
     -1871.094
  22495381.532    -6338757.425 5  -4787584.32645  22495380.8994
      2817.188
  21265897.212   -12449712.349 6   -265810.98346  21265895.7354
      -445.266
  19965090.524   -12930968.346 7  -9966411.29347  19965088.9664
       405.031
  20183251.095   -18662414.291 7 -14354866.70347  20183249.1384
      1274.563
 98  6 15 22  6 59.9970000  0  6 22 06 21 26 17 23
  22813597.501    -3990466.980 5     68138.29045  22813597.1494
      -426.953
  20274575.110    -3910668.600 7  -2961585.74946  20274573.4354
     -1885.969
  22479322.704    -6423147.563 6  -4853342.80545  22479322.7284
      2809.016
  21268502.728   -12436019.050 6   -255140.89446  21268501.1344
      -467.266
  19962798.712   -12943012.989 7  -9975796.73147  19962797.1534
       398.203
  20176015.524   -18700437.443 7 -14384495.12547  20176013.6854
      1260.563
 98  6 15 22  7 29.9970000  0  6 22 06 21 26 17 23
  22816078.071    -3977432.924 5     78294.67945  22816077.9664
      -442.484
  20285382.368    -3853876.433 7  -2917332.14446  20285380.5054
     -1900.672
  22463307.915    -6507308.143 6  -4918922.41145  22463306.5214
      2801.297
  21271228.814   -12421693.364 6   -243978.03146  21271227.2674
      -488.266
  19960542.782   -12954866.421 7  -9985033.18347  19960541.5174
       391.578
  20168855.915   -18738061.163 7 -14413812.29046  20168854.0404
      1247.422
 98  6 15 22  7 59.9970000  0  6 22 06 21 26 17 23
  22818650.001    -3963917.256 5     88826.32345  22818649.3564
      -458.438
  20296276.821    -3796626.021 7  -2872721.46046  20296274.8884
     -1916.141
  22447338.939    -6591227.530 6  -4984314.09745  22447338.0604
      2793.313
  21274076.681   -12406726.899 6   -232315.84746  21274075.2864
      -509.453
  19958327.290   -12966509.642 7  -9994105.82347  19958325.9544
       384.641
  20161771.931   -18775288.621 7 -14442820.68247  20161769.8334
      1234.359
 98  6 15 22  8 29.9970000  0  6 22 06 21 26 17 23
  22821311.095    -3949931.247 5     99724.50645  22821310.1814
      -473.953
  20307261.001    -3738903.872 7  -2827743.19746  20307259.1734
     -1932.016
  22431413.610    -6674910.582 6  -5049521.60445  22431413.7744
      2785.359
  21277043.595   -12391139.238 6   -220169.62246  21277042.0954
      -529.625
  19956152.243   -12977939.373 7 -10003012.10947  19956151.0014
       377.344
  20154761.876   -18812125.963 7 -14471525.09847  20154759.6494
      1221.422
 98  6 15 22  8 59.9970000  0  6 22 06 21 26 17 23
  22824060.915    -3935477.561 5    110987.09845  22824061.6064
      -489.625
  20318336.642    -3680701.432 7  -2782390.68746  20318334.8964
     -1948.047
  22415536.024    -6758345.132 5  -5114535.49345  22415536.0954
      2776.938
  21280123.110   -12374955.026 6   -207558.54246  21280121.7984
      -549.063
  19954019.462   -12989146.993 7 -10011745.32047  19954018.0444
       369.828
  20147826.689   -18848569.761 7 -14499922.84847  20147825.1184
      1208.203
 98  6 15 22  9 29.9970000  0  6 22 06 21 26 17 23
  22826903.829    -3920542.554 5    122624.76044  22826902.3644
      -505.750
  20329502.946    -3622023.068 7  -2736667.32546  20329501.2124
     -1963.625
  22399708.712    -6841521.939 5  -5179348.52545  22399708.6774
      2768.484
  21283311.439   -12358201.459 7   -194503.81446  21283309.6344
      -567.672
  19951931.696   -13000119.575 7 -10020295.38847  19951930.4074
       362.047
  20140968.634   -18884610.365 7 -14528006.41647  20140966.8884
      1194.750
 98  6 15 22  9 59.9970000  0  6 22 06 21 26 17 23
  22829837.204    -3905128.705 5    134635.51644  22829836.7594
      -521.469
  20340759.993    -3562866.072 7  -2690571.00346  20340758.2944
     -1979.875
  22383929.954    -6924437.888 6  -5243958.30945  22383929.5564
      2759.438
  21286606.345   -12340886.198 6   -181011.40546  21286604.1774
      -586.375
  19949888.634   -13010855.375 7 -10028660.95547  19949887.2394
       353.891
  20134188.603   -18920238.301 7 -14555768.44047  20134186.7044
      1180.641
 98  6 15 22 10 29.9970000  0  5 22 06 21 26 23
  22832857.962    -3889251.026 5    147007.71644  22832857.0014
      -537.031
  20352107.290    -3503236.571 7  -2644106.48146  20352105.8724
     -1995.141
  22368201.446    -7007094.209 6  -5308365.77045  22368200.6734
      2751.031
  21290008.524   -12323008.806 6   -167080.96246  21290006.5444
      -605.531
  20127488.751   -18955447.603 7 -14583204.24847  20127486.9114
      1166.578
 98  6 15 22 10 59.9970000  0  5 22 06 21 26 23
  22835968.595    -3872907.464 5    159742.93244  22835967.1184
      -552.188
  20363539.642    -3443157.670 7  -2597291.78846  20363537.9424
     -2009.750
  22352519.524    -7089500.212 6  -5372578.17145  22352518.7984
      2743.109
  21293522.798   -12304538.429 6   -152688.47346  21293520.8414
      -625.547
  20120870.626   -18990225.314 7 -14610303.75247  20120869.0564
      1152.422
 98  6 15 22 11 29.9970000  0  5 22 06 21 26 23
  22839164.103    -3856112.443 5    172829.94743  22839163.8214
      -567.125
  20375056.868    -3382634.474 7  -2550130.89746  20375055.3104
     -2025.000
  22336885.110    -7171665.244 6  -5436602.78845  22336883.7984
      2734.938
  21297154.892   -12285453.582 6   -137817.15646  21297153.6494
      -646.703
  20114333.314   -19024579.000 7 -14637072.85147  20114331.7204
      1138.203
 98  6 15 22 11 59.9970000  0  5 22 06 21 26 23
  22842446.095    -3838867.668 5    186267.37744  22842445.8844
      -583.063
  20386663.907    -3321639.279 7  -2502602.21746  20386661.8454
     -2041.531
  22321295.032    -7253587.295 6  -5500438.11145  22321293.4624
      2726.109
  21300910.118   -12265718.074 6   -122438.84846  21300908.5604
      -669.313
  20107876.962   -19058507.923 7 -14663510.95747  20107875.4034
      1123.359
 98  6 15 22 12 29.9970000  0  5 22 06 21 26 23
  22845819.985    -3821137.409 5    200083.11844  22845818.3104
      -598.906
  20398362.899    -3260163.371 7  -2454698.94846  20398360.5914
     -2056.891
  22305756.298    -7335244.105 6  -5564066.75445  22305756.1694
      2717.609
  21304794.056   -12245306.289 6   -106533.56946  21304793.1534
      -691.453
  20101504.696   -19091993.962 7 -14689603.96747  20101502.9624
      1109.078
 98  6 15 22 12 59.9970000  0  5 22 06 21 26 23
  22849279.196    -3802959.416 5    214247.72544  22849276.3494
      -613.234
  20410146.189    -3198240.376 7  -2406447.29946  20410144.0324
     -2071.719
  22290263.415    -7416657.072 6  -5627505.35745  22290262.6894
      2709.656
  21308799.829   -12224257.780 6    -90132.16246  21308799.0324
      -711.891
  20095209.196   -19125077.042 7 -14715382.98047  20095207.6144
      1096.406
 98  6 15 22 13 29.9970000  0  5 22 06 21 26 23
  22852821.079    -3784349.557 5    228748.87145  22852820.2594
      -627.266
  20422015.235    -3135868.138 7  -2357845.59346  20422013.3494
     -2086.125
  22274818.556    -7497823.481 6  -5690751.86445  22274818.0404
      2701.688
  21312919.884   -12202606.178 6    -73260.79546  21312918.5714
      -731.328
  20088984.360   -19157788.594 7 -14740872.48047  20088982.7204
      1084.563
 98  6 15 22 13 59.9970000  0  5 22 06 21 26 23
  22856444.595    -3765304.985 5    243588.73545  22856444.2674
      -642.375
  20433967.673    -3073059.371 7  -2308903.72046  20433966.0914
     -2101.094
  22259419.774    -7578743.001 6  -5753805.97745  22259418.5214
      2692.813
  21317151.821   -12180367.642 6    -55932.08246  21317150.5444
      -751.047
  20082828.595   -19190138.078 7 -14766079.85347  20082826.6384
      1071.984
 98  6 15 22 14 29.9970000  0  5 22 06 21 26 23
  22860152.673    -3745819.062 5    258772.55144  22860152.4034
      -656.891
  20446002.384    -3009815.128 7  -2259622.52646  20446000.6854
     -2115.531
  22244071.181    -7659401.803 6  -5816656.94145  22244070.1734
      2684.219
  21321492.782   -12157556.861 6    -38157.45546  21321490.7434
      -769.922
  20076742.048   -19222122.230 7 -14791002.55647  20076740.2784
      1060.031
 98  6 15 22 14 59.9970000  0  5 22 06 21 26 23
  22863942.517    -3725904.079 5    274290.69945  22863941.7084
      -671.047
  20458119.892    -2946138.201 7  -2210004.17046  20458118.1224
     -2129.938
  22228769.774    -7739809.698 6  -5879312.37245  22228768.8144
      2676.141
  21325940.056   -12134187.108 6    -19947.27546  21325938.6384
      -788.188
  20070723.985   -19253748.352 7 -14815646.27347  20070722.4624
      1048.094
 98  6 15 22 15 29.9970000  0  5 22 06 21 26 23
  22867815.610    -3705547.467 5    290152.96844  22867815.6104
      -686.203
  20470321.103    -2882020.743 7  -2160042.54546  20470319.2634
     -2144.641
  22213516.142    -7819968.473 6  -5941773.68045  22213515.5674
      2667.688
  21330492.267   -12110264.780 6     -1306.51846  21330490.5324
      -806.750
  20064777.360   -19284997.327 7 -14839996.11547  20064775.7084
      1034.875
 98  6 15 22 15 59.9970000  0  5 22 06 21 26 23
  22871776.384    -3684732.320 4    306372.53844  22871777.5794
      -701.500
  20482607.134    -2817458.321 7  -2109734.19746  20482605.2124
     -2159.719
  22198309.040    -7899880.121 6  -6004042.44545  22198308.2674
      2659.516
  21335150.149   -12085787.372 6     17766.79246  21335148.4504
      -825.203
  20058908.243   -19315840.190 7 -14864029.50347  20058906.2864
      1021.125
 98  6 15 22 16 29.9970000  0  5 22 06 21 26 23
  22875825.642    -3663456.457 5    322951.14644  22875825.9234
      -716.625
  20494979.399    -2752440.893 7  -2059071.30646  20494977.2084
     -2174.516
  22183150.681    -7979536.108 6  -6066112.02145  22183150.3294
      2651.188
  21339915.470   -12060742.384 6     37282.34746  21339914.2744
      -844.453
  20053118.564   -19346264.274 7 -14887736.58447  20053116.6424
      1007.359
 98  6 15 22 16 59.9970000  0  5 22 06 21 26 23
  22879960.595    -3641727.920 5    339882.45144  22879960.1144
      -731.688
  20507437.939    -2686969.905 7  -2008054.99346  20507436.1344
     -2190.156
  22168040.915    -8058941.717 6  -6127986.46845  22168040.5874
      2642.813
  21344795.267   -12035102.599 6     57261.39246  21344794.0364
      -864.641
  20047410.228   -19376263.017 7 -14911112.21747  20047408.3174
       992.891
 98  6 15 22 17 29.9970000  0  5 22 06 21 26 23
  22884178.165    -3619565.843 5    357151.60044  22884177.7904
      -745.719
  20519983.017    -2621045.344 7  -1956685.23946  20519981.1774
     -2204.703
  22152974.884    -8138115.947 6  -6189680.61745  22152974.3334
      2635.391
  21349785.814   -12008874.156 6     77699.11546  21349784.7944
      -884.109
  20041778.814   -19405854.990 7 -14934170.89647  20041776.9974
       980.000
 98  6 15 22 17 59.9970000  0  5 22 06 21 26 23
  22888475.235    -3596987.307 5    374745.22644  22888475.4814
      -759.219
  20532611.853    -2554681.583 7  -1904973.24946  20532610.0014
     -2219.344
  22137952.274    -8217059.391 6  -6251194.92945  22137951.3724
      2627.641
  21354891.079   -11982045.804 6     98604.30245  21354889.6144
      -904.328
  20036220.165   -19435066.365 7 -14956932.99447  20036218.3144
       967.672
 98  6 15 22 18 29.9970000  0  5 22 06 21 26 23
  22892845.360    -3574016.589 5    392644.45844  22892844.3414
      -772.703
  20545321.157    -2487893.148 7  -1852930.35146  20545319.5404
     -2233.750
  22122972.782    -8295773.921 6  -6312530.86645  22122972.0444
      2619.594
  21360110.384   -11954618.013 6    119976.58946  21360109.0364
      -924.516
  20030730.282   -19463916.877 7 -14979413.91047  20030728.1144
       955.188
 98  6 15 22 18 59.9970000  0  5 22 06 21 26 23
  22897292.892    -3550648.753 5    410853.09445  22897291.8604
      -785.703
  20558111.985    -2420677.292 7  -1800554.40046  20558110.1344
     -2247.641
  22108038.353    -8374255.260 6  -6373685.11145  22108037.4394
      2611.891
  21365441.212   -11926604.827 6    141805.04746  21365439.8294
      -943.297
  20025310.103   -19492399.262 7 -15001607.96747  20025308.1814
       943.281
 98  6 15 22 19 29.9970000  0  5 22 06 21 26 23
  22901816.235    -3526878.479 5    429375.35844  22901815.2634
      -799.016
  20570980.564    -2353051.690 7  -1747859.15946  20570978.6534
     -2260.656
  22093150.915    -8452486.552 6  -6434644.51245  22093149.6854
      2603.281
  21370879.392   -11898027.976 6    164072.70645  21370877.3064
      -961.984
  20019959.032   -19520518.653 7 -15023519.17147  20019956.9464
       931.094
 98  6 15 22 19 59.9970000  0  5 22 06 21 26 23
  22906415.243    -3502705.152 5    448211.67944  22906414.3294
      -812.625
  20583924.173    -2285034.225 7  -1694858.57346  20583922.3104
     -2273.859
  22078314.040    -8530455.191 6  -6495399.25345  22078313.3024
      2594.844
  21376425.376   -11868884.634 6    186781.79145  21376423.7244
      -980.859
  20014681.626   -19548252.496 7 -15045129.95646  20014679.5874
       917.703
 98  6 15 22 20 29.9970000  0  5 22 06 21 26 23
  22911099.235    -3478094.167 5    467389.00944  22911098.9314
      -827.797
  20596947.110    -2216599.389 7  -1641532.77746  20596945.3064
     -2288.172
  22063528.142    -8608157.206 6  -6555946.22345  22063527.6034
      2585.656
  21382082.251   -11839158.288 6    209945.14946  21382080.7044
     -1000.500
  20009485.540   -19575557.298 7 -15066406.41846  20009483.5134
       903.016
 98  6 15 22 20 59.9970000  0  5 22 06 21 26 23
  22915864.626    -3453052.557 5    486901.89344  22915863.4544
      -841.719
  20610045.892    -2147763.705 7  -1587894.61846  20610043.9234
     -2301.000
  22048789.962    -8685609.519 6  -6616298.62645  22048789.0484
      2577.719
  21387847.493   -11808861.729 6    233552.83546  21387845.7824
     -1019.563
  20004367.282   -19602453.800 7 -15087364.73046  20004365.5134
       889.969
 98  6 15 22 21 29.9970000  0  5 22 06 21 26 23
  22920711.610    -3427577.319 5    506752.67243  22920711.4934
      -856.328
  20623222.907    -2078517.347 7  -1533936.45646  20623220.8104
     -2315.172
  22034098.110    -8762812.950 6  -6676457.10145  22034097.1964
      2569.609
  21393725.782   -11777970.815 6    257623.64846  21393723.7434
     -1039.563
  19999328.407   -19628934.456 7 -15107998.99446  19999326.8144
       875.688
 98  6 15 22 21 59.9970000  0  6 22 06 21 03 26 23
  22925641.189    -3401677.345 5    526934.44344  22925639.7124
      -870.625
  20636478.524    -2008858.017 7  -1479656.49046  20636476.8604
     -2329.078
  22019447.806    -8839800.478 6  -6736447.33545  22019447.1384
      2562.641
  23351816.579      -39905.03215
      3627.078
  21399715.149   -11746494.757 6    282150.42946  21399713.5564
     -1059.078
  19994365.407   -19655013.245 7 -15128320.12746  19994363.5794
       862.797
 98  6 15 22 22 29.9970000  0  6 22 06 21 03 26 23
  22930653.368    -3375335.203 5    547460.74844  22930652.4424
      -885.297
  20649816.681    -1938765.048 6  -1425038.63646  20649815.4034
     -2343.531
  22004842.001    -8916552.722 6  -6796254.23045  22004841.3804
      2554.125
  23331125.267     -148638.006 5
      3621.906
  21405819.954   -11714417.293 6    307145.83046  21405817.5524
     -1079.156
  19989476.478   -19680704.838 7 -15148339.54646  19989474.4274
       850.203
 98  6 15 22 22 59.9970000  0  6 22 06 21 03 26 23
  22935746.720    -3348571.708 5    568315.39244  22935746.3334
      -899.266
  20663234.126    -1868256.664 6  -1370097.05946  20663232.9074
     -2357.406
  21990283.610    -8993059.160 6  -6855869.60145  21990283.1894
      2545.813
  23310460.017     -257232.759 5    -33832.48253  23310458.3174
      3617.344
  21412035.032   -11681753.730 6    332597.94246  21412033.6384
     -1098.828
  19984655.876   -19706038.401 7 -15168079.97546  19984654.0714
       838.219
 98  6 15 22 23 29.9970000  0  6 22 06 21 03 26 23
  22940919.149    -3321391.718 5    589494.59145  22940918.2714
      -913.156
  20676731.126    -1797331.751 7  -1314830.93746  20676729.9894
     -2371.172
  21975772.470    -9069314.940 6  -6915289.64545  21975771.2984
      2537.375
  23289820.821     -365693.513 5   -118347.32643  23289819.0404
      3613.094
  21418360.243   -11648513.758 6    358499.18946  21418358.5914
     -1117.547
  19979904.103   -19731010.264 7 -15187538.56546  19979901.8994
       826.281
 98  6 15 22 23 59.9970000  0  6 22 06 21 03 26 23
  22946172.048    -3293789.155 5    611003.03845  22946170.9354
      -926.953
  20690304.915    -1726001.117 7  -1259248.67446  20690302.8294
     -2384.313
  21961312.931    -9145301.258 6  -6974499.70245  21961311.6654
      2528.297
  23269204.767     -474030.778 5   -202765.87143  23269203.7004
      3609.078
  21424793.845   -11614704.234 6    384844.25045  21424792.4624
     -1136.500
  19975219.118   -19755627.017 7 -15206720.45146  19975217.1964
       814.734
 98  6 15 22 24 29.9970000  0  6 22 06 21 03 26 23
  22951497.626    -3265799.083 5    632813.43645  22951498.2824
      -939.828
  20703951.431    -1654288.264 7  -1203368.57646  20703949.6494
     -2397.391
  21946903.298    -9221025.847 6  -7033505.82145  21946901.9624
      2519.297
  23248612.165     -582243.957 5   -287087.77843  23248612.8924
      3604.125
  21431332.728   -11580342.746 6    411619.41545  21431331.1104
     -1155.031
  19970599.579   -19779906.081 7 -15225639.18846  19970597.5174
       802.984
 98  6 15 22 24 59.9970000  0  6 22 06 21 03 26 23
  22956900.220    -3237412.933 5    654932.47845  22956899.7044
      -952.109
  20717675.696    -1582164.187 6  -1147168.04946  20717674.3724
     -2410.406
  21932545.337    -9296476.256 6  -7092298.29245  21932543.9424
      2511.156
  23228054.743     -690277.574 5   -371269.73343  23228055.0604
      3598.422
  21437979.603   -11545413.450 6    438837.03445  21437978.2674
     -1173.109
  19966049.454   -19803814.955 7 -15244269.47546  19966047.5794
       791.359
 98  6 15 22 25 29.9970000  0  6 22 06 21 03 26 23
  22962371.079    -3208661.124 5    677336.45145  22962370.0714
      -964.703
  20731475.610    -1509646.382 6  -1090660.70446  20731474.3804
     -2424.078
  21918233.267    -9371685.252 6  -7150902.65345  21918232.3764
      2502.859
  23207532.517     -798122.753 5   -455304.90743  23207530.4314
      3591.328
  21444729.618   -11509941.813 6    466477.24545  21444727.9894
     -1191.672
  19961567.189   -19827368.925 7 -15262623.20946  19961565.2904
       778.969
 98  6 15 22 25 59.9970000  0  6 22 06 21 03 26 23
  22967914.423    -3179529.400 5    700036.43345  22967914.3994
      -977.000
  20745354.165    -1436715.173 7  -1033831.23346  20745352.9934
     -2437.781
  21903968.540    -9446647.178 6  -7209314.50145  21903967.6144
      2494.969
  23187050.595     -905754.687 5   -539173.84143  23187049.8334
      3584.297
  21451587.142   -11473908.449 6    494555.17245  21451585.3494
     -1210.203
  19957155.556   -19850551.760 7 -15280687.75146  19957153.5994
       766.828
 98  6 15 22 26 29.9970000  0  6 22 06 21 03 26 23
  22973531.001    -3150017.433 5    723032.70945  22973530.9074
      -990.406
  20759316.001    -1363345.577 7   -976660.16446  20759314.3254
     -2453.266
  21889750.540    -9521362.994 6  -7267534.60045  21889749.7674
      2486.328
  23166612.431    -1013155.348 5   -622862.61243  23166612.0794
      3576.141
  21458551.821   -11437308.555 6    523074.54845  21458549.8644
     -1229.438
  19952816.923   -19873352.649 7 -15298454.66146  19952814.8024
       753.453
 98  6 15 22 26 59.9970000  0  6 22 06 21 03 26 23
  22979224.657    -3120096.641 5    746347.57644  22979224.0014
     -1004.031
  20773364.040    -1289524.354 7   -919137.18546  20773362.2244
     -2467.594
  21875580.931    -9595823.101 6  -7325555.42545  21875580.1344
      2477.922
  23146218.743    -1120328.672 5   -706374.22743  23146218.8024
      3569.266
  21465624.173   -11400143.308 6    552034.45845  21465622.0174
     -1247.844
  19948553.712   -19895756.998 7 -15315912.58646  19948551.6494
       740.484
 98  6 15 22 27 29.9970000  0  6 22 06 21 03 26 23
  22984997.524    -3089756.106 5    769989.48844  22984996.1184
     -1018.563
  20787493.212    -1215272.855 6   -861278.93246  20787491.3254
     -2482.516
  21861461.946    -9670019.526 6  -7383370.77745  21861461.1034
      2468.563
  23125861.329    -1227303.188 4   -789730.93543  23125863.7084
      3562.609
  21472802.556   -11362418.628 6    581430.30645  21472801.0214
     -1267.047
  19944365.743   -19917763.855 7 -15333060.78646  19944363.9274
       726.703
 98  6 15 22 27 59.9970000  0  6 22 06 21 03 26 23
  22990850.368    -3059003.463 5    793952.55044  22990849.4894
     -1031.563
  20801703.478    -1140597.077 6   -803090.05946  20801701.7084
     -2495.875
  21847393.603    -9743951.232 6  -7440979.84045  21847392.0794
      2460.172
  23105535.681    -1334113.189 4   -872959.44543  23105536.3024
      3557.891
  21480086.251   -11324144.358 6    611254.38845  21480083.5914
     -1284.703
  19940251.649   -19939383.658 7 -15349907.38446  19940249.6344
       714.578
 98  6 15 22 28 29.9970000  0  6 22 06 21 03 26 23
  22996773.579    -3027872.958 5    818210.04844  22996773.9664
     -1043.734
  20815987.939    -1065532.056 6   -744597.87146  20815986.9194
     -2508.313
  21833370.634    -9817642.412 6  -7498401.49345  21833368.5244
      2452.547
  23085235.837    -1440789.600 4   -956083.84842  23085235.8144
      3554.063
  21487470.149   -11285342.375 6    641489.68445  21487467.7474
     -1302.000
  19936205.782   -19960645.108 7 -15366474.74646  19936203.6034
       702.922
 98  6 15 22 28 59.9970000  0  6 22 06 21 03 26 23
  23002769.321    -2996368.780 5    842758.71245  23002769.3454
     -1056.281
  20830342.954     -990098.342 6   -685818.39846  20830341.8414
     -2520.484
  21819394.759    -9891082.526 6  -7555627.49945  21819393.3414
      2443.609
  23064960.892    -1547338.537 4  -1039108.91142  23064963.1424
      3549.203
  21494955.798   -11246004.100 6    672142.85745  21494954.0284
     -1320.625
  19932228.610   -19981544.286 7 -15382759.81946  19932226.9934
       690.484
 98  6 15 22 29 29.9970000  0  6 22 06 21 03 26 23
  23008832.517    -2964506.983 5    867586.05645  23008831.8024
     -1067.781
  20844767.446     -914299.189 7   -626754.18146  20844765.9704
     -2532.813
  21805467.993    -9964270.137 6  -7612656.76645  21805466.8104
      2435.641
  23044712.899    -1653739.699 3  -1122018.81842  23044714.6224
      3544.188
  21502548.095   -11206104.653 6    703233.30045  21502547.1574
     -1339.359
  19928321.071   -20002079.321 7 -15398761.14146  19928319.1384
       678.531
 98  6 15 22 29 59.9970000  0  6 22 06 21 03 26 23
  23014961.681    -2932294.975 5    892686.26645  23014962.0444
     -1079.563
  20859260.087     -838136.615 7   -567406.75946  20859258.4814
     -2544.469
  21791586.079   -10037218.719 6  -7669499.79545  21791584.9314
      2427.750
  23024495.423    -1759979.752 4  -1204803.21842  23024494.7674
      3538.469
  21510248.587   -11165640.904 6    734763.47046  21510247.4154
     -1358.219
  19924482.407   -20022251.426 7 -15414479.66246  19924480.5444
       666.406
 98  6 15 22 30 29.9970000  0  6 22 06 21 03 26 23
  23021161.392    -2899717.477 5    918071.28145  23021160.6184
     -1092.453
  20873822.001     -761614.258 6   -507779.00146  20873820.4894
     -2557.313
  21777752.243   -10109915.627 6  -7726146.70845  21777751.5754
      2418.375
  23004315.470    -1866030.442 4  -1287440.05742  23004320.2984
      3531.313
  21518059.368   -11124595.541 6    766746.83745  21518058.0094
     -1378.219
  19920716.845   -20042039.516 7 -15429898.95046  19920714.9114
       652.500
 98  6 15 22 30 59.9970000  0  6 22 06 21 03 26 23
  23027429.673    -2866777.154 5    943739.01145  23027429.8024
     -1103.813
  20888451.657     -684733.300 6   -447871.81046  20888450.1924
     -2568.594
  21763968.782   -10182349.428 6  -7782588.58646  21763967.8684
      2410.344
  22984171.876    -1971884.874 5  -1369923.94142  22984171.8174
      3525.234
  21525978.485   -11082980.504 6    799174.11546  21525977.1384
     -1396.375
  19917026.110   -20061433.308 7 -15445010.99346  19917024.2474
       640.172
 98  6 15 22 31 29.9970000  0  6 22 06 21 03 26 23
  23033765.165    -2833482.868 5    969682.56945  23033764.2394
     -1115.828
  20903151.532     -607485.928 6   -387679.10146  20903150.0674
     -2581.188
  21750232.282   -10254535.527 6  -7838837.45646  21750230.8294
      2401.891
  22964066.579    -2077537.869 5  -1452250.92042  22964066.8964
      3518.281
  21534001.384   -11040817.632 6    832028.27645  21534000.3994
     -1414.438
  19913407.946   -20080445.965 7 -15459826.06046  19913405.9664
       627.188
 98  6 15 22 31 59.9970000  0  6 22 06 21 03 26 23
  23040170.118    -2799828.260 5    995906.91245  23040169.1344
     -1127.578
  20917922.181     -529866.689 6   -327196.62346  20917920.6694
     -2593.328
  21736546.189   -10326455.715 6  -7894879.12245  21736544.6894
      2392.922
  22944001.517    -2182978.851 5  -1534412.65343  22944001.3064
      3511.328
  21542127.220   -10998116.125 6    865302.15745  21542126.1654
     -1432.125
  19909865.501   -20099064.133 7 -15474333.71946  19909863.3334
       614.391
 98  6 15 22 32 29.9970000  0  6 22 06 21 03 26 23
  23046640.845    -2765821.560 5   1022405.57244  23046640.0364
     -1139.172
  20932765.079     -451867.792 6   -266418.32146  20932763.6384
     -2606.234
  21722912.368   -10398101.576 6  -7950707.02445  21722910.8104
      2383.938
  22923977.220    -2288206.594 5  -1616408.18642  22923976.0014
      3504.297
  21550354.759   -10954880.479 6    898992.24845  21550353.2004
     -1449.781
  19906393.860   -20117307.450 7 -15488549.28646  19906391.8334
       602.406
 98  6 15 22 32 59.9970000  0  6 22 06 21 03 26 23
  23053179.064    -2731465.671 5   1049176.36443  23053178.2204
     -1150.781
  20947680.743     -373484.379 6   -205340.38246  20947679.7824
     -2618.750
  21709328.478   -10469485.359 6  -8006330.72445  21709326.8254
      2375.578
  22903994.095    -2393220.445 4  -1698237.13142  22903995.8884
      3497.250
  21558683.040   -10911114.418 6    933095.64745  21558681.2124
     -1467.375
  19902987.118   -20135209.265 7 -15502498.75146  19902985.1734
       591.672
 98  6 15 22 33 29.9970000  0  6 22 06 21 03 26 23
  23059785.259    -2696748.769 5   1076228.43443  23059785.6694
     -1163.453
  20962669.110     -294719.444 6   -143965.15946  20962667.6104
     -2631.641
  21695792.243   -10540617.392 6  -8061758.24145  21695791.1894
      2366.797
  22884049.821    -2498020.429 4  -1779899.40742  22884050.2554
      3489.734
  21567112.860   -10866816.904 6    967613.16645  21567111.6654
     -1485.578
  19899642.782   -20152783.482 7 -15516192.94846  19899641.0834
       580.172
 98  6 15 22 33 59.9970000  0  6 22 06 21 03 26 23
  23066464.845    -2661651.884 5   1103576.61244  23066464.7044
     -1176.641
  20977727.970     -215585.923 6    -82302.72146  20977726.7634
     -2644.328
  21682304.290   -10611497.942 6  -8116989.79745  21682302.8024
      2358.406
  22864148.696    -2602611.552 4  -1861398.95343  22864149.3414
      3482.750
  21575644.259   -10821982.180 6   1002549.28045  21575643.2164
     -1503.594
  19896362.251   -20170023.863 7 -15529627.00946  19896359.7674
       569.078
 98  6 15 22 34 29.9970000  0  6 22 06 21 03 26 23
  23073219.204    -2626155.835 5   1131235.81244  23073218.6534
     -1189.672
  20992859.790     -136067.184 6    -20340.10946  20992858.3604
     -2656.859
  21668862.501   -10682133.632 6  -8172030.56546  21668861.1654
      2350.703
  22844284.564    -2706996.150 5  -1942737.49042  22844284.6344
      3476.234
  21584277.876   -10776612.111 6   1037902.55445  21584276.6574
     -1521.016
  19893145.071   -20186930.248 7 -15542800.82246  19893142.9624
       557.875
 98  6 15 22 34 59.9970000  0  6 22 06 21 03 26 23
  23080048.423    -2590265.314 5   1159202.40644  23080048.6224
     -1203.188
  21008064.064      -56169.391 6     41917.85846  21008062.5404
     -2669.750
  21655466.657   -10752530.401 6  -8226885.16246  21655465.9074
      2342.156
  22824457.907    -2811182.982 5  -2023922.01343  22824457.9314
      3469.328
  21593011.985   -10730714.747 6   1073666.71345  21593009.3724
     -1538.938
  19889996.634   -20203476.695 7 -15555694.15446  19889994.3724
       544.922
 98  6 15 22 35 29.9970000  0  6 22 06 21 03 26 23
  23086953.087    -2553982.852 5   1187474.39044  23086952.0674
     -1215.703
  21023339.509       24103.074 6    104467.77846  21023337.9034
     -2681.969
  21642117.923   -10822676.602 6  -8281544.52045  21642117.2784
      2334.063
  22804671.985    -2915166.003 5  -2104947.64943  22804671.3764
      3462.578
  21601846.056   -10684291.359 6   1109840.74545  21601844.3214
     -1556.172
  19886922.134   -20219632.834 7 -15568283.36546  19886919.9424
       531.969
 98  6 15 22 35 59.9970000  0  6 22 06 21 03 26 23
  23093927.173    -2517329.837 5   1216035.10344  23093926.8214
     -1227.813
  21038687.579      104757.194 6    167315.09046  21038685.8214
     -2695.156
  21628817.931   -10892568.731 6  -8336005.88145  21628816.6534
      2325.172
  22784924.462    -3018936.728 5  -2185807.90343  22784921.5794
      3455.344
  21610780.220   -10637343.452 6   1146423.52245  21610778.2284
     -1573.828
  19883921.399   -20235400.931 7 -15580570.18746  19883919.3374
       519.141
 98  6 15 22 36 29.9970000  0  6 22 06 21 03 26 23
  23100966.329    -2480343.021 5   1244855.99145  23100965.9544
     -1238.375
  21054106.228      185783.488 6    230452.41246  21054104.4814
     -2706.969
  21615567.814   -10962200.514 6  -8390264.39546  21615566.8174
      2316.406
  22765216.649    -3122502.787 5  -2266508.67742  22765215.4664
      3448.531
  21619813.321   -10589875.186 6   1183411.74945  21619812.3254
     -1591.203
  19880990.712   -20250802.246 7 -15592571.21746  19880988.5324
       507.141
 98  6 15 22 36 59.9970000  0  6 22 06 21 03 26 23
  23108067.384    -2443023.850 5   1273935.77545  23108068.3924
     -1248.984
  21069594.524      267175.818 6    293874.94046  21069593.6814
     -2718.563
  21602371.243   -11031546.496 6  -8444300.18545  21602370.4234
      2307.203
  22745551.743    -3225837.879 5  -2347029.48343  22745550.9354
      3440.922
  21628948.665   -10541868.469 6   1220819.56345  21628947.4704
     -1608.734
  19878130.923   -20265830.524 7 -15604281.56946  19878128.9784
       495.406
 98  6 15 22 37 29.9970000  0  6 22 06 21 03 26 23
  23115230.439    -2405384.314 5   1303265.28844  23115230.7904
     -1260.141
  21085149.298      348917.414 6    357569.64146  21085148.1964
     -2730.750
  21589227.704   -11100618.226 6  -8498122.27045  21589226.1814
      2297.844
  22725934.032    -3328933.070 4  -2427363.30442  22725933.5174
      3432.344
  21638183.626   -10493337.944 6   1258635.51045  21638182.5484
     -1626.375
  19875337.431   -20280511.391 7 -15615721.20546  19875335.4744
       483.563
 98  6 15 22 37 59.9970000  0  6 22 06 21 03 26 23
  23122457.845    -2367408.035 5   1332857.12744  23122457.2474
     -1271.453
  21100774.759      431026.498 6    421550.70446  21100773.5874
     -2742.781
  21576137.603   -11169407.620 6  -8551724.36646  21576136.2784
      2288.297
  22706363.204    -3431775.800 4  -2507500.44442  22706363.7674
      3424.094
  21647519.540   -10444275.664 6   1296865.82745  21647519.2004
     -1644.219
  19872611.001   -20294838.135 7 -15626884.90646  19872608.9154
       471.719
 98  6 15 22 38 29.9970000  0  6 22 06 21 03 26 23
  23129748.907    -2329090.561 5   1362714.85244  23129749.0014
     -1283.188
  21116465.314      513480.679 6    485800.66546  21116463.9194
     -2754.453
  21563100.353   -11237917.519 6  -8605108.66946  21563098.8534
      2278.953
  22686839.439    -3534369.468 4  -2587443.53342  22686838.0674
      3415.234
  21656957.790   -10394680.316 6   1335511.52245  21656957.3454
     -1662.281
  19869952.509   -20308806.610 7 -15637769.43346  19869950.6224
       459.313
 98  6 15 22 38 59.9970000  0  6 22 06 21 03 26 23
  23137103.876    -2290440.958 5   1392831.35844  23137104.2514
     -1293.578
  21132220.712      596276.687 6    550316.97146  21132218.7204
     -2765.453
  21550112.157   -11306171.324 6  -8658293.42346  21550110.9854
      2271.203
  22667366.079    -3636706.110 4  -2667186.32743  22667365.2244
      3407.172
  21666494.360   -10344562.520 6   1374564.31945  21666493.7864
     -1679.188
  19867363.064   -20322416.131 7 -15648374.26346  19867360.9784
       447.875
 98  6 15 22 39 29.9970000  0  6 22 06 21 03 26 23
  23144521.587    -2251459.279 5   1423206.60943  23144521.2354
     -1304.891
  21148043.173      679427.578 6    615109.79946  21148041.8964
     -2777.609
  21537171.837   -11374171.458 6  -8711280.52046  21537170.9934
      2262.406
  22647939.407    -3738790.669 4  -2746732.69542  22647938.0364
      3398.891
  21676131.970   -10293916.108 6   1414029.00345  21676131.2554
     -1696.828
  19864841.853   -20335664.603 7 -15658697.74846  19864840.1654
       435.656
 98  6 15 22 39 59.9970000  0  6 22 06 21 03 26 23
  23152001.993    -2212149.081 5   1453837.87443  23152000.2474
     -1315.797
  21163933.853      762932.489 6    680178.51146  21163932.5174
     -2789.406
  21524281.923   -11441909.802 6  -8764063.64046  21524280.9034
      2253.422
  22628558.493    -3840639.970 4  -2826095.72143  22628557.9424
      3390.875
  21685869.548   -10242746.420 6   1453901.45945  21685868.0834
     -1714.516
  19862388.392   -20348558.278 7 -15668744.77646  19862386.2944
       423.875
 98  6 15 22 40 29.9970000  0  6 22 06 21 03 26 23
  23159541.767    -2172526.096 5   1484712.88943  23159541.3564
     -1325.609
  21179889.884      846780.614 6    745514.66346  21179889.2634
     -2800.609
  21511440.228   -11509392.953 6  -8816647.88746  21511439.1264
      2245.500
  22609222.173    -3942253.694 5  -2905275.18343  22609220.9194
      3383.344
  21695704.540   -10191066.692 6   1494171.34745  21695703.4974
     -1730.734
  19859999.790   -20361109.894 7 -15678525.26046  19859997.7864
       413.016
 98  6 15 22 40 59.9970000  0  6 22 06 21 03 26 23
  23167138.946    -2132603.196 5   1515821.58543  23167137.5524
     -1336.094
  21195911.946      930977.057 6    811122.23446  21195911.1614
     -2812.484
  21498645.634   -11576629.908 6  -8869040.28846  21498644.4744
      2236.844
  22589929.837    -4043636.213 5  -2984274.46143  22589928.8534
      3375.484
  21705631.189   -10138899.002 6   1534821.46245  21705630.2514
     -1747.109
  19857674.134   -20373331.335 7 -15688048.46746  19857672.2474
       401.656
 98  6 15 22 41 29.9970000  0  6 22 06 21 03 26 23
  23174798.626    -2092352.538 5   1547185.65143  23174797.6774
     -1347.391
  21212001.118     1015523.783 6    877002.74346  21212000.0174
     -2823.969
  21485901.228   -11643600.936 6  -8921225.48246  21485899.6104
      2227.844
  22570682.032    -4144781.969 4  -3063089.32642  22570681.9154
      3367.344
  21715651.173   -10086244.708 6   1575850.74845  21715650.4114
     -1763.313
  19855413.571   -20385210.667 7 -15697305.08746  19855411.6494
       390.203
 98  6 15 22 41 59.9970000  0  6 22 06 21 03 26 23
  23182521.603    -2051764.579 5   1578812.61643  23182522.2004
     -1357.938
  21228153.946     1100408.693 6    943146.76546  21228152.4464
     -2834.391
  21473208.048   -11710304.038 6  -8973201.89945  21473206.3844
      2219.766
  22551483.446    -4245671.419 5  -3141704.42542  22551484.1494
      3359.125
  21725766.110   -10033090.676 6   1617269.43045  21725764.8564
     -1779.844
  19853218.954   -20396744.126 7 -15706292.20846  19853216.7984
       379.344
 98  6 15 22 42 29.9970000  0  6 22 06 21 03 26 23
  23190304.517    -2010865.425 5   1610682.00944  23190305.0324
     -1369.438
  21244363.798     1185593.339 6   1009524.35246  21244362.5324
     -2845.344
  21460558.618   -11776776.790 6  -9024998.82145  21460557.2594
      2210.906
  22532330.689    -4346318.758 4  -3220130.83943  22532329.9974
      3349.891
  21735975.181    -9979442.613 6   1659073.07745  21735973.9394
     -1797.578
  19851084.884   -20407958.219 7 -15715030.46046  19851082.7284
       367.484
 98  6 15 22 42 59.9970000  0  6 22 06 21 03 26 23
  23198152.610    -1969626.592 5   1642816.12844  23198153.8884
     -1380.688
  21260633.845     1271092.433 6   1076146.95745  21260633.2244
     -2855.328
  21447958.571   -11842990.505 6  -9076593.88746  21447957.2594
      2202.438
  22513229.899    -4446698.744 4  -3298348.93843  22513229.6534
      3341.328
  21746284.071    -9925269.958 6   1701285.51245  21746282.9354
     -1814.766
  19849015.587   -20418832.239 7 -15723503.73246  19849013.3254
       356.672
 98  6 15 22 43 29.9970000  0  6 22 06 21 03 26 23
  23206066.728    -1928037.089 5   1675223.46744  23206065.7314
     -1391.703
  21276962.056     1356897.940 6   1143008.33946  21276961.3644
     -2864.969
  21435408.696   -11908939.785 6  -9127982.92046  21435407.3844
      2194.297
  22494178.689    -4546811.281 4  -3376358.68543  22494179.5444
      3332.906
  21756694.079    -9870564.250 6   1743913.30445  21756692.6034
     -1832.234
  19847008.985   -20429375.939 7 -15731719.61146  19847006.7124
       346.328
 98  6 15 22 43 59.9970000  0  6 22 06 21 03 26 23
  23214042.462    -1886129.785 5   1707878.46244  23214043.0604
     -1402.344
  21293347.649     1443004.379 6   1210104.19746  21293347.0404
     -2875.750
  21422905.931   -11974643.381 6  -9179180.50346  21422904.5604
      2185.672
  22475175.579    -4646670.698 4  -3454171.13343  22475176.1304
      3324.078
  21767203.868    -9815336.315 6   1786948.02445  21767203.1654
     -1849.609
  19845062.837   -20439603.990 7 -15739689.52246  19845060.9974
       335.234
 98  6 15 22 44 29.9970000  0  6 22 06 21 03 26 23
  23222076.142    -1843912.164 5   1740775.26144  23222075.8144
     -1412.078
  21309796.228     1529439.378 6   1277456.08746  21309795.1964
     -2886.797
  21410452.564   -12040086.913 6  -9230175.43946  21410451.1104
      2177.125
  22456222.915    -4746266.291 4  -3531778.03543  22456223.3964
      3315.547
  21777808.251    -9759610.522 6   1830370.67945  21777806.2944
     -1865.313
  19843180.899   -20449494.957 7 -15747396.77046  19843178.6144
       324.078
 98  6 15 22 44 59.9970000  0  6 22 06 21 03 26 23
  23230165.173    -1801403.336 5   1773898.95444  23230164.9974
     -1421.875
  21326310.814     1616221.831 6   1345078.71146  21326309.4424
     -2898.891
  21398048.954   -12105266.997 6  -9280965.09746  21398047.3604
      2168.172
  22437320.423    -4845601.308 4  -3609181.87843  22437319.3684
      3306.766
  21788501.165    -9703419.652 6   1874155.74145  21788499.1034
     -1880.859
  19841362.751   -20459047.350 7 -15754840.19946  19841360.6304
       312.609
 98  6 15 22 45 29.9970000  0  6 22 06 21 03 26 23
  23238306.618    -1758620.034 5   1807236.50944  23238306.4314
     -1431.000
  21342891.970     1703360.402 6   1412978.83545  21342890.7394
     -2911.203
  21385694.032   -12170194.889 6  -9331558.23546  21385692.5094
      2159.531
  22418466.282    -4944679.364 5  -3686385.50043  22418465.8604
      3297.609
  21799281.134    -9646768.961 6   1918299.08445  21799279.9744
     -1896.656
  19839611.032   -20468254.804 7 -15762014.83246  19839608.9584
       300.297
 98  6 15 22 45 59.9970000  0  6 22 06 21 03 26 23
  23246498.931    -1715569.364 5   1840782.43944  23246498.1924
     -1439.078
  21359544.985     1790873.673 6   1481170.94645  21359543.9074
     -2922.781
  21373388.470   -12234858.519 6  -9381945.46246  21373386.9464
      2151.531
  22399666.212    -5043475.119 5  -3763369.16143  22399665.5564
      3288.875
  21810150.696    -9589647.164 6   1962809.53045  21810149.8884
     -1911.422
  19837929.634   -20477087.744 7 -15768897.63746  19837927.6424
       288.750
 98  6 15 22 46 29.9970000  0  6 22 06 21 03 26 23
  23254742.376    -1672248.698 5   1874538.69543  23254741.2044
     -1448.703
  21376265.610     1878740.650 6   1549638.64945  21376264.4274
     -2934.609
  21361131.376   -12299270.761 6  -9432136.79846  21361130.0404
      2142.953
  22380918.259    -5141996.334 4  -3840138.88443  22380917.7674
      3279.594
  21821110.501    -9532054.616 6   2007686.79345  21821108.9314
     -1927.844
  19836316.493   -20485565.707 7 -15775503.84346  19836314.5714
       276.875
 98  6 15 22 46 59.9970000  0  6 22 06 21 03 26 23
  23263040.931    -1628638.937 5   1908520.30343  23263042.2674
     -1458.547
  21393049.360     1966937.247 6   1618363.21045  21393048.1654
     -2944.766
  21348921.649   -12363432.500 6  -9482132.94146  21348920.2674
      2134.750
  22362219.603    -5240253.927 4  -3916703.20243  22362217.7514
      3271.094
  21832163.790    -9473967.972 6   2052949.08545  21832161.7634
     -1944.438
  19834767.837   -20493704.759 7 -15781845.96846  19834766.0214
       265.969
 98  6 15 22 47 29.9970000  0  6 22 06 21 03 26 23
  23271395.743    -1584731.125 5   1942734.08043  23271397.0214
     -1468.781
  21409888.407     2055425.907 6   1687315.34245  21409886.9894
     -2954.547
  21336758.907   -12427347.761 6  -9531937.01346  21336757.6534
      2125.969
  22343571.743    -5338252.496 5  -3993065.65744  22343570.2554
      3262.078
  21843312.571    -9415381.907 6   2098600.51245  21843310.5324
     -1961.422
  19833280.868   -20501518.563 7 -15787934.64746  19833278.7354
       254.813
 98  6 15 22 47 59.9970000  0  6 22 06 21 03 26 23
  23279811.673    -1540505.030 5   1977195.93143  23279811.9424
     -1479.734
  21426784.017     2144213.773 6   1756500.61745  21426782.8104
     -2964.625
  21324649.829   -12490981.072 6  -9581521.38846  21324648.6104
      2116.375
  22324975.806    -5435978.493 5  -4069215.74544  22324973.5094
      3252.984
  21854558.860    -9356281.731 6   2144652.54645  21854558.2394
     -1978.438
  19831858.321   -20508994.149 7 -15793759.78146  19831856.4234
       243.703
 98  6 15 22 48 29.9970000  0  6 22 06 21 03 26 23
  23288293.634    -1495935.786 5   2011925.17443  23288291.8294
     -1491.250
  21443740.181     2233315.892 6   1825930.79045  21443738.3174
     -2975.391
  21312597.743   -12554316.858 6  -9630873.91646  21312596.3844
      2106.063
  22306433.204    -5533420.260 5  -4145144.37144  22306431.5644
      3243.141
  21865902.899    -9296669.515 6   2191103.56945  21865901.8684
     -1995.406
  19830501.767   -20516123.339 7 -15799314.98946  19830499.8684
       231.719
 98  6 15 22 48 59.9970000  0  6 22 06 21 03 26 23
  23296833.985    -1451056.052 5   2046896.30543  23296833.9854
     -1500.891
  21460751.845     2322717.458 6   1895594.28345  21460750.6614
     -2985.172
  21300600.439   -12617362.517 6  -9680000.38346  21300599.3374
      2096.750
  22287943.603    -5630581.399 5  -4220854.27344  22287943.9424
      3234.000
  21877337.040    -9236582.736 6   2237924.40645  21877335.1064
     -2010.641
  19829207.931   -20522921.910 7 -15804612.58246  19829206.1264
       221.234
 98  6 15 22 49 29.9970000  0  6 22 06 21 03 26 23
  23305428.157    -1405894.858 5   2082086.77944  23305428.7434
     -1509.344
  21477824.017     2412433.431 6   1965502.77445  21477822.9504
     -2995.531
  21288656.446   -12680128.253 6  -9728908.72546  21288655.2744
      2088.109
  22269507.298    -5727461.780 5  -4296345.42944  22269506.8174
      3225.031
  21888857.649    -9176039.124 6   2285101.18545  21888856.1854
     -2025.281
  19827975.571   -20529398.520 7 -15809659.29246  19827973.6384
       210.922
 98  6 15 22 49 59.9970000  0  6 22 06 21 03 26 23
  23314074.212    -1360461.147 5   2117489.59444  23314074.3764
     -1519.406
  21494960.220     2502479.578 6   2035668.53945  21494959.7164
     -3007.250
  21276763.032   -12742627.044 6  -9777609.07146  21276761.8254
      2078.875
  22251128.032    -5824048.323 5  -4371607.63244  22251128.0094
      3214.141
  21900466.267    -9115038.859 6   2332633.82845  21900464.7554
     -2041.156
  19826804.821   -20535548.773 7 -15814451.70446  19826803.1574
       199.438
 98  6 15 22 50 29.9970000  0  6 22 06 21 03 26 23
  23322771.228    -1314754.462 5   2153105.12544  23322771.2044
     -1528.047
  21512155.048     2592837.974 6   2106077.61445  21512153.7474
     -3016.953
  21264915.345   -12804887.144 6  -9826123.41046  21264914.3374
      2071.234
  22232806.228    -5920332.859 5  -4446634.52144  22232804.6814
      3204.313
  21912159.524    -9053589.136 6   2380516.68345  21912158.0484
     -2056.188
  19825694.087   -20541387.063 7 -15819001.02046  19825692.1774
       189.375
 98  6 15 22 50 59.9970000  0  6 22 06 21 03 26 23
  23331518.728    -1268787.850 5   2188923.22543  23331518.2244
     -1536.266
  21529405.173     2683486.837 6   2176713.01345  21529403.6384
     -3026.094
  21253112.579   -12866911.449 6  -9874454.01246  21253111.4074
      2063.938
  22214541.540    -6016311.846 5  -4521423.27844  22214539.6184
      3194.531
  21923942.907    -8991665.403 6   2428768.88845  21923941.7824
     -2071.875
  19824641.462   -20546919.903 7 -15823312.32946  19824639.6104
       179.547
 98  6 15 22 51 29.9970000  0  6 22 06 21 03 26 23
  23340313.517    -1222570.490 5   2224936.67243  23340313.7984
     -1545.297
  21546707.071     2774408.166 6   2247560.73245  21546704.9154
     -3035.578
  21241351.376   -12928716.716 6  -9922613.94046  21241350.3804
      2056.063
  22196333.939    -6111994.041 5  -4595980.75844  22196333.3174
      3183.859
  21935816.540    -8929271.076 6   2477387.79345  21935816.0714
     -2088.141
  19823647.829   -20552141.652 7 -15827381.21946  19823645.8964
       168.203
 98  6 15 22 51 59.9970000  0  6 22 06 21 03 26 23
  23349160.392    -1176082.004 5   2261161.40443  23349161.2714
     -1553.938
  21564058.970     2865597.299 6   2318617.11945  21564056.3684
     -3043.719
  21229634.368   -12990289.764 6  -9970592.90546  21229633.2784
      2048.656
  22178185.829    -6207363.411 5  -4670294.49644  22178184.5754
      3174.094
  21947781.228    -8866396.352 6   2526381.03045  21947780.1964
     -2103.469
  19822717.157   -20557032.078 7 -15831191.94946  19822715.0604
       157.797
 98  6 15 22 52 29.9970000  0  6 22 06 21 03 26 23
  23358056.587    -1129332.034 5   2297589.86543  23358056.9154
     -1562.297
  21581460.376     2957043.178 6   2389873.59245  21581458.6534
     -3052.547
  21217963.353   -13051621.373 6 -10018383.74146  21217962.1464
      2040.266
  22160093.681    -6302433.548 5  -4744375.07144  22160093.1534
      3164.234
  21959834.524    -8803055.480 6   2575737.51445  21959833.1534
     -2119.016
  19821847.931   -20561599.242 7 -15834750.77946  19821845.8804
       146.984
 98  6 15 22 52 59.9970000  0  6 22 06 21 03 26 23
  23366999.571    -1082338.134 5   2334208.36743  23367000.1694
     -1570.563
  21598915.564     3048766.961 6   2461346.60045  21598914.2864
     -3062.375
  21206341.040   -13112696.520 6 -10065974.74346  21206339.7744
      2031.500
  22142059.665    -6397206.241 5  -4818223.89644  22142059.0324
      3154.188
  21971975.423    -8739251.830 6   2625454.59245  21971974.4274
     -2134.281
  19821040.595   -20565841.331 7 -15838056.30446  19821038.2514
       135.844
 98  6 15 22 53 29.9970000  0  6 22 06 21 03 26 23
  23375988.564    -1035099.930 5   2371017.31343  23375988.0484
     -1578.406
  21616426.181     3140782.612 6   2533047.02745  21616424.5524
     -3071.797
  21194768.821   -13173508.587 6 -10113360.73646  21194767.5794
      2022.969
  22124080.204    -6491689.201 5  -4891846.91544  22124078.4114
      3144.938
  21984202.142    -8675003.993 6   2675517.81545  21984201.0754
     -2148.656
  19820296.501   -20569753.221 7 -15841104.53646  19820294.5674
       125.359
 98  6 15 22 53 59.9970000  0  6 22 06 21 03 26 23
  23385024.032     -987617.917 5   2408016.20444  23385023.6924
     -1586.672
  21633991.306     3233089.702 6   2604974.56045  21633989.7824
     -3081.656
  21183247.431   -13234055.318 6 -10160539.98346  21183246.2594
      2013.813
  22106155.368    -6585885.835 5  -4965246.85544  22106154.1264
      3135.063
  21996512.306    -8610314.420 6   2725925.21145  21996511.5794
     -2163.641
  19819610.392   -20573357.343 7 -15843912.93746  19819608.1894
       115.219
 98  6 15 22 54 29.9970000  0  6 22 06 21 03 26 23
  23394105.181     -939898.638 5   2445199.95644  23394104.2674
     -1594.516
  21651613.837     3325695.294 6   2677134.69045  21651612.2434
     -3091.938
  21171777.118   -13294332.450 6 -10207509.16246  21171775.7824
      2004.781
  22088286.564    -6679782.216 5  -5038412.82244  22088285.9784
      3124.781
  22008908.564    -8545173.425 6   2776684.38745  22008907.1464
     -2179.000
  19818982.228   -20576657.960 7 -15846484.85146  19818980.2354
       104.953
 98  6 15 22 54 59.9970000  0  6 22 06 21 03 26 23
  23403229.946     -891944.746 5   2482566.54643  23403230.8494
     -1602.656
  21669292.587     3418598.506 6   2749526.71545  21669291.5324
     -3101.578
  21160357.587   -13354341.943 6 -10254269.76946  21160355.8884
      1995.656
  22070478.087    -6773369.985 5  -5111338.30744  22070477.8764
      3114.141
  22021390.774    -8479577.634 6   2827797.93345  22021389.8374
     -2194.078
  19818412.157   -20579652.581 7 -15848818.31446  19818410.4584
        94.375
 98  6 15 22 55 29.9970000  0  6 22 06 21 03 26 23
  23412405.126     -843732.009 5   2520134.88443  23412406.5674
     -1611.828
  21687025.423     3511787.829 6   2822141.68845  21687024.4504
     -3111.219
  21148992.095   -13414068.585 6 -10300810.00246  21148990.7824
      1986.141
  22052731.485    -6866626.015 5  -5184005.29544  22052730.6304
      3102.625
  22033959.446    -8413527.884 6   2879265.23745  22033958.5674
     -2209.328
  19817904.189   -20582322.899 7 -15850899.08646  19817902.1854
        83.594
 98  6 15 22 55 59.9970000  0  6 22 06 21 03 26 23
  23421629.524     -795255.219 5   2557908.94244  23421629.6774
     -1619.828
  21704810.454     3605248.787 6   2894968.33445  21704809.6694
     -3119.375
  21137676.853   -13473531.499 7 -10347144.71046  21137675.3414
      1978.047
  22035050.079    -6959542.875 5  -5256408.01044  22035049.6924
      3091.719
  22046611.954    -8347038.414 6   2931075.16345  22046611.0754
     -2223.203
  19817453.173   -20584693.121 7 -15852746.01746  19817451.3924
        74.359
 98  6 15 22 56 29.9970000  0  6 22 06 21 03 26 23
  23430906.790     -746504.394 5   2595896.53643  23430907.7984
     -1629.703
  21722648.790     3698988.102 6   2968011.88145  21722647.8884
     -3129.250
  21126413.689   -13532717.628 6 -10393263.74846  21126412.3534
      1968.219
  22017437.665    -7052094.200 5  -5328525.88544  22017437.2084
      3078.922
  22059350.556    -8280100.753 6   2983234.33845  22059348.6344
     -2238.563
  19817064.314   -20586737.095 7 -15854338.72846  19817062.2394
        62.547
 98  6 15 22 56 59.9970000  0  6 22 06 21 03 26 23
  23440234.439     -697487.143 5   2634091.72643  23440232.6344
     -1638.906
  21740534.485     3792977.839 6   3041250.55145  21740533.9114
     -3137.500
  21115201.314   -13591639.342 7 -10439176.73346  21115199.8494
      1959.125
  21999893.501    -7144290.075 5  -5400366.78044  21999892.7634
      3066.609
  22072165.806    -8212754.088 6   3035712.22845  22072163.7084
     -2252.063
  19816736.134   -20588462.503 7 -15855683.20346  19816733.8024
        51.703
 98  6 15 22 57 29.9970000  0  6 22 06 21 03 26 23
  23449613.829     -648198.538 5   2672498.39643  23449614.3564
     -1647.297
  21758467.634     3887215.892 6   3114682.70045  21758466.8374
     -3145.438
  21104038.728   -13650299.168 6 -10484885.67546  21104037.2514
      1951.219
  21982418.915    -7236121.302 5  -5471923.53445  21982417.4504
      3055.094
  22085059.087    -8145000.926 6   3088506.85145  22085057.3764
     -2265.313
  19816468.337   -20589871.194 7 -15856780.88746  19816466.1464
        41.953
 98  6 15 22 57 59.9970000  0  6 22 06 21 03 26 23
  23459041.384     -598658.719 5   2711100.73143  23459041.8644
     -1655.250
  21776447.595     3981701.795 6   3188307.98145  21776446.8454
     -3153.672
  21092923.931   -13708708.322 7 -10530399.26646  21092922.5604
      1942.578
  21965013.001    -7327592.199 5  -5543199.51545  21965012.1574
      3042.891
  22098030.134    -8076834.684 6   3141623.35645  22098029.6184
     -2279.328
  19816258.767   -20590971.277 7 -15857638.09446  19816256.9394
        31.156
 98  6 15 22 58 29.9970000  0  6 22 06 21 03 26 23
  23468511.446     -548893.029 5   2749879.08043  23468510.6264
     -1662.875
  21794473.267     4076429.115 6   3262121.40445  21794472.7394
     -3161.922
  21081856.814   -13766866.146 7 -10575717.04046  21081855.3604
      1934.188
  21947672.993    -7418712.281 5  -5614202.13245  21947671.6924
      3031.547
  22111081.243    -8008251.725 6   3195064.58545  22111079.8254
     -2293.203
  19816110.876   -20591748.906 7 -15858244.04646  19816109.0134
        20.344
 98  6 15 22 58 59.9970000  0  6 22 06 21 03 26 23
  23478024.360     -498898.767 5   2788835.58842  23478025.1344
     -1670.375
  21812548.431     4171413.618 6   3336135.22345  21812547.8104
     -3170.734
  21070839.446   -13824762.734 7 -10620831.24946  21070837.9814
      1925.328
  21930398.212    -7509493.032 5  -5684940.34445  21930398.1654
      3020.359
  22124212.353    -7939246.126 6   3248835.13545  22124211.2044
     -2307.703
  19816023.454   -20592207.522 7 -15858601.41246  19816021.2164
         9.906
 98  6 15 22 59 29.9970000  0  6 22 06 21 03 26 23
  23487583.267     -448671.186 5   2827973.83743  23487583.3374
     -1677.797
  21830677.423     4266681.697 6   3410370.00245  21830677.0134
     -3180.234
  21059874.181   -13882384.689 7 -10665731.44846  21059872.9394
      1916.484
  21913186.126    -7599938.761 5  -5755417.51545  21913184.8724
      3009.672
  22137431.806    -7869779.552 6   3302964.89545  22137430.4704
     -2323.031
  19815998.556   -20592338.374 7 -15858703.37746  19815996.4114
         -.953
 98  6 15 22 59 59.9970000  0  6 22 06 21 03 26 23
  23497183.056     -398220.817 5   2867285.76043  23497185.0954
     -1685.391
  21848861.446     4362238.489 6   3484829.75945  21848861.0014
     -3190.094
  21048959.720   -13939741.087 7 -10710424.72746  21048957.8804
      1907.547
  21896036.657    -7690064.260 5  -5825645.12745  21896035.1104
      2998.891
  22150738.603    -7799852.518 6   3357453.43945  22150737.3374
     -2338.516
  19816035.829   -20592141.375 7 -15858549.87846  19816033.8604
       -12.000
 98  6 15 23  0 29.9970000  0  6 22 06 21 03 26 23
  23506825.532     -347549.619 4   2906769.72043  23506826.4704
     -1692.844
  21867101.009     4458085.242 6   3559515.43445  21867100.0834
     -3199.719
  21038093.228   -13996844.968 7 -10754921.24046  21038091.8924
      1899.234
  21878945.649    -7779878.740 5  -5895630.39945  21878944.4894
      2988.656
  22164130.603    -7729474.343 5   3412293.53845  22164130.5094
     -2353.313
  19816133.571   -20591629.299 7 -15858150.86146  19816131.7084
       -22.203
 98  6 15 23  0 59.9960000  0  7 22 06 21 03 26 23 01
  23516510.262     -296655.752 4   2946427.18743  23516511.5164
     -1700.516
  21885394.832     4554219.640 6   3634425.24845  21885393.5554
     -3209.563
  21027275.809   -14053690.710 6 -10799216.60046  21027274.6024
      1890.406
  21861915.004    -7869374.116 5  -5965367.01645  21861914.6644
      2977.500
  22177606.957    -7658653.678 6   3467478.40445  22177606.6414
     -2368.453
  19816289.465   -20590810.658 7 -15857512.96046  19816287.6844
       -32.625
  23138234.598      -89485.68013
      3889.781
 98  6 15 23  1 29.9960000  0  7 22 06 21 03 26 23 01
  23526237.543     -245540.319 4   2986257.34043  23526238.7274
     -1706.859
  21903740.543     4650626.026 6   3709546.99945  21903739.5704
     -3217.156
  21016504.410   -14110293.422 6 -10843322.59346  21016502.9104
      1883.500
  21844946.777    -7958540.476 5  -6034847.26145  21844946.8714
      2966.938
  22191167.121    -7587398.940 6   3523001.53445  22191166.8524
     -2381.297
  19816501.770   -20589694.491 7 -15856643.22346  19816499.7774
       -41.406
  23116031.918     -206157.717 4
      3888.672
 98  6 15 23  1 59.9960000  0  7 22 06 21 03 26 23 01
  23536004.199     -194217.376 4   3026249.13643  23536004.5634
     -1714.531
  21922130.231     4747267.350 6   3784851.81945  21922129.3634
     -3225.172
  21005776.332   -14166670.588 6 -10887252.83146  21005775.0314
      1875.094
  21828044.113    -8047363.611 5  -6104060.06245  21828043.2234
      2954.703
  22204801.723    -7515749.247 6   3578832.40645  22204801.2774
     -2395.000
  19816766.176   -20588304.199 7 -15855559.88146  19816764.2894
       -50.969
  23093840.238     -322782.052 4    -18168.89053  23093842.2424
      3886.328
 98  6 15 23  2 29.9960000  0  7 22 06 21 03 26 23 01
  23545814.285     -142662.400 4   3066421.73843  23545815.0594
     -1721.953
  21940563.918     4844137.836 5   3860335.22445  21940562.4774
     -3232.313
  20995097.848   -14222787.324 6 -10930980.12946  20995096.4064
      1866.406
  21811213.613    -8135811.769 6  -6172980.66345  21811211.6214
      2942.188
  22218513.723    -7443691.816 6   3634981.04145  22218513.2074
     -2408.297
  19817084.434   -20586632.544 7 -15854257.29246  19817082.6524
       -59.984
  23071662.254     -439325.771 5   -108981.98743  23071663.2384
      3883.797
 98  6 15 23  2 59.9960000  0  6 06 21 03 26 23 01
  21959036.863     4941214.949 6   3935979.62445  21959036.1024
     -3239.125
  20984468.543   -14278642.860 6 -10974503.90446  20984467.2074
      1857.734
  21794454.371    -8223884.359 6  -6241608.63545  21794452.3794
      2929.484
  22232300.285    -7371243.120 6   3691434.50945  22232299.7234
     -2421.219
  19817452.668   -20584697.022 7 -15852749.09746  19817451.0044
       -68.641
  23049496.949     -555806.583 5   -199746.09343  23049499.1764
      3882.031
 98  6 15 23  3 29.9960000  0  6 06 21 03 26 23 01
  21977550.387     5038498.128 6   4011784.59745  21977549.6604
     -3246.172
  20973890.254   -14334233.642 7 -11017821.36346  20973889.2114
      1848.813
  21777769.324    -8311560.117 6  -6309927.37845  21777769.0784
      2916.000
  22246161.184    -7298404.125 6   3748192.11445  22246160.7154
     -2434.219
  19817872.426   -20582490.855 7 -15851030.01146  19817870.8674
       -77.984
  23027340.840     -672233.578 5   -290468.25943  23027341.6024
      3880.063
 98  6 15 23  3 59.9960000  0  6 06 21 03 26 23 01
  21996103.410     5135994.845 5   4087755.95245  21996102.8954
     -3253.609
  20963361.324   -14389561.937 7 -11060934.30546  20963359.9534
      1839.813
  21761159.566    -8398847.758 6  -6377943.68245  21761158.5004
      2903.359
  22260094.902    -7225180.221 6   3805249.68445  22260093.7664
     -2447.281
  19818344.535   -20580010.395 7 -15849097.18946  19818342.7194
       -87.297
  23005197.223     -788597.183 5   -381141.01343  23005197.6914
      3877.531
 98  6 15 23  4 29.9960000  0  6 06 21 03 26 23 01
  22014697.598     5233711.345 5   4163898.59145  22014697.2464
     -3261.094
  20952881.395   -14444638.025 7 -11103850.70946  20952879.7664
      1831.844
  21744619.074    -8485766.001 6  -6445672.15145  21744617.4104
      2891.188
  22274100.285    -7151583.152 6   3862598.00445  22274098.6214
     -2459.359
  19818867.184   -20577264.429 7 -15846957.47746  19818865.3094
       -96.063
  22983066.488     -904895.169 5   -471762.71643  22983068.0234
      3875.703
 98  6 15 23  4 59.9960000  0  6 06 21 03 26 23 01
  22033339.504     5331672.939 5   4240232.16345  22033339.8444
     -3269.844
  20942447.895   -14499462.710 7 -11146571.22546  20942446.7344
      1822.969
  21728149.481    -8572314.578 6  -6513112.56145  21728148.8714
      2878.656
  22288176.332    -7077611.309 6   3920238.34645  22288175.8754
     -2472.250
  19819444.645   -20574228.894 7 -15844592.13946  19819442.9814
      -106.531
  22960945.887    -1021132.606 5   -562337.18843  22960947.4924
      3873.281
 98  6 15 23  5 29.9960000  0  6 06 21 03 26 23 01
  22052030.285     5429891.400 6   4316765.92645  22052029.6764
     -3278.094
  20932065.121   -14554025.710 7 -11189087.82646  20932063.6914
      1814.500
  21711750.566    -8658492.242 6  -6580263.96145  21711749.2774
      2866.703
  22302326.793    -7003253.343 6   3978179.58545  22302325.4344
     -2484.953
  19820082.527   -20570877.646 7 -15841980.77546  19820080.4064
      -116.797
  22938842.379    -1137293.636 5   -652852.11343  22938841.8984
      3870.781
 98  6 15 23  5 59.9960000  0  6 06 21 03 26 23 01
  22070766.168     5528350.986 6   4393487.56645  22070765.1954
     -3286.922
  20921728.660   -14608343.951 7 -11231413.71046  20921727.3594
      1805.438
  21695415.809    -8744330.832 6  -6647151.14145  21695414.7194
      2854.656
  22316549.684    -6928515.979 6   4036416.46045  22316547.5864
     -2498.813
  19820776.231   -20567232.276 7 -15839140.23246  19820774.3444
      -127.500
  22916750.996    -1253384.925 5   -743312.71444  22916751.5474
      3867.516
 98  6 15 23  6 29.9960000  0  6 06 21 03 26 23 01
  22089552.699     5627075.559 5   4470415.69745  22089551.7154
     -3294.797
  20911446.410   -14662377.597 7 -11273517.83646  20911444.9574
      1796.531
  21679153.481    -8829790.319 6  -6713742.91945  21679152.2384
      2842.391
  22330853.262    -6853349.858 6   4094987.40845  22330851.8094
     -2512.719
  19821531.957   -20563259.548 7 -15836044.60846  19821530.1644
      -137.703
  22894678.871    -1369376.705 5   -833695.76944  22894679.3874
      3865.047
 98  6 15 23  6 59.9960000  0  6 06 21 03 26 23 01
  22108382.418     5726023.146 5   4547517.60945  22108381.3404
     -3301.734
  20901214.129   -14716147.226 7 -11315416.23746  20901212.6524
      1788.063
  21662961.551    -8914881.133 6  -6780047.40145  21662960.3204
      2830.125
  22345236.379    -6777761.276 6   4153887.52945  22345236.0514
     -2526.563
  19822346.207   -20558980.759 7 -15832710.48146  19822344.4734
      -147.500
  22872619.738    -1485295.502 5   -924021.95144  22872620.1024
      3862.656
 98  6 15 23  7 29.9960000  0  6 06 21 03 26 23 01
  22127249.668     5825170.800 5   4624775.41445  22127249.5514
     -3308.109
  20891028.285   -14769675.445 7 -11357126.50846  20891026.8914
      1780.547
  21646840.629    -8999595.239 6  -6846058.37745  21646839.7034
      2817.328
  22359698.207    -6701764.093 6   4213106.06345  22359697.7034
     -2539.953
  19823213.145   -20554424.882 7 -15829160.45646  19823210.9414
      -156.250
  22850576.043    -1601135.980 5  -1014287.12544  22850577.0274
      3859.891
 98  6 15 23  7 59.9960000  0  6 06 21 03 26 23 01
  22146152.434     5924507.109 5   4702180.22345  22146151.2624
     -3314.734
  20880882.738   -14822987.628 7 -11398668.46246  20880881.0274
      1773.125
  21630792.824    -9083926.658 6  -6911771.13045  21630792.2504
      2804.109
  22374235.262    -6625373.417 6   4272631.23845  22374234.5354
     -2553.203
  19824128.402   -20549614.706 7 -15825412.26746  19824126.7034
      -165.047
  22828548.223    -1716889.970 5  -1104484.91844  22828548.7384
      3856.484
 98  6 15 23  8 29.9960000  0  6 06 21 03 26 23 01
  22165096.121     6024053.101 5   4779748.39345  22165095.2424
     -3321.609
  20870782.707   -14876066.327 7 -11440028.45546  20870781.3364
      1765.734
  21614824.770    -9167838.261 6  -6977156.75945  21614823.9024
      2790.078
  22388848.863    -6548580.767 6   4332469.61745  22388847.8444
     -2566.031
  19825096.231   -20544530.717 7 -15821450.72046  19825094.7194
      -173.719
  22806542.238    -1832529.111 5  -1194593.18444  22806543.2934
      3852.797
 98  6 15 23  8 59.9960000  0  6 06 21 03 26 23 01
  22184079.785     6123810.024 5   4857480.92245  22184078.7544
     -3328.938
  20860723.020   -14928929.674 7 -11481220.65846  20860721.8244
      1758.453
  21598936.691    -9251331.543 6  -7042216.43645  21598935.1804
      2776.297
  22403531.770    -6471419.884 6   4392594.93245  22403530.7384
     -2577.734
  19826113.176   -20539185.591 7 -15817285.69146  19826111.6174
      -182.453
  22784560.223    -1948047.663 5  -1284607.53244  22784560.8204
      3848.656
 98  6 15 23  9 29.9960000  0  6 06 21 03 26 23 01
  22203106.981     6223799.070 5   4935394.35445  22203105.8094
     -3336.813
  20850708.074   -14981558.353 7 -11522229.99546  20850706.1884
      1750.203
  21583128.293    -9334406.221 6  -7106949.91745  21583127.1564
      2762.234
  22418282.996    -6393903.341 6   4452997.38445  22418281.7314
     -2589.891
  19827181.340   -20533571.589 7 -15812911.14446  19827179.7234
      -191.672
  22762603.106    -2063436.616 5  -1374520.82044  22762603.7154
      3844.250
 98  6 15 23  9 59.9960000  0  6 06 21 03 26 23 01
  22222179.465     6324027.507 5   5013494.30045  22222177.7774
     -3345.594
  20840742.856   -15033924.750 7 -11563034.96046  20840741.2274
      1740.141
  21567399.082    -9417062.885 6  -7171357.67545  21567398.3564
      2747.703
  22433103.238    -6316017.932 6   4513687.24245  22433101.7034
     -2603.016
  19828303.168   -20527676.213 7 -15808317.34446  19828301.4814
      -201.953
  22740668.520    -2178701.104 5  -1464337.18745  22740668.5314
      3839.594
 98  6 15 23 10 29.9960000  0  6 06 21 03 26 23 01
  22241298.301     6424496.792 5   5091781.92245  22241297.0124
     -3352.828
  20830835.074   -15085992.069 7 -11603606.86746  20830833.1994
      1730.531
  21551750.199    -9499297.947 6  -7235436.91045  21551749.1454
      2734.219
  22447997.816    -6237749.462 5   4574675.59645  22447997.5234
     -2615.266
  19829481.754   -20521483.870 7 -15803492.14546  19829479.9494
      -211.297
  22718757.309    -2293844.741 5  -1554059.34045  22718758.1414
      3836.109
 98  6 15 23 10 59.9960000  0  6 06 21 03 26 23 01
  22260456.902     6525179.939 5   5170236.19344  22260456.2464
     -3359.469
  20820984.223   -15137758.349 7 -11643944.21546  20820982.5944
      1720.391
  21536178.129    -9581128.217 6  -7299200.72345  21536176.6764
      2721.109
  22462962.113    -6159112.960 6   4635950.75545  22462961.4344
     -2627.438
  19830714.965   -20515002.742 7 -15798441.91846  19830713.1844
      -220.859
  22696866.285    -2408880.581 5  -1643697.52945  22696868.0554
      3832.953
 98  6 15 23 11 29.9960000  0  6 06 21 03 26 23 01
  22279653.879     6626060.973 5   5248844.68844  22279654.5354
     -3365.656
  20811191.691   -15189217.505 7 -11684042.25046  20811189.9924
      1710.625
  21520683.223    -9662557.293 6  -7362651.93245  21520681.9344
      2707.656
  22477997.879    -6080093.579 5   4697524.25645  22477996.8954
     -2640.313
  19832005.027   -20508223.960 7 -15793159.75246  19832003.1064
      -230.828
  22674993.910    -2523818.187 5  -1733259.14745  22674994.6954
      3829.578
 98  6 15 23 11 59.9960000  0  6 06 21 03 26 23 01
  22298885.566     6727118.113 5   5327590.36244  22298884.7344
     -3371.766
  20801452.621   -15240398.464 7 -11723923.49446  20801451.0514
      1701.219
  21505261.926    -9743593.560 6  -7425797.04645  21505261.0354
      2694.453
  22493107.598    -6000697.385 6   4759391.36345  22493106.2854
     -2653.000
  19833351.106   -20501151.404 7 -15787648.66946  19833349.2424
      -241.016
  22653141.871    -2638649.411 5  -1822737.95345  22653143.2894
      3825.469
 98  6 15 23 12 29.9960000  0  6 06 21 03 26 23 01
  22318147.527     6828344.163 5   5406467.66744  22318147.6214
     -3377.344
  20791762.356   -15291318.816 7 -11763601.69646  20791760.7274
      1693.109
  21489914.895    -9824244.013 6  -7488641.52345  21489913.1954
      2681.672
  22508283.535    -5920940.449 5   4821539.61145  22508282.8444
     -2664.594
  19834753.238   -20493781.957 7 -15781906.24946  19834751.5744
      -250.766
  22631313.238    -2753363.587 5  -1912125.48845  22631314.6454
      3821.547
 98  6 15 23 12 59.9960000  0  6 06 21 03 26 23 01
  22337447.441     6929764.435 5   5485496.31745  22337446.0354
     -3383.813
  20782120.785   -15341986.099 7 -11803082.66646  20782119.2154
      1685.047
  21474643.856    -9904493.007 6  -7551173.18445  21474643.2704
      2668.484
  22523529.582    -5840823.845 5   4883968.04245  22523529.4184
     -2676.375
  19836213.645   -20486107.298 7 -15775925.99646  19836212.1804
      -260.641
  22609509.090    -2867941.772 5  -2001407.07945  22609509.4774
      3817.203
 98  6 15 23 13 29.9960000  0  6 06 21 03 26 23 01
  22356786.121     7031386.042 5   5564681.86145  22356785.6174
     -3390.766
  20772523.895   -15392418.816 7 -11842380.87946  20772522.1844
      1677.359
  21459448.848    -9984345.111 6  -7613395.57345  21459447.7814
      2655.125
  22538842.082    -5760355.123 5   4946670.88745  22538843.1254
     -2687.938
  19837729.551   -20478141.256 7 -15769718.69446  19837727.5474
      -270.109
  22587732.137    -2982382.070 5  -2090581.20544  22587732.9694
      3812.297
 98  6 15 23 13 59.9960000  0  6 06 21 03 26 23 01
  22376163.816     7133216.486 5   5644030.09945  22376163.5124
     -3397.672
  20762972.254   -15442611.774 7 -11881492.25546  20762970.8834
      1668.953
  21444329.301   -10063794.756 6  -7675304.36345  21444327.8714
      2641.641
  22554220.691    -5679544.156 5   5009640.42145  22554221.0314
     -2699.234
  19839297.449   -20469902.876 7 -15763299.18846  19839295.4574
      -278.781
  22565981.473    -3096678.771 5  -2179643.43844  22565981.3564
      3807.828
 98  6 15 23 14 29.9960000  0  6 06 21 03 26 23 01
  22395580.988     7235256.291 5   5723541.49344  22395580.3794
     -3405.063
  20753469.504   -15492549.171 7 -11920404.49646  20753467.9454
      1660.031
  21429290.559   -10142829.494 6  -7736889.82545  21429288.7074
      2627.156
  22569662.949    -5598394.197 5   5072874.10045  22569662.0474
     -2711.016
  19840912.098   -20461415.959 7 -15756686.01246  19840910.2934
      -286.969
  22544256.504    -3210846.133 5  -2268604.90844  22544257.0314
      3803.188
 98  6 15 23 14 59.9960000  0  6 06 21 03 26 23 01
  22415039.059     7337510.925 5   5803220.29044  22415037.7114
     -3411.641
  20744018.949   -15542211.603 7 -11959102.47446  20744017.4734
      1650.922
  21414334.871   -10221420.107 6  -7798129.25145  21414333.3834
      2612.281
  22585174.785    -5516881.144 5   5136390.73745  22585174.6334
     -2723.125
  19842572.824   -20452689.471 7 -15749886.16246  19842571.3244
      -294.719
  22522559.012    -3324868.509 5  -2357453.39345  22522560.9924
      3798.375
 98  6 15 23 15 29.9960000  0  6 06 21 03 26 23 01
  22434532.309     7439943.355 5   5883037.61744  22434528.9454
     -3417.156
  20734618.168   -15591613.431 7 -11997597.38346  20734616.9614
      1642.344
  21399463.566   -10299569.063 6  -7859024.52145  21399461.6454
      2597.500
  22600753.590    -5435010.083 5   5200186.32044  22600753.1804
     -2735.016
  19844276.418   -20443736.782 7 -15742910.04546  19844274.9304
      -302.203
  22500886.754    -3438753.929 5  -2446195.15945  22500886.8014
      3793.938
 98  6 15 23 15 59.9960000  0  6 06 21 03 26 23 01
  22454053.152     7542531.000 5   5962975.89944  22454054.4774
     -3422.500
  20725267.121   -15640753.328 7 -12035888.18746  20725265.6334
      1633.109
  21384678.223   -10377266.357 6  -7919567.83945  21384677.0044
      2581.813
  22616401.301    -5352783.004 5   5264259.34644  22616400.3874
     -2747.344
  19846023.246   -20434558.029 7 -15735757.77946  19846021.6174
      -310.391
  22479239.504    -3552508.684 5  -2534835.11845  22479240.1844
      3789.078
 98  6 15 23 16 29.9960000  0  6 06 21 03 26 23 01
  22473602.598     7645261.931 5   6043025.81544  22473601.5784
     -3427.156
  20715964.543   -15689639.644 7 -12073981.39846  20715963.0664
      1625.031
  21369978.715   -10454510.461 6  -7979758.03745  21369977.8364
      2567.016
  22632114.754    -5270205.440 5   5328605.45844  22632114.2624
     -2758.797
  19847815.145   -20425141.544 7 -15728420.25946  19847813.3524
      -318.531
  22457619.426    -3666130.221 5  -2623371.24645  22457620.0944
      3784.609
 98  6 15 23 16 59.9960000  0  6 06 21 03 26 23 01
  22493177.723     7748128.010 5   6123181.01745  22493177.8984
     -3431.156
  20706707.176   -15738288.287 7 -12111889.41246  20706706.0984
      1617.781
  21355363.402   -10531315.908 6  -8039606.40545  21355361.2344
      2552.938
  22647893.176    -5187292.511 5   5393212.85544  22647893.3874
     -2769.141
  19849656.184   -20415466.034 7 -15720880.91646  19849654.2274
      -327.063
  22436023.301    -3779614.301 5  -2711800.28745  22436023.8054
      3780.547
 98  6 15 23 17 29.9960000  0  6 06 21 03 26 23 01
  22512782.223     7851148.212 5   6203456.37144  22512783.8164
     -3436.453
  20697495.543   -15786694.449 7 -12149608.48646  20697493.9494
      1609.625
  21340830.598   -10607683.434 6  -8099113.54045  21340828.6884
      2538.672
  22663733.082    -5104053.733 5   5458074.19744  22663732.1094
     -2779.594
  19851550.637   -20405512.047 7 -15713124.57146  19851548.6454
      -336.000
  22414454.215    -3892961.559 5  -2800122.72845  22414455.2114
      3776.406
 98  6 15 23 17 59.9960000  0  6 06 21 03 26 23 01
  22532414.535     7954318.020 5   6283848.26544  22532414.0204
     -3442.125
  20688329.645   -15834862.621 7 -12187142.10746  20688328.4614
      1601.234
  21326376.363   -10683641.610 6  -8158301.69745  21326375.0984
      2524.859
  22679629.191    -5020519.223 5   5523165.98944  22679627.5274
     -2789.844
  19853492.301   -20395308.403 7 -15705173.69146  19853490.6134
      -344.703
  22392904.520    -4006202.564 5  -2888362.36545  22392905.0704
      3772.500
 98  6 15 23 18 29.9960000  0  6 06 21 03 26 23 01
  22552084.395     8057676.684 5   6364387.35644  22552086.3754
     -3448.563
  20679213.457   -15882767.140 7 -12224470.29246  20679212.0864
      1592.234
  21312003.285   -10759175.807 6  -8217159.48345  21312001.8674
      2510.531
  22695586.176    -4936665.753 5   5588506.32245  22695585.8134
     -2800.578
  19855486.637   -20384828.667 7 -15697007.67246  19855485.0434
      -354.094
  22371379.981    -4119314.720 5  -2976501.58845  22371380.3324
      3768.063
 98  6 15 23 18 59.9960000  0  6 06 21 03 26 23 01
  22571786.121     8161211.018 5   6445063.28844  22571785.3364
     -3453.797
  20670146.043   -15930419.792 7 -12261602.21046  20670144.4844
      1584.375
  21297709.488   -10834289.584 6  -8275689.67045  21297708.3054
      2496.766
  22711601.574    -4852502.056 5   5654088.35644  22711601.5984
     -2810.516
  19857530.566   -20374086.428 7 -15688637.10346  19857529.0204
      -362.063
  22349878.035    -4232305.304 5  -3064546.10345  22349878.3754
      3764.500
 98  6 15 23 19 29.9960000  0  6 06 21 03 26 23 01
  22591522.559     8264927.060 5   6525880.78345  22591522.9224
     -3460.484
  20661128.332   -15977805.087 7 -12298525.80546  20661126.7504
      1574.703
  21283500.707   -10908957.002 6  -8333872.05245  21283499.5704
      2480.969
  22727679.590    -4768012.970 5   5719923.93144  22727679.8594
     -2822.094
  19859624.363   -20363084.951 7 -15680064.53346  19859622.7464
      -371.438
  22328402.668    -4345161.864 5  -3152486.15045  22328403.4184
      3759.094
 98  6 15 23 19 59.9960000  0  6 06 21 03 26 23 01
  22611292.051     8368816.821 5   6606833.69044  22611292.0744
     -3465.969
  20652160.191   -16024931.921 7 -12335248.00246  20652159.0084
      1566.813
  21269378.996   -10983164.526 6  -8391696.06545  21269377.5314
      2465.750
  22743820.106    -4683196.277 5   5786014.80744  22743820.2344
     -2832.656
  19861769.988   -20351809.384 7 -15671278.38246  19861768.2424
      -380.781
  22306956.410    -4457861.706 5  -3240304.10545  22306957.4414
      3753.641
 98  6 15 23 20 29.9960000  0  6 06 21 03 26 23 01
  22631090.957     8472865.035 5   6687910.05443  22631092.1644
     -3470.594
  20643235.762   -16071832.146 7 -12371793.62246  20643234.3794
      1559.859
  21255345.613   -11056908.954 6  -8449159.23445  21255344.6294
      2450.547
  22760018.785    -4598071.515 5   5852345.74845  22760018.9384
     -2842.281
  19863969.113   -20340252.263 7 -15662272.84146  19863967.4024
      -389.688
  22285543.926    -4570386.693 5  -3327985.80945  22285543.7974
      3747.828
 98  6 15 23 20 59.9960000  0  6 06 21 03 26 23 01
  22650919.637     8577062.237 5   6769102.51844  22650921.2194
     -3475.922
  20634351.082   -16118519.180 7 -12408173.11346  20634349.9104
      1552.578
  21241401.012   -11130189.067 6  -8506260.59845  21241400.3564
      2434.781
  22776274.551    -4512643.877 5   5918912.68044  22776274.4104
     -2852.750
  19866219.957   -20328425.234 7 -15653056.98546  19866218.1064
      -398.719
  22264168.762    -4682715.241 5  -3415514.43445  22264168.4104
      3740.828
 98  6 15 23 21 29.9960000  0  6 06 21 03 26 23 01
  22670777.184     8681411.099 5   6850413.14944  22670777.5354
     -3480.719
  20625507.645   -16164993.140 7 -12444386.57346  20625506.3794
      1545.641
  21227544.910   -11203004.828 6  -8563000.10745  21227543.6334
      2419.578
  22792587.316    -4426919.120 5   5985711.14944  22792586.7544
     -2862.344
  19868519.793   -20316338.566 7 -15643638.81246  19868518.0004
      -407.141
  22242831.262    -4794842.178 5  -3502886.00645  22242830.9224
      3734.203
 98  6 15 23 21 59.9960000  0  6 06 21 03 26 23 01
  22690661.981     8785900.094 5   6931832.96844  22690661.8874
     -3485.344
  20616704.910   -16211252.023 7 -12480432.44746  20616703.5744
      1537.984
  21213776.129   -11275362.208 6  -8619382.46445  21213774.3014
      2404.125
  22808957.801    -4340893.369 5   6052744.12744  22808957.2854
     -2872.859
  19870868.332   -20303998.944 7 -15634023.53446  19870866.3054
      -415.438
  22221532.715    -4906762.902 5  -3590096.82145  22221532.4224
      3727.156
 98  6 15 23 22 29.9960000  0  6 06 21 03 26 23 01
  22710567.473     8890512.773 5   7013349.14243  22710568.3524
     -3488.844
  20607946.418   -16257279.217 7 -12516297.77046  20607945.0354
      1530.281
  21200093.613   -11347263.079 6  -8675409.09145  21200091.9384
      2389.234
  22825388.574    -4254552.053 5   6120023.07744  22825388.0824
     -2883.469
  19873258.691   -20291436.191 7 -15624234.38246  19873256.4774
      -422.125
  22200271.660    -5018492.495 6  -3677158.74845  22200271.6724
      3721.359
 98  6 15 23 22 59.9960000  0  6 06 21 03 26 23 01
  22730496.379     8995236.497 5   7094951.86143  22730497.7854
     -3492.781
  20599234.551   -16303059.421 7 -12551970.64446  20599233.1914
      1521.516
  21186497.715   -11418708.286 6  -8731080.66345  21186495.9224
      2373.531
  22841882.051    -4167874.851 5   6187563.66943  22841880.3284
     -2894.984
  19875689.129   -20278664.187 7 -15614282.18246  19875686.9384
      -429.500
  22179044.731    -5130042.468 6  -3764080.68545  22179044.3914
      3715.344
 98  6 15 23 23 29.9960000  0  6 06 21 03 26 23 01
  22750446.121     9100073.337 5   7176642.71344  22750446.7544
     -3496.328
  20590574.934   -16348567.698 7 -12587431.62046  20590573.2234
      1512.469
  21172992.426   -11489679.488 6  -8786382.86945  21172991.1844
      2357.953
  22858440.496    -4080862.058 5   6255365.84044  22858440.3094
     -2905.969
  19878162.379   -20265666.238 7 -15604153.92346  19878160.4924
      -436.984
  22157850.606    -5241419.314 6  -3850867.74445  22157850.1954
      3709.813
 98  6 15 23 23 59.9960000  0  6 06 21 03 26 23 01
  22770414.895     9205004.779 5   7258407.22143  22770415.3874
     -3499.484
  20581963.254   -16393820.521 7 -12622693.54246  20581962.0124
      1504.297
  21159572.590   -11560200.636 6  -8841334.39445  21159570.5744
      2343.297
  22875059.707    -3993528.816 5   6323417.66643  22875058.1844
     -2916.234
  19880676.379   -20252455.958 7 -15593860.19946  19880674.6214
      -443.859
  22136685.496    -5352641.127 6  -3937533.97945  22136684.8524
      3704.938
 98  6 15 23 24 29.9960000  0  6 06 21 03 26 23 01
  22790404.856     9310057.321 4   7340266.16043  22790406.5664
     -3504.016
  20573399.645   -16438824.069 7 -12657761.23946  20573397.7704
      1496.047
  21146238.066   -11630275.078 6  -8895937.84645  21146236.5784
      2328.438
  22891735.387    -3905897.508 5   6391701.71943  22891734.5784
     -2925.672
  19883231.379   -20239028.620 7 -15583397.34646  19883229.6454
      -451.375
  22115550.121    -5463708.223 6  -4024079.68045  22115549.8054
      3699.484
 98  6 15 23 24 59.9960000  0  6 06 21 03 26 23 01
  22810423.457     9415255.791 5   7422238.84743  22810424.5004
     -3509.750
  20564881.590   -16483586.120 7 -12692640.74046  20564879.9734
      1487.703
  21132987.215   -11699906.717 6  -8950196.25345  21132985.4574
      2313.219
  22908461.543    -3817996.733 5   6460195.81043  22908461.4264
     -2934.656
  19885830.277   -20225370.014 7 -15572754.28746  19885828.3564
      -459.578
  22094446.152    -5574605.792 6  -4110493.27845  22094446.3404
      3693.391
 98  6 15 23 25 29.9960000  0  6 06 21 03 26 23 01
  22830474.621     9520617.570 5   7504338.69944  22830475.9454
     -3514.750
  20556407.965   -16528113.464 7 -12727337.37246  20556406.4414
      1480.531
  21119821.106   -11769092.672 6  -9004107.34645  21119820.4264
      2298.875
  22925236.809    -3729844.507 5   6528885.81344  22925238.1804
     -2942.656
  19888473.996   -20211479.335 7 -15561930.38246  19888472.1914
      -466.859
  22073375.887    -5685332.392 6  -4196773.67145  22073375.5824
      3687.922
 98  6 15 23 25 59.9960000  0  6 06 21 03 26 23 01
  22850555.793     9626147.213 5   7586569.39843  22850557.3524
     -3519.859
  20547978.426   -16572411.530 7 -12761855.33046  20547976.9734
      1473.344
  21106742.168   -11837828.916 6  -9057668.04445  21106741.1954
      2284.156
  22942062.129    -3641430.021 5   6597780.15344  22942061.1914
     -2950.797
  19891162.699   -20197350.292 7 -15550920.75246  19891160.7074
      -474.391
  22052341.020    -5795870.753 6  -4282907.37445  22052340.6094
      3681.969
 98  6 15 23 26 29.9960000  0  6 06 21 03 26 23 01
  22870667.715     9731831.165 5   7668920.30843  22870668.4774
     -3525.141
  20539591.496   -16616486.575 7 -12796199.51646  20539589.7274
      1465.375
  21093748.324   -11906111.026 6  -9110874.86645  21093746.8954
      2268.266
  22958933.910    -3552768.030 5   6666867.40143  22958931.3444
     -2959.813
  19893896.270   -20182983.839 7 -15539726.12646  19893894.6644
      -483.031
  22031342.731    -5906220.451 6  -4368894.06245  22031342.3204
      3674.938
 98  6 15 23 26 59.9960000  0  6 06 21 03 26 23 01
  22890803.238     9837645.251 5   7751372.67243  22890804.1174
     -3529.203
  20531248.902   -16660326.918 7 -12830360.80846  20531247.3094
      1457.063
  21080844.988   -11973920.305 6  -9163713.24045  21080843.2664
      2252.250
  22975858.473    -3463826.867 5   6736172.17544  22975857.6414
     -2969.688
  19896677.996   -20168366.229 7 -15528335.78446  19896676.1914
      -491.594
  22010382.996    -6016363.310 6  -4454719.56945  22010382.5164
      3667.875
 98  6 15 23 27 29.9960000  0  6 06 21 03 26 23 01
  22910958.473     9943566.066 4   7833908.10242  22910959.7274
     -3532.109
  20522953.715   -16703918.352 7 -12864328.14446  20522952.0864
      1448.797
  21068031.020   -12041255.574 6  -9216182.26745  21068030.0944
      2236.688
  22992839.590    -3374591.723 5   6805705.96644  22992839.4734
     -2979.438
  19899507.465   -20153496.938 7 -15516749.32646  19899505.7894
      -499.781
  21989463.738    -6126295.219 6  -4540380.69445  21989463.6454
      3660.750
 98  6 15 23 27 59.9960000  0  6 06 21 03 26 23 01
  22931132.246    10049577.822 4   7916514.47443  22931132.8444
     -3534.828
  20514708.629   -16747244.603 7 -12898088.85746  20514707.2584
      1440.250
  21055309.074   -12108112.844 6  -9268278.82345  21055306.9414
      2221.000
  23009877.465    -3285054.908 5   6875474.89443  23009877.1134
     -2988.891
  19902385.082   -20138375.127 7 -15504966.10446  19902383.7234
      -507.594
  21968586.379    -6236004.021 6  -4625867.98145  21968586.0044
      3653.813
 98  6 15 23 28 29.9960000  0  6 06 21 03 26 23 01
  22951319.277    10155662.595 4   7999177.64043  22951321.4694
     -3536.953
  20506511.535   -16790321.589 7 -12931655.32146  20506509.8014
      1432.063
  21042673.527   -12174509.592 6  -9320016.53345  21042671.9344
      2205.891
  23026967.316    -3195248.203 5   6945454.08543  23026966.9414
     -2997.859
  19905303.770   -20123037.293 7 -15493014.55546  19905302.3164
      -514.391
  21947745.965    -6345520.023 6  -4711205.03445  21947746.3284
      3647.750
 98  6 15 23 28 59.9960000  0  6 06 21 03 26 23 01
  22971521.356    10261818.299 4   8081896.16743  22971523.7934
     -3540.391
  20498361.926   -16833148.263 7 -12965026.74146  20498360.5434
      1422.922
  21030127.559   -12240439.788 6  -9371390.70245  21030126.2704
      2189.172
  23044108.457    -3105170.721 5   7015644.26343  23044107.6374
     -3007.313
  19908261.402   -20107495.420 7 -15480904.00946  19908259.7624
      -521.969
  21926940.699    -6454849.571 6  -4796396.79945  21926940.0084
      3640.734
 98  6 15 23 29 29.9960000  0  6 06 21 03 26 23 01
  22991739.879    10368065.032 4   8164685.59443  22991741.0514
     -3543.422
  20490258.270   -16875733.945 7 -12998210.37546  20490256.5704
      1415.656
  21017675.191   -12305878.030 6  -9422381.51445  21017672.9414
      2172.547
  23061296.152    -3014846.518 5   7086026.70743  23061295.2154
     -3014.984
  19911257.535   -20091750.707 7 -15468635.41546  19911255.4494
      -528.328
  21906172.051    -6563992.689 6  -4881443.28145  21906171.6644
      3634.875
 98  6 15 23 29 59.9960000  0  6 06 21 03 26 23 01
  23011977.809    10474411.894 5   8247553.03343  23011978.2314
     -3546.906
  20482195.106   -16918104.587 7 -13031226.44746  20482193.5004
      1408.703
  21005320.113   -12370801.791 6  -9472971.43845  21005318.2624
      2155.281
  23078528.340    -2924295.644 5   7156585.78943  23078527.4384
     -3022.203
  19914291.152   -20075808.535 7 -15456212.95246  19914289.0664
      -534.953
  21885435.934    -6672962.036 6  -4966354.36645  21885435.7464
      3629.281
 98  6 15 23 30 29.9960000  0  6 06 21 03 26 23 01
  23032234.410    10580867.901 4   8330505.44142  23032236.8244
     -3550.203
  20474172.035   -16960268.151 7 -13064081.16246  20474170.1954
      1402.141
  20993065.152   -12435204.439 6  -9523155.29945  20993062.7974
      2138.203
  23095802.004    -2833522.140 5   7227318.34843  23095800.2934
     -3029.484
  19917364.832   -20059655.812 7 -15443626.43446  19917362.7704
      -542.047
  21864733.996    -6781750.347 6  -5051124.38845  21864733.6564
      3623.125
 98  6 15 23 30 59.9960000  0  6 06 21 03 26 23 01
  23052516.137    10687450.255 5   8413556.42442  23052517.2034
     -3554.969
  20466189.191   -17002216.323 7 -13096768.04146  20466187.2814
      1394.672
  20980912.879   -12499065.099 6  -9572916.83745  20980910.9814
      2119.672
  23113122.184    -2742507.532 5   7298238.76443  23113121.7154
     -3037.828
  19920485.629   -20043256.968 7 -15430848.13046  19920483.6484
      -550.781
  21844073.996    -6890319.009 6  -5135723.24245  21844072.7314
      3615.078
 98  6 15 23 31 29.9960000  0  5 21 03 26 23 01
  20458245.879   -17043958.758 7 -13129294.60046  20458244.1804
      1387.859
  20968858.168   -12562412.445 6  -9622278.37345  20968856.3984
      2103.453
  23130486.824    -2651260.154 5   7369340.60043  23130484.8914
     -3045.625
  19923649.488   -20026630.685 7 -15417892.59946  19923648.1064
      -557.781
  21823454.793    -6998671.915 6  -5220153.99845  21823454.2544
      3608.203
 98  6 15 23 31 59.9960000  0  5 21 03 26 23 01
  20450344.559   -17085481.324 7 -13161649.82946  20450342.8134
      1380.203
  20956894.231   -12625283.077 6  -9671268.46045  20956892.0514
      2087.875
  23147896.363    -2559768.139 5   7440633.03243  23147895.0514
     -3054.031
  19926854.473   -20009787.649 7 -15404768.16146  19926853.0314
      -565.219
  21802875.926    -7106811.359 6  -5304418.42545  21802876.1254
      3600.813
 98  6 15 23 32 29.9960000  0  5 21 03 26 23 01
  20442486.293   -17126775.016 7 -13193826.73346  20442484.3134
      1372.500
  20945018.152   -12687690.795 6  -9719897.84145  20945015.9264
      2072.406
  23165355.449    -2468018.214 5   7512126.44242  23165352.3094
     -3062.672
  19930101.309   -19992726.132 7 -15391473.47746  19930099.6804
      -572.172
  21782341.379    -7214723.653 6  -5388505.84145  21782341.5554
      3593.328
 98  6 15 23 32 59.9960000  0  5 21 03 26 23 01
  20434674.793   -17167825.149 7 -13225813.83046  20434673.3634
      1364.188
  20933234.191   -12749616.841 6  -9768151.88345  20933232.4344
      2056.156
  23182864.840    -2376004.004 5   7583825.78942  23182864.1844
     -3071.500
  19933387.363   -19975456.757 7 -15378016.84646  19933385.8524
      -578.859
  21761850.238    -7322407.978 6  -5472415.61545  21761850.1684
      3585.875
 98  6 15 23 33 29.9960000  0  5 21 03 26 23 01
  20426911.082   -17208624.565 7 -13257605.57246  20426909.3714
      1355.750
  20921541.488   -12811062.728 6  -9816031.78345  20921539.5904
      2039.813
  23200424.059    -2283732.337 5   7655725.74242  23200422.5594
     -3079.953
  19936710.543   -19957993.391 7 -15364409.03746  19936708.8914
      -585.719
  21741398.231    -7429880.366 6  -5556160.24545  21741397.9024
      3578.656
 98  6 15 23 33 59.9960000  0  5 21 03 26 23 01
  20419192.559   -17249185.650 7 -13289211.60046  20419190.9304
      1348.406
  20909944.926   -12872002.580 6  -9863517.36045  20909943.0864
      2022.859
  23218027.098    -2191224.644 5   7727809.63543  23218027.8834
     -3087.109
  19940074.074   -19940318.319 7 -15350636.27046  19940072.4924
      -592.484
  21720987.863    -7537134.125 6  -5639734.50645  21720987.3834
      3571.656
 98  6 15 23 34 29.9960000  0  5 21 03 26 23 01
  20411520.020   -17289504.195 7 -13320628.63746  20411518.8134
      1339.641
  20898448.996   -12932414.305 6  -9910591.42145  20898447.1804
      2004.906
  23235675.277    -2098486.057 5   7800073.41143  23235674.3164
     -3095.063
  19943478.379   -19922429.371 7 -15336696.84946  19943476.6334
      -599.781
  21700622.551    -7644158.491 6  -5723130.02845  21700622.1174
      3563.625
 98  6 15 23 34 59.9960000  0  5 21 03 26 23 01
  20403896.379   -17329565.752 7 -13351845.42346  20403894.5744
      1331.594
  20887053.918   -12992297.049 6  -9957253.27645  20887052.2894
      1987.766
  23253367.012    -2005515.238 5   7872518.18843  23253366.4024
     -3102.656
  19946923.715   -19904324.674 7 -15322589.31346  19946921.8284
      -606.781
  21680301.770    -7750944.075 6  -5806339.48645  21680301.4184
      3555.844
 98  6 15 23 35 29.9960000  0  5 21 03 26 23 01
  20396319.738   -17369383.011 7 -13382871.84746  20396318.2504
      1323.313
  20875755.223   -13051669.243 6 -10003517.31545  20875754.2854
      1970.688
  23271101.965    -1912315.604 5   7945141.20343  23271099.9964
     -3110.281
  19950409.613   -19886004.937 7 -15308314.21246  19950407.9024
      -614.141
  21660027.238    -7857490.032 6  -5889362.22645  21660026.6414
      3547.453
 98  6 15 23 35 59.9960000  0  5 21 03 26 23 01
  20388791.371   -17408944.503 7 -13413698.97746  20388789.5434
      1314.609
  20864556.691   -13110517.747 6 -10049373.28245  20864554.9104
      1953.328
  23288882.824    -1818874.594 4   8017952.33543  23288883.3284
     -3118.813
  19953937.988   -19867462.862 7 -15293865.85446  19953936.6174
      -621.406
  21639802.145    -7963773.506 6  -5972180.44045  21639801.3594
      3538.688
 98  6 15 23 36 29.9960000  0  5 21 03 26 23 01
  20381310.535   -17448256.442 7 -13444331.64346  20381308.8364
      1306.266
  20853450.816   -13168879.720 6 -10094850.12046  20853449.2814
      1937.328
  23306711.723    -1725183.676 5   8090958.15543  23306713.7734
     -3127.297
  19957505.238   -19848718.069 7 -15279259.53846  19957503.6454
      -628.422
  21619623.285    -8069810.908 6  -6054806.91645  21619622.7704
      3530.313
 98  6 15 23 36 59.9960000  0  5 21 03 26 23 01
  20373871.684   -17487348.070 7 -13474792.64946  20373870.2314
      1299.688
  20842435.559   -13226765.749 6 -10139956.10646  20842434.0594
      1921.406
  23324585.566    -1631257.280 5   8164147.49943  23324585.3674
     -3134.813
  19961109.746   -19829774.604 7 -15264498.41646  19961108.0944
      -634.703
  21599490.301    -8175609.070 6  -6137246.97445  21599489.7624
      3522.594
 98  6 15 23 37 29.9960000  0  5 21 03 26 23 01
  20366472.340   -17526231.087 7 -13505091.08546  20366470.9924
      1292.906
  20831513.676   -13284161.202 6 -10184679.83146  20831512.2234
      1905.328
  23342503.879    -1537097.330 5   8237518.86943  23342504.1724
     -3142.078
  19964753.270   -19810628.662 7 -15249579.51346  19964751.6064
      -641.406
  21579403.816    -8281161.610 6  -6219495.62945  21579403.8634
      3514.422
 98  6 15 23 37 59.9960000  0  4 21 03 23 01
  20359111.590   -17564911.964 7 -13535232.02246  20359109.7624
      1285.859
  20820684.082   -13341070.952 6 -10229025.08046  20820682.6644
      1888.672
  19968435.145   -19791280.083 7 -15234502.70846  19968433.5044
      -648.422
  21559365.465    -8386466.152 6  -6301551.03545  21559364.6454
      3505.906
 98  6 15 23 38 29.9960000  0  4 21 03 23 01
  20351791.746   -17603377.504 7 -13565205.16446  20351790.2934
      1278.719
  20809951.051   -13397473.736 6 -10272975.30146  20809949.7034
      1871.406
  19972157.551   -19771720.172 7 -15219261.23146  19972155.8634
      -655.297
  21539376.973    -8491506.938 6  -6383400.92045  21539376.1644
      3497.000
 98  6 15 23 38 59.9960000  0  4 21 03 23 01
  20344512.543   -17641631.874 7 -13595013.74846  20344511.1254
      1271.422
  20799319.809   -13453341.988 7 -10316508.99346  20799318.0044
      1853.094
  19975916.363   -19751967.016 7 -15203869.17746  19975914.6644
      -661.563
  21519438.012    -8596285.600 6  -6465046.55645  21519437.1914
      3488.219
 98  6 15 23 39 29.9960000  0  4 21 03 23 01
  20337276.238   -17679658.050 7 -13624644.52546  20337274.7974
      1263.469
  20788791.816   -13508667.172 7 -10359619.52546  20788790.2344
      1835.016
  19979711.051   -19732026.624 7 -15188331.22446  19979709.2814
      -667.938
  21499548.879    -8700803.128 6  -6546488.69945  21499548.4104
      3479.422
 98  6 15 23 39 59.9960000  0  4 21 03 23 01
  20330086.371   -17717441.272 7 -13654085.99646  20330084.5554
      1255.453
  20778369.691   -13563433.764 7 -10402294.78446  20778368.0864
      1816.047
  19983541.332   -19711896.946 7 -15172645.76646  19983539.8324
      -673.906
  21479710.293    -8805059.118 6  -6627727.06045  21479710.1524
      3471.047
 98  6 15 23 40 29.9960000  0  4 21 03 23 01
  20322942.348   -17754984.224 7 -13683340.23446  20322940.6254
      1247.531
  20768056.270   -13617632.526 7 -10444527.58646  20768054.5354
      1797.359
  19987406.481   -19691586.596 7 -15156819.52646  19987404.8284
      -680.109
  21459918.566    -8909059.704 6  -6708766.42145  21459919.4104
      3462.469
 98  6 15 23 40 59.9960000  0  4 21 03 23 01
  20315841.566   -17792298.142 7 -13712416.01546  20315839.8444
      1240.453
  20757846.387   -13671284.227 7 -10486334.10946  20757844.8874
      1779.922
  19991306.199   -19671093.102 7 -15140850.58146  19991304.8164
      -685.781
  21440174.613    -9012813.459 6  -6789613.44145  21440175.0124
      3454.859
 98  6 15 23 41 29.9960000  0  4 21 03 23 01
  20308781.902   -17829397.243 7 -13741324.39346  20308780.0164
      1232.797
  20747734.504   -13724422.262 7 -10527740.35846  20747732.9574
      1762.578
  19995240.129   -19650420.401 7 -15124741.99246  19995238.4534
      -692.500
  21420475.691    -9116334.475 6  -6870279.09745  21420475.4694
      3446.500
 98  6 15 23 41 59.9960000  0  4 21 03 23 01
  20301763.895   -17866275.674 7 -13770060.82946  20301762.2194
      1225.375
  20737720.473   -13777047.659 7 -10568747.15946  20737719.0204
      1745.563
  19999210.848   -19629553.921 7 -15108482.41346  19999209.1024
      -699.000
  21400822.988    -9219612.154 6  -6950755.14045  21400821.9104
      3438.266
 98  6 15 23 42 29.9960000  0  4 21 03 23 01
  20294788.723   -17902932.018 7 -13798624.20646  20294786.9654
      1218.375
  20727801.191   -13829172.950 7 -10609364.26346  20727799.5864
      1729.406
  20003218.731   -19608491.128 7 -15092069.85446  20003217.0314
      -705.281
  21381217.973    -9322637.533 6  -7031034.57245  21381216.4494
      3430.031
 98  6 15 23 42 59.9960000  0  4 21 03 23 01
  20287854.363   -17939369.750 7 -13827017.24046  20287852.9574
      1211.234
  20717978.957   -13880789.543 7 -10649584.97946  20717977.7504
      1712.000
  20007265.332   -19587225.559 7 -15075499.30046  20007263.8564
      -711.906
  21361662.379    -9425399.881 6  -7111109.06545  21361661.3954
      3421.188
 98  6 15 23 43 29.9960000  0  4 21 03 23 01
  20280961.332   -17975595.601 7 -13855245.16446  20280959.6684
      1203.953
  20708256.473   -13931881.695 7 -10689397.03446  20708255.1484
      1694.172
  20011348.691   -19565767.715 7 -15058778.90946  20011347.1914
      -718.453
  21342158.527    -9527893.514 6  -7190974.18246  21342158.1174
      3411.781
 98  6 15 23 43 59.9960000  0  4 21 03 23 01
  20274104.926   -18011625.051 7 -13883320.05646  20274103.3914
      1197.500
  20698634.434   -13982446.125 7 -10728797.88246  20698633.0514
      1676.203
  20015464.340   -19544140.646 7 -15041926.65746  20015462.7344
      -723.750
  21322704.723    -9630123.302 6  -7270633.70846  21322704.7934
      3402.984
 98  6 15 23 44 29.9960000  0  4 21 03 23 01
  20267286.504   -18047456.652 7 -13911240.77646  20267284.4654
      1191.266
  20689117.832   -14032455.356 7 -10767766.10046  20689116.6134
      1657.641
  20019610.879   -19522349.878 7 -15024946.84846  20019609.2384
      -728.906
  21303303.231    -9732078.494 6  -7350079.25746  21303303.1024
      3394.016
 98  6 15 23 44 59.9960000  0  4 21 03 23 01
  20260507.277   -18083081.039 7 -13939000.02746  20260505.7664
      1183.563
  20679712.543   -14081880.830 7 -10806279.45646  20679711.2194
      1637.438
  20023790.582   -19500385.880 7 -15007832.05946  20023789.1294
      -735.406
  21283957.152    -9833745.822 6  -7429300.50046  21283956.4734
      3383.828
 98  6 15 23 45 29.9960000  0  4 21 03 23 01
  20253768.387   -18118496.362 7 -13966596.37446  20253766.2774
      1176.969
  20670415.660   -14130736.505 7 -10844348.79546  20670413.9264
      1619.063
  20028002.332   -19478253.532 7 -14990586.08146  20028000.7504
      -740.609
  21264662.606    -9935136.926 6  -7508306.48846  21264661.4924
      3375.016
 98  6 15 23 45 59.9960000  0  4 21 03 23 01
  20247068.723   -18153702.585 7 -13994029.79946  20247066.8244
      1169.859
  20661226.910   -14179024.401 7 -10881975.72546  20661225.2464
      1600.078
  20032247.207   -19455946.013 7 -14973203.60546  20032245.8484
      -746.797
  21245421.660   -10036247.296 6  -7587093.73345  21245420.6414
      3365.391
 98  6 15 23 46 29.9960000  0  4 21 03 23 01
  20240407.621   -18188706.348 7 -14021305.43646  20240405.7234
      1163.719
  20652141.113   -14226769.879 7 -10919179.98746  20652139.2034
      1583.031
  20036526.270   -19433460.621 7 -14955682.53046  20036524.8874
      -752.203
  21226234.543   -10137074.746 6  -7665660.52446  21226234.2734
      3356.547
 98  6 15 23 46 59.9960000  0  4 21 03 23 01
  20233784.816   -18223509.436 7 -14048424.72646  20233782.9654
      1156.406
  20643153.816   -14273997.612 7 -10955980.80946  20643152.6094
      1565.531
  20040838.863   -19410798.408 7 -14938023.66746  20040837.0124
      -758.672
  21207100.520   -10237624.643 6  -7744011.03546  21207099.8524
      3346.609
 98  6 15 23 47 29.9960000  0  4 21 03 23 01
  20227203.481   -18258093.526 7 -14075373.36046  20227201.7584
      1149.125
  20634264.402   -14320711.051 7 -10992380.88446  20634263.3594
      1548.578
  20045185.981   -19387953.259 7 -14920222.26346  20045183.9534
      -764.391
  21188024.176   -10337870.901 6  -7822124.94446  21188023.6724
      3336.281
 98  6 15 23 47 59.9960000  0  4 21 03 23 01
  20220660.465   -18292478.098 7 -14102166.52846  20220658.8484
      1142.641
  20625468.879   -14366932.710 7 -11028397.74246  20625467.2854
      1532.547
  20049562.074   -19364956.932 7 -14902303.06046  20049560.2114
      -769.219
  21169003.887   -10437826.251 6  -7900012.16446  21169003.3244
      3326.984
 98  6 15 23 48 29.9960000  0  4 21 03 23 01
  20214159.316   -18326641.333 7 -14128787.22846  20214157.8984
      1135.359
  20616768.926   -14412651.196 7 -11064022.53846  20616767.7774
      1515.531
  20053969.699   -19341794.459 7 -14884254.39946  20053967.7894
      -774.578
  21150039.481   -10537485.415 6  -7977668.58546  21150039.2464
      3317.484
 98  6 15 23 48 59.9960000  0  4 21 03 23 01
  20207695.965   -18360606.712 7 -14155253.75646  20207694.6884
      1129.047
  20608164.559   -14457867.598 7 -11099256.08846  20608163.0944
      1498.922
  20058405.231   -19318484.778 7 -14866091.02746  20058403.6724
      -779.281
  21131125.176   -10636879.546 6  -8055118.50946  21131124.6374
      3308.750
 98  6 15 23 49 29.9960000  0  4 21 03 23 01
  20201271.277   -18394368.654 7 -14181561.75046  20201269.4734
      1122.359
  20599657.981   -14502571.750 7 -11134090.48346  20599656.4814
      1481.672
  20062869.801   -19295023.708 7 -14847809.67746  20062868.3244
      -784.406
  21112262.676   -10736000.380 6  -8132355.47246  21112261.7504
      3299.844
 98  6 15 23 49 59.9960000  0  4 21 03 23 01
  20194883.809   -18427934.139 7 -14207716.67246  20194882.1214
      1115.313
  20591251.145   -14546748.012 7 -11168513.53246  20591249.5984
      1463.344
  20067364.660   -19271403.174 7 -14829404.08646  20067363.0664
      -790.328
  21093450.957   -10834856.140 6  -8209385.89346  21093450.4774
      3290.469
 98  6 15 23 50 29.9960000  0  4 21 03 23 01
  20188537.551   -18461283.170 7 -14233702.93146  20188535.8634
      1108.344
  20582951.449   -14590364.076 6 -11202500.06346  20582950.0904
      1444.609
  20071893.582   -19247604.480 7 -14810859.65846  20071891.7894
      -795.813
  21074695.145   -10933417.983 6  -8286187.26246  21074694.2894
      3280.500
 98  6 15 23 50 59.9960000  0  5 09 21 03 23 01
  22953305.066      -37260.76015
      1614.766
  20182228.481   -18494438.356 7 -14259538.13746  20182226.8054
      1101.328
  20574755.699   -14633431.949 6 -11236059.44646  20574754.2584
      1426.000
  20076449.574   -19223661.695 7 -14792202.95546  20076448.0044
      -800.891
  21055995.824   -11031684.498 6  -8362758.50646  21055994.6884
      3269.922
 98  6 15 23 51 29.9960000  0  5 09 21 03 23 01
  22944120.652      -85530.964 5
      1603.625
  20175959.488   -18527382.550 7 -14285208.94246  20175957.4964
      1095.234
  20566666.363   -14675942.497 7 -11269184.53446  20566664.8524
      1408.078
  20081033.949   -19199571.766 7 -14773431.59846  20081032.2854
      -805.047
  21037357.316   -11129632.512 6  -8439081.57046  21037356.2974
      3260.125
 98  6 15 23 51 59.9960000  0  5 09 21 03 23 01
  22935000.520     -133456.120 5    -29851.53352  22935002.3134
      1591.922
  20169728.176   -18560127.292 7 -14310724.32446  20169726.1134
      1088.266
  20558685.348   -14717881.768 6 -11301864.47046  20558683.9534
      1388.438
  20085646.262   -19175333.122 7 -14754544.34846  20085644.6914
      -810.375
  21018778.832   -11227262.240 6  -8515156.62746  21018778.0004
      3249.094
 98  6 15 23 52 29.9960000  0  5 09 21 03 23 01
  22925945.840     -181040.868 5    -66930.45743  22925947.3284
      1580.359
  20163533.504   -18592680.462 7 -14336090.42646  20163532.0044
      1082.000
  20550813.785   -14759246.898 6 -11334097.02846  20550812.4144
      1369.313
  20090286.973   -19150945.796 7 -14735541.25246  20090285.6254
      -815.359
  21000259.668   -11324577.543 6  -8590986.69046  21000259.0824
      3238.688
 98  6 15 23 52 59.9960000  0  5 09 21 03 23 01
  22916957.660     -228270.246 5   -103732.48843  22916958.9384
      1568.250
  20157374.582   -18625046.217 7 -14361310.49046  20157372.9654
      1075.797
  20543052.285   -14800034.500 7 -11365879.57146  20543050.9264
      1350.047
  20094957.066   -19126403.161 7 -14716417.13546  20094955.5084
      -820.781
  20981800.598   -11421581.192 6  -8666573.89846  20981799.8364
      3228.422
 98  6 15 23 53 29.9960000  0  5 09 21 03 23 01
  22908042.926     -275121.911 5   -140240.23643  22908042.8444
      1555.094
  20151251.981   -18657219.843 7 -14386380.84046  20151250.1064
      1068.938
  20535402.301   -14840237.492 7 -11397206.57046  20535400.2034
      1329.859
  20099661.004   -19101684.460 7 -14697155.81846  20099659.5274
      -827.359
  20963401.652   -11518271.015 7  -8741916.55546  20963400.2814
      3217.375
 98  6 15 23 53 59.9960000  0  5 09 21 03 23 01
  22899198.754     -321594.331 5   -176452.47143  22899198.9774
      1543.031
  20145165.551   -18689205.748 7 -14411304.92446  20145163.9924
      1063.359
  20527863.770   -14879850.506 7 -11428073.85946  20527862.1524
      1311.109
  20104398.629   -19076787.944 7 -14677755.95146  20104397.3874
      -832.297
  20945062.012   -11614648.009 7  -8817015.45146  20945060.4304
      3207.750
 98  6 15 23 54 29.9960000  0  5 09 21 03 23 01
  22890427.965     -367685.613 5   -212367.68643  22890428.8564
      1529.406
  20139114.949   -18721002.954 7 -14436081.96046  20139113.3324
      1056.234
  20520433.559   -14918898.218 7 -11458500.64746  20520432.4224
      1291.953
  20109165.918   -19051737.425 7 -14658236.07846  20109164.5124
      -837.813
  20926779.246   -11710721.554 7  -8891877.89746  20926777.6064
      3196.922
 98  6 15 23 54 59.9960000  0  5 09 21 03 23 01
  22881731.106     -413386.546 5   -247978.76843  22881731.7034
      1516.531
  20133099.863   -18752611.423 7 -14460711.94146  20133097.9414
      1050.219
  20513106.254   -14957403.238 7 -11488504.55046  20513104.8714
      1274.438
  20113959.121   -19026549.353 7 -14638609.02846  20113957.8674
      -842.156
  20908554.481   -11806493.589 6  -8966505.40146  20908553.2034
      3187.156
 98  6 15 23 55 29.9960000  0  5 09 21 03 23 01
  22873109.676     -458689.206 5   -283279.47743  22873107.7664
      1504.031
  20127123.301   -18784018.931 7 -14485185.31346  20127121.7194
      1043.906
  20505881.481   -14995369.374 7 -11518088.56246  20505879.9344
      1256.891
  20118779.426   -19001218.047 7 -14618870.36046  20118777.8564
      -846.188
  20890386.926   -11901961.643 6  -9040896.02746  20890386.0004
      3177.641
 98  6 15 23 55 59.9960000  0  5 09 21 03 23 01
  22864562.293     -503607.061 5   -318280.33843  22864561.4494
      1490.953
  20121184.441   -18815228.321 7 -14509504.30746  20121182.7544
      1037.281
  20498758.121   -15032803.648 7 -11547258.13746  20498756.1994
      1239.328
  20123622.793   -18975766.201 7 -14599037.76446  20123621.1764
      -850.016
  20872276.363   -11997133.370 6  -9115055.76146  20872275.7664
      3167.547
 98  6 15 23 56 29.9960000  0  5 09 21 03 23 01
  22856088.848     -548137.024 5   -352978.93543  22856090.3134
      1478.188
  20115281.879   -18846245.681 7 -14533673.67346  20115280.0634
      1030.984
  20491732.762   -15069721.283 7 -11576025.13546  20491731.0044
      1222.250
  20128486.551   -18950207.325 7 -14579121.77346  20128484.7114
      -853.625
  20854224.934   -12091996.470 7  -9188975.01146  20854224.5004
      3156.969
 98  6 15 23 56 59.9960000  0  5 09 21 03 23 01
  22847685.231     -592300.090 5   -387391.67043  22847687.2814
      1465.828
  20109412.770   -18877087.469 7 -14557706.22646  20109411.0824
      1024.656
  20484804.207   -15106130.827 7 -11604396.21946  20484802.6724
      1204.563
  20133371.613   -18924535.840 7 -14559118.03346  20133369.9494
      -858.219
  20836232.840   -12186544.420 7  -9262648.68946  20836231.5984
      3145.828
 98  6 15 23 57 29.9960000  0  5 09 21 03 23 01
  22839349.988     -636098.236 5   -421520.04943  22839349.3674
      1453.938
  20103581.785   -18907730.062 7 -14581583.55646  20103580.3914
      1018.078
  20477979.246   -15141995.194 7 -11632342.48346  20477977.7704
      1186.172
  20138282.754   -18898727.162 7 -14539007.39146  20138281.0434
      -862.453
  20818305.332   -12280754.673 7  -9336059.21346  20818304.1724
      3134.563
 98  6 15 23 57 59.9960000  0  5 09 21 03 23 01
  22831085.418     -679528.357 5   -455361.60543  22831085.3244
      1441.328
  20097788.746   -18938173.278 7 -14605305.53146  20097786.7894
      1011.328
  20471261.035   -15177299.505 7 -11659852.34246  20471259.4414
      1167.375
  20143219.902   -18872782.172 7 -14518790.53446  20143218.2154
      -867.516
  20800444.863   -12374610.864 7  -9409193.84446  20800443.4344
      3122.406
 98  6 15 23 58 29.9960000  0  5 09 21 03 23 01
  22822892.340     -722583.726 5   -488911.17943  22822895.0704
      1429.078
  20092034.816   -18968410.420 7 -14628866.93046  20092032.8484
      1004.500
  20464651.504   -15212033.078 7 -11686917.46546  20464650.0984
      1148.188
  20148188.621   -18846671.627 7 -14498444.66446  20148187.0164
      -873.219
  20782653.254   -12468105.887 7  -9482047.05746  20782652.0004
      3110.922
 98  6 15 23 58 59.9960000  0  5 09 21 03 23 01
  22814769.074     -765271.189 5   -522174.12543  22814770.5514
      1416.484
  20086318.816   -18998447.047 7 -14652272.07846  20086317.2464
       997.859
  20458152.137   -15246188.716 7 -11713532.24446  20458150.6724
      1128.719
  20153188.973   -18820395.510 7 -14477969.78246  20153187.3564
      -878.359
  20764923.957   -12561274.772 7  -9554646.13846  20764922.9144
      3100.297
 98  6 15 23 59 29.9960000  0  5 09 21 03 23 01
  22806722.496     -807560.728 5   -555126.94343  22806722.7194
      1402.625
  20080643.277   -19028272.838 7 -14675512.94546  20080641.4734
       990.656
  20451765.238   -15279751.281 7 -11739684.89946  20451763.5274
      1108.844
  20158216.231   -18793975.193 7 -14457382.53746  20158214.7074
      -883.078
  20747256.965   -12654114.288 7  -9626988.56146  20747255.9344
      3088.813
 98  6 15 23 59 59.9960000  0  5 09 21 03 23 01
  22798754.691     -849425.538 5   -587748.82943  22798755.5004
      1388.109
  20075006.184   -19057895.301 7 -14698595.37846  20075004.3444
       983.984
  20445490.441   -15312725.802 7 -11765379.33246  20445488.5434
      1089.359
  20163271.566   -18767410.527 7 -14436682.81446  20163270.0314
      -888.094
  20729656.676   -12746605.536 7  -9699059.61046  20729655.4574
      3077.141
 98  6 16  0  0 29.9960000  0  5 09 21 03 23 01
  22790870.152     -890861.716 5   -620036.65944  22790870.4694
      1373.672
  20069404.621   -19087331.056 7 -14721532.32346  20069402.7464
       977.906
  20439325.152   -15345125.956 7 -11790626.19746  20439323.4654
      1070.094
  20168352.613   -18740710.774 7 -14415877.82946  20168350.9494
      -892.234
  20712120.066   -12838761.568 7  -9770869.44646  20712118.7774
      3066.063
 98  6 16  0  0 59.9960000  0  5 09 21 03 23 01
  22783069.113     -931852.397 5   -651977.41343  22783069.2424
      1359.031
  20063838.332   -19116583.332 7 -14744326.29946  20063836.5044
       972.250
  20433268.840   -15376950.874 7 -11815424.82946  20433267.1644
      1051.625
  20173455.676   -18713893.127 7 -14394980.98146  20173454.1644
      -895.625
  20694649.301   -12930569.258 7  -9842407.86246  20694647.7774
      3054.281
 98  6 16  0  1 29.9960000  0  7 09 08 21 03 31 23 01
  22775353.918     -972397.937 5   -683571.28043  22775354.2704
      1343.828
  23050154.223      -31460.308 5
      2859.359
  20058304.887   -19145661.309 7 -14766984.46646  20058303.3754
       966.313
  20427318.387   -15408220.534 7 -11839790.79246  20427316.5234
      1032.844
  22905865.504      -32612.501 5
      2962.813
  20178580.496   -18686960.031 7 -14373994.16846  20178579.2774
      -900.344
  20677248.066   -13022011.448 7  -9913661.45646  20677246.9654
      3041.688
 98  6 16  0  1 59.9960000  0  7 09 08 21 03 31 23 01
  22767722.098    -1012503.669 5   -714822.47443  22767721.9694
      1329.328
  23033837.863     -117203.759 5
      2856.328
  20052800.965   -19174584.642 7 -14789522.12346  20052799.6764
       961.266
  20421473.074   -15438936.602 7 -11863725.38346  20421471.2814
      1014.328
  22888979.910     -121349.369 5
      2952.516
  20183732.840   -18659885.187 7 -14352896.90146  20183731.5164
      -905.109
  20659916.066   -13113092.063 7  -9984633.30846  20659914.8364
      3029.938
 98  6 16  0  2 29.9960000  0  7 09 08 21 03 31 23 01
  22760174.527    -1052165.828 5   -745728.00444  22760174.7624
      1315.438
  23017541.957     -202845.047 5    -26683.95352  23017543.8324
      2853.484
  20047330.121   -19203332.519 7 -14811923.06946  20047328.6094
       955.609
  20415737.176   -15469080.845 7 -11887214.38746  20415735.3714
       995.703
  22872155.981     -209759.257 5    -27524.99953  22872154.6094
      2941.766
  20188914.379   -18632656.358 7 -14331679.64146  20188912.7624
      -909.625
  20642653.301   -13203809.055 7 -10055321.81646  20642651.9534
      3018.281
 98  6 16  0  2 59.9960000  0  7 09 08 21 03 31 23 01
  22752702.090    -1091434.612 5   -776327.00143  22752702.7464
      1302.625
  23001259.668     -288402.975 4    -93352.37543  23001260.0904
      2850.219
  20041890.645   -19231917.171 7 -14834196.82046  20041889.1214
       950.078
  20410103.496   -15498683.011 7 -11910281.00846  20410101.8444
       977.844
  22855394.059     -297842.456 4    -96161.18643  22855390.4264
      2930.422
  20194119.691   -18605301.904 7 -14310364.50046  20194118.3564
      -913.938
  20625455.973   -13294181.860 7 -10125742.13146  20625454.4734
      3006.641
 98  6 16  0  3 29.9960000  0  7 09 08 21 03 31 23 01
  22745305.035    -1130305.271 5   -806615.78244  22745305.5984
      1289.203
  22985003.801     -373832.777 5   -159920.91143  22985004.7974
      2845.563
  20036486.582   -19260315.984 7 -14856325.76646  20036484.9414
       943.531
  20404577.418   -15527723.870 7 -11932910.23446  20404575.5664
       958.547
  22838703.629     -385555.058 5   -164508.64543  22838702.5044
      2917.500
  20199353.223   -18577799.867 7 -14288934.35346  20199352.0274
      -919.063
  20608326.324   -13384196.317 7 -10195883.22146  20608325.2464
      2994.656
 98  6 16  0  3 59.9960000  0  7 09 08 21 03 31 23 01
  22737981.223    -1168790.082 5   -836603.90144  22737983.0514
      1276.344
  22968769.457     -459138.020 4   -226392.41042  22968770.2194
      2841.250
  20031119.512   -19288520.700 7 -14878303.47246  20031118.0824
       936.438
  20399160.348   -15556192.976 7 -11955093.95346  20399158.8484
       939.297
  22822082.621     -472893.957 5   -232564.88142  22822080.0434
      2904.984
  20204612.988   -18550160.862 7 -14267397.48046  20204611.5594
      -923.563
  20591263.668   -13473860.977 7 -10265751.74046  20591262.6724
      2982.906
 98  6 16  0  4 29.9960000  0  7 09 08 21 03 31 23 01
  22730729.020    -1206898.793 5   -866298.92743  22730730.8134
      1263.969
  22952559.637     -544322.775 4   -292769.99843  22952560.7854
      2837.438
  20025793.223   -19316510.152 7 -14900113.43846  20025791.9454
       929.344
  20393850.457   -15584095.928 7 -11976836.49846  20393848.5124
       920.484
  22805533.051     -559861.350 4   -300331.64342  22805532.2544
      2892.484
  20209895.887   -18522398.322 7 -14245764.34246  20209894.3404
      -927.563
  20574265.965   -13563183.414 7 -10335353.60246  20574265.0044
      2971.547
 98  6 16  0  4 59.9960000  0  7 09 08 21 03 31 23 01
  22723548.481    -1244634.355 5   -895703.22243  22723549.1134
      1251.297
  22936371.731     -629393.755 5   -359058.95243  22936369.6334
      2833.734
  20020505.106   -19344299.686 7 -14921767.61146  20020503.7464
       923.266
  20388648.301   -15611434.001 7 -11998138.91146  20388646.5554
       901.828
  22789055.254     -646455.840 4   -367807.77742  22789054.1294
      2880.375
  20215201.168   -18494519.187 7 -14224040.35846  20215199.6214
      -931.266
  20557333.270   -13652167.136 7 -10404691.52946  20557332.0864
      2960.469
 98  6 16  0  5 29.9960000  0  7 09 08 21 03 31 23 01
  22716444.356    -1281965.336 5   -924792.21543  22716443.9924
      1237.250
  22920205.809     -714348.598 5   -425257.44042  22920206.3134
      2829.922
  20015252.246   -19371903.970 7 -14943277.43546  20015250.8404
       917.047
  20383556.238   -15638193.895 7 -12018990.77746  20383554.5044
       882.125
  22772646.707     -732684.516 3   -434998.91642  22772644.5634
      2868.250
  20220528.660   -18466522.625 7 -14202224.87046  20220527.3014
      -935.156
  20540463.629   -13740816.826 7 -10473769.16146  20540462.6334
      2949.438
 98  6 16  0  5 59.9960000  0  8 09 08 21 03 31 23 01 29
  22709424.129    -1318862.632 5   -953543.32243  22709425.2424
      1222.469
  22904059.981     -799191.334 5   -491368.58643  22904060.7194
      2826.234
  20010033.582   -19399327.652 7 -14964646.54246  20010032.0594
       911.313
  20378576.754   -15664359.331 7 -12039379.44446  20378574.7034
       862.266
  22756305.566     -818552.640 3   -501909.12042  22756306.1764
      2856.172
  20225878.629   -18438408.771 7 -14180317.98746  20225877.2584
      -939.094
  20523658.543   -13829129.677 7 -10542584.32346  20523657.3014
      2938.141
  22831267.434      -18895.75115
      3779.266
 98  6 16  0  6 29.9960000  0  8 09 08 21 03 31 23 01 29
  22702488.902    -1355305.855 5   -981940.61444  22702488.5274
      1207.250
  22887936.082     -883922.711 5   -557392.95043  22887935.9654
      2822.703
  20004846.551   -19426586.252 7 -14985887.00546  20004845.2504
       906.266
  20373711.981   -15689924.639 7 -12059300.46246  20373710.4224
       842.313
  22740037.598     -904040.661 3   -568523.06742  22740036.5904
      2843.219
  20231251.629   -18410173.699 7 -14158316.64946  20231250.1414
      -942.906
  20506917.848   -13917101.998 7 -10611134.13246  20506916.7584
      2926.875
  22809704.277     -132214.517 5
      3775.516
 98  6 16  0  6 59.9960000  0  8 09 08 21 03 31 23 01 29
  22695642.637    -1391283.021 5  -1009974.72244  22695643.3634
      1191.453
  22871833.324     -968544.215 5   -623331.64842  22871832.0824
      2818.969
  19999688.207   -19453692.903 7 -15007009.07246  19999686.5554
       901.016
  20368960.441   -15714893.403 7 -12078756.65446  20368958.6374
       822.656
  22723844.731     -989137.299 4   -634832.07742  22723843.8984
      2830.203
  20236645.676   -18381827.356 7 -14136228.60446  20236643.9884
      -946.563
  20490242.410   -14004731.628 7 -10679416.92146  20490241.4964
      2915.328
  22788161.160     -245417.352 5
      3771.516
 98  6 16  0  7 29.9960000  0  8 09 08 21 03 31 23 01 29
  22688884.309    -1426798.567 5  -1037649.12144  22688884.9414
      1176.047
  22855749.316    -1053062.816 5   -689190.24343  22855749.1524
      2815.328
  19994559.332   -19480645.417 7 -15028011.03346  19994557.6454
       895.422
  20364317.777   -15739290.182 7 -12097767.13646  20364315.9384
       803.703
  22707723.152    -1073855.214 4   -700845.99442  22707719.8594
      2817.391
  20242058.270   -18353385.848 7 -14114066.40046  20242056.5944
      -949.859
  20473631.621   -14092021.168 7 -10747434.70946  20473630.5204
      2903.656
  22766642.551     -358502.267 5    -52854.49153  22766642.8674
      3767.047
 98  6 16  0  7 59.9960000  0  8 09 08 21 03 31 23 01 29
  22682213.285    -1461851.907 5  -1064963.41744  22682215.1254
      1160.828
  22839688.145    -1137462.074 5   -754955.79143  22839687.9224
      2811.156
  19989465.121   -19507415.671 7 -15048870.97046  19989463.5744
       888.906
  20359783.145   -15763120.388 7 -12116336.13246  20359781.6334
       784.953
  22691678.082    -1158173.825 4   -766548.74942  22691676.6174
      2803.609
  20247492.731   -18324826.405 7 -14091812.30546  20247491.3134
      -954.266
  20457092.121   -14178937.418 7 -10815161.61846  20457091.1254
      2890.656
  22745151.106     -471436.560 5   -140855.07143  22745153.0164
      3761.734
 98  6 16  0  8 29.9960000  0  8 09 08 21 03 31 23 01 29
  22675623.379    -1496483.647 5  -1091949.14144  22675625.1134
      1147.500
  22823646.715    -1221758.965 5   -820641.54443  22823645.9534
      2808.109
  19984406.254   -19534000.402 7 -15069586.34446  19984404.5314
       882.859
  20355347.965   -15786428.100 7 -12134497.98746  20355345.9734
       768.453
  22675707.809    -1242095.699 3   -831942.35742  22675710.8444
      2790.859
  20252947.309   -18296163.070 7 -14069477.25946  20252945.9844
      -956.969
  20440622.277   -14265488.694 7 -10882604.12046  20440620.9654
      2878.891
  22723685.941     -584238.551 5   -228752.58943  22723687.5824
      3758.078
 98  6 16  0  8 59.9960000  0  8 09 08 21 03 31 23 01 29
  22669113.809    -1530692.546 5  -1118605.38444  22669113.7974
      1133.250
  22807628.621    -1305935.857 5   -886233.85944  22807628.6094
      2803.703
  19979387.012   -19560374.779 7 -15090137.80546  19979385.4884
       875.547
  20351011.066   -15809218.414 7 -12152256.67746  20351009.3794
       750.922
  22659814.418    -1325622.857 3   -897028.47942  22659813.5984
      2777.719
  20258421.160   -18267396.150 7 -14047061.48946  20258419.7544
      -960.859
  20424225.074   -14351654.009 7 -10949745.87446  20424223.3404
      2865.453
  22702244.262     -696913.154 5   -316550.85343  22702244.4144
      3753.594
 98  6 16  0  9 29.9960000  0  8 09 08 21 03 31 23 01 29
  22662683.621    -1564479.899 5  -1144933.14243  22662684.6414
      1119.047
  22791636.504    -1389978.620 5   -951721.62943  22791637.7114
      2798.984
  19974408.035   -19586541.257 7 -15110527.26846  19974406.4884
       868.859
  20346775.363   -15831476.960 7 -12169600.99946  20346773.5824
       732.781
  22643993.176    -1408761.410 4   -961811.65042  22643994.8404
      2764.703
  20263917.848   -18238510.733 7 -14024553.38546  20263916.5234
      -965.016
  20407905.035   -14437417.427 7 -11016574.46546  20407903.5594
      2852.078
  22680828.684     -809454.491 5   -404245.25244  22680829.2704
      3749.172
 98  6 16  0  9 59.9960000  0  8 09 08 21 03 31 23 01 29
  22656337.949    -1597825.732 5  -1170916.87043  22656339.4264
      1104.344
  22775672.387    -1473865.589 5  -1017088.01344  22775673.1254
      2793.859
  19969468.660   -19612498.507 7 -15130753.69746  19969466.9144
       862.031
  20342648.316   -15853162.891 7 -12186499.12646  20342646.8984
       713.188
  22628249.895    -1491491.679 4  -1026276.78042  22628250.7734
      2751.047
  20269441.387   -18209484.596 7 -14001935.63046  20269439.8874
      -969.438
  20391662.723   -14522770.973 7 -11083083.68446  20391661.5864
      2838.609
  22659438.512     -921858.067 5   -491832.29444  22659437.9494
      3744.922
 98  6 16  0 10 29.9960000  0  8 09 08 21 03 31 23 01 29
  22650076.293    -1630730.332 5  -1196556.77243  22650076.9494
      1088.875
  22759737.793    -1557602.761 5  -1082337.65243  22759740.1254
      2788.297
  19964565.426   -19638264.450 7 -15150831.05346  19964564.0084
       855.703
  20338633.973   -15874260.516 7 -12202938.83446  20338632.1684
       692.734
  22612582.238    -1573824.784 4  -1090432.44043  22612581.9344
      2737.672
  20274985.621   -18180351.217 7 -13979234.31046  20274984.2974
      -973.094
  20375493.598   -14607738.944 7 -11149292.44646  20375492.4964
      2825.500
  22638070.059    -1034146.949 5   -579329.98444  22638069.8014
      3740.578
 98  6 16  0 10 59.9960000  0  8 09 08 21 03 31 23 01 29
  22643904.004    -1663170.938 5  -1221835.10943  22643904.5084
      1073.438
  22743832.824    -1641182.000 5  -1147464.25943  22743834.4414
      2783.141
  19959693.856   -19663863.746 7 -15170778.55246  19959692.4494
       850.547
  20334737.926   -15894733.072 7 -12218891.48446  20334736.2384
       671.672
  22596987.512    -1655774.996 3  -1154289.65342  22596990.1724
      2725.188
  20280550.176   -18151108.342 7 -13956447.66246  20280548.8524
      -977.016
  20359399.871   -14692313.413 7 -11215194.59146  20359398.5234
      2812.359
  22616726.559    -1146306.307 5   -666726.73644  22616728.8564
      3736.188
 98  6 16  0 11 29.9960000  0  8 09 08 21 03 31 23 01 29
  22637822.981    -1695127.693 5  -1246736.44943  22637821.6684
      1056.984
  22727961.246    -1724588.922 5  -1212456.58843  22727963.6844
      2777.375
  19954853.941   -19689298.371 7 -15190597.74046  19954852.4064
       845.000
  20330964.879   -15914562.211 7 -12234342.75346  20330963.2734
       650.500
  22581467.465    -1737332.978 3  -1217841.30142  22581468.3204
      2712.016
  20286140.129   -18121732.848 7 -13933557.68046  20286138.4414
      -981.219
  20343381.918   -14776485.845 7 -11280783.45646  20343380.5594
      2799.234
  22595411.824    -1258316.373 5   -754007.12443  22595412.4814
      3731.297
 98  6 16  0 11 59.9960000  0  8 09 08 21 03 31 23 01 29
  22631831.191    -1726611.742 5  -1271269.45244  22631831.4384
      1042.094
  22712118.527    -1807845.682 5  -1277331.86544  22712121.3284
      2773.063
  19950044.066   -19714574.587 7 -15210293.49346  19950042.4264
       840.203
  20327306.918   -15933784.609 7 -12249321.26046  20327305.6644
       631.219
  22566019.879    -1818511.389 4  -1281097.15542  22566018.4844
      2699.984
  20291749.957   -18092253.752 7 -13910586.96446  20291748.4454
      -983.813
  20327436.707   -14860281.259 7 -11346078.54446  20327435.4774
      2787.078
  22574121.785    -1370197.795 5   -841187.28544  22574123.4964
      3727.500
 98  6 16  0 12 29.9960000  0  8 09 08 21 03 31 23 01 29
  22625931.395    -1757622.194 5  -1295433.39544  22625932.6024
      1025.875
  22696305.809    -1890939.922 5  -1342080.55344  22696309.1844
      2767.078
  19945266.293   -19739682.252 7 -15229857.90446  19945264.6764
       834.234
  20323761.395   -15952417.078 7 -12263840.07146  20323759.5204
       611.453
  22550646.832    -1899301.451 4  -1344050.50342  22550644.6884
      2686.609
  20297380.660   -18062664.760 7 -13887530.61746  20297379.1844
      -988.484
  20311566.957   -14943676.091 7 -11411061.48746  20311565.6094
      2773.078
  22552859.035    -1481932.229 5   -928252.94743  22552859.1884
      3721.922
 98  6 16  0 12 59.9960000  0  8 09 08 21 03 31 23 01 29
  22620117.418    -1788169.008 5  -1319236.11644  22620118.0274
      1010.766
  22680525.902    -1973868.463 5  -1406700.03742  22680536.2774
      2761.422
  19940519.707   -19764626.741 7 -15249295.16746  19940518.0434
       828.703
  20320324.074   -15970479.637 7 -12277914.80546  20320322.1294
       593.047
  22535345.316    -1979704.267 3  -1406701.95442  22535347.5664
      2673.547
  20303037.160   -18032939.005 7 -13864367.70646  20303035.8244
      -993.156
  20295775.246   -15026659.366 7 -11475723.74246  20295773.9924
      2759.313
  22531623.934    -1593520.101 5  -1015204.38644  22531623.2774
      3717.469
 98  6 16  0 13 29.9960000  0  8 09 08 21 03 31 23 01 29
  22614390.559    -1818263.392 5  -1342686.25144  22614390.8984
       995.891
  22664778.215    -2056615.214 5  -1471178.01043  22664780.1024
      2755.313
  19935805.879   -19789396.735 7 -15268596.45146  19935804.0394
       822.859
  20316991.215   -15987994.922 7 -12291563.09046  20316989.3874
       574.813
  22520121.676    -2059706.593 3  -1469041.42142  22520121.5004
      2660.078
  20308719.645   -18003076.252 7 -13841098.03546  20308718.2034
      -997.328
  20280061.637   -15109234.540 7 -11540067.99346  20280060.4654
      2745.891
  22510416.137    -1704968.778 5  -1102047.33244  22510415.5984
      3712.781
 98  6 16  0 13 59.9960000  0  8 09 08 21 03 31 23 01 29
  22608750.871    -1847904.370 5  -1365783.10044  22608750.7074
       980.422
  22649070.481    -2139161.014 5  -1535499.29644  22649071.3954
      2747.891
  19931129.324   -19813972.766 7 -15287746.59846  19931127.3794
       815.953
  20313767.824   -16004932.860 7 -12304761.49546  20313765.5864
       554.438
  22504979.410    -2139282.892 4  -1531048.88442  22504978.8134
      2645.281
  20314429.285   -17973073.150 7 -13817719.01246  20314427.3874
     -1002.656
  20264430.043   -15191380.315 7 -11604077.64946  20264428.4264
      2730.688
  22489238.551    -1816260.977 5  -1188768.38344  22489238.5274
      3706.891
 98  6 16  0 14 29.9960000  0  8 09 08 21 03 31 23 01 29
  22603195.660    -1877090.242 5  -1388525.34644  22603196.0944
       964.859
  22633403.371    -2221497.279 5  -1599657.35144  22633404.1334
      2740.766
  19926487.043   -19838368.234 7 -15306756.05046  19926485.3674
       809.859
  20310658.762   -16021272.517 7 -12317493.70146  20310657.0514
       534.188
  22489917.441    -2218432.226 4  -1592723.67842  22489916.5634
      2630.859
  20320166.395   -17942924.334 7 -13794226.44146  20320164.8594
     -1007.813
  20248881.340   -15273091.473 7 -11667748.63346  20248879.7934
      2716.422
  22468091.059    -1927390.728 5  -1275362.84544  22468090.9534
      3701.203
 98  6 16  0 14 59.9960000  0  8 09 08 21 03 31 23 01 29
  22597732.707    -1905795.754 5  -1410893.21443  22597733.2114
       948.797
  22617778.309    -2303607.872 5  -1663639.54344  22617778.1094
      2733.328
  19921882.231   -19862565.608 7 -15325611.14646  19921880.4734
       803.328
  20307669.051   -16036982.775 7 -12329735.47946  20307666.9184
       513.328
  22474941.434    -2297133.158 5  -1654049.05342  22474940.3204
      2615.875
  20325933.465   -17912618.202 7 -13770611.28546  20325931.7664
     -1012.313
  20233414.996   -15354366.350 7 -11731079.66646  20233413.3564
      2702.063
  22446979.441    -2038331.283 5  -1361809.88944  22446980.7194
      3694.828
 98  6 16  0 15 29.9960000  0  8 09 08 21 03 31 23 01 29
  22592362.856    -1934012.673 5  -1432880.42244  22592365.2814
       932.625
  22602193.613    -2385502.832 5  -1727453.71944  22602194.1994
      2726.828
  19917315.145   -19886566.642 7 -15344313.24746  19917312.9304
       797.078
  20304798.137   -16052068.675 7 -12341490.73246  20304796.6844
       492.594
  22460050.121    -2375385.608 5  -1715024.95842  22460047.6604
      2601.219
  20331723.465   -17882190.851 7 -13746901.67946  20331722.0234
     -1015.828
  20218028.066   -15435224.023 7 -11794085.60646  20218026.6844
      2688.672
  22425906.574    -2149071.391 5  -1448100.74545  22425907.9924
      3688.219
 98  6 16  0 15 59.9960000  0  8 09 08 21 03 31 23 01 29
  22587088.770    -1961733.911 5  -1454481.31943  22587088.8054
       915.313
  22586644.879    -2467206.475 5  -1791118.83743  22586645.5824
      2720.109
  19912784.254   -19910376.407 7 -15362866.30846  19912782.3564
       790.250
  20302046.590   -16066527.912 7 -12352757.68146  20302045.3484
       471.516
  22445244.731    -2453192.583 4  -1775653.71643  22445242.9024
      2585.984
  20337535.066   -17851651.254 7 -13723104.61046  20337533.7894
     -1020.156
  20202719.801   -15515670.020 7 -11856770.76446  20202718.3014
      2674.563
  22404871.332    -2259610.886 5  -1534235.24144  22404872.3164
      3680.969
 98  6 16  0 16 29.9960000  0  8 09 08 21 03 31 23 01 29
  22581913.848    -1988931.092 5  -1475673.88244  22581914.0944
       898.047
  22571135.754    -2548712.279 5  -1854629.80044  22571136.5634
      2713.719
  19908292.965   -19933979.929 7 -15381258.65646  19908291.1024
       783.297
  20299412.160   -16080371.946 7 -12363545.23546  20299410.4494
       451.578
  22430525.191    -2530542.671 4  -1835926.44542  22430523.8324
      2570.781
  20343371.066   -17820983.514 7 -13699207.68246  20343369.6484
     -1024.219
  20187489.754   -15595704.884 7 -11919135.56346  20187488.3594
      2661.297
  22383878.606    -2369926.195 5  -1620195.08944  22383879.2624
      3673.688
 98  6 16  0 16 59.9960000  0  8 09 08 21 03 31 23 01 29
  22576833.160    -2015627.358 5  -1496476.14244  22576833.8404
       881.484
  22555660.379    -2630037.150 5  -1917999.73644  22555659.4774
      2707.828
  19903839.379   -19957383.088 7 -15399494.88946  19903837.6454
       776.844
  20296889.293   -16093630.528 7 -12373876.60946  20296887.8164
       432.406
  22415889.434    -2607450.556 4  -1895854.65442  22415887.8754
      2556.328
  20349227.082   -17790210.407 7 -13675228.65446  20349225.6994
     -1027.375
  20172333.723   -15675352.010 7 -11981198.21546  20172332.2344
      2648.422
  22362924.988    -2480041.112 5  -1705998.77144  22362924.5664
      3667.313
 98  6 16  0 17 29.9960000  0  8 09 08 21 03 31 23 01 29
  22571850.910    -2041811.043 5  -1516878.94245  22571851.8014
       864.391
  22540220.770    -2711172.131 5  -1981221.73443  22540220.1374
      2701.297
  19899425.715   -19980574.892 7 -15417566.41546  19899424.0864
       769.391
  20294478.809   -16106298.558 7 -12383747.80846  20294477.1684
       412.172
  22401340.410    -2683907.447 4  -1955431.41042  22401338.1724
      2540.938
  20355105.738   -17759316.583 7 -13651155.56146  20355104.2154
     -1032.094
  20157253.918   -15754596.156 7 -12042946.85646  20157252.3834
      2634.516
  22342009.309    -2589955.001 5  -1791645.80344  22342007.7504
      3660.500
 98  6 16  0 17 59.9960000  0  8 09 08 21 03 31 23 01 29
  22566963.832    -2067491.147 5  -1536889.39044  22566963.3284
       847.641
  22524819.231    -2792106.238 5  -2044287.20144  22524820.6024
      2694.234
  19895054.348   -20003548.453 7 -15435467.88046  19895052.3564
       762.188
  20292183.379   -16118359.983 7 -12393146.32446  20292181.7034
       392.063
  22386877.723    -2759905.405 4  -2014650.53742  22386877.3834
      2525.641
  20361011.043   -17728285.576 7 -13626975.57046  20361009.3094
     -1036.563
  20142253.676   -15833422.078 7 -12104369.60946  20142252.1524
      2620.672
  22321129.723    -2699673.853 5  -1877140.84645  22321128.5984
      3654.063
 98  6 16  0 18 29.9960000  0  8 09 08 21 03 31 23 01 29
  22562173.051    -2092666.911 5  -1556506.84144  22562173.1684
       830.703
  22509460.824    -2872814.407 5  -2107176.57443  22509459.9694
      2686.188
  19890724.340   -20026303.791 7 -15453199.31246  19890722.3364
       754.766
  20290003.465   -16129816.558 7 -12402073.53646  20290001.9304
       371.641
  22372504.012    -2835440.921 4  -2073509.37942  22372502.0314
      2509.922
  20366941.059   -17697121.831 7 -13602692.15746  20366939.6764
     -1041.172
  20127332.246   -15911835.610 7 -12165471.02746  20127330.7704
      2606.641
  22300286.856    -2809201.946 5  -1962487.23145  22300285.3094
      3647.844
 98  6 16  0 18 59.9960000  0  8 09 08 21 03 31 23 01 29
  22557477.731    -2117340.853 5  -1575733.27844  22557479.0904
       814.109
  22494147.473    -2953283.096 5  -2169879.42043  22494146.6174
      2678.344
  19886434.223   -20048847.745 7 -15470766.02346  19886432.2774
       748.188
  20287939.191   -16140664.525 7 -12410526.49646  20287937.6914
       351.500
  22358218.527    -2910517.086 5  -2132010.25842  22358215.9144
      2495.047
  20372896.988   -17665824.323 7 -13578304.50646  20372895.4774
     -1045.391
  20112491.520   -15989822.451 7 -12226239.96346  20112490.3244
      2592.219
  22279479.059    -2918550.491 5  -2047693.71344  22279477.8054
      3641.922
 98  6 16  0 19 29.9960000  0  8 09 08 21 03 31 23 01 29
  22552876.332    -2141522.132 5  -1594575.76443  22552875.6174
       798.094
  22478880.856    -3033513.484 5  -2232396.53843  22478880.7624
      2670.328
  19882181.488   -20071194.535 7 -15488179.10846  19882179.4964
       741.609
  20285990.145   -16150906.515 7 -12418507.27646  20285988.6564
       331.266
  22344016.981    -2985141.770 4  -2190159.29043  22344013.3714
      2479.906
  20378877.723   -17634394.780 7 -13553813.96846  20378876.1524
     -1049.750
  20097736.043   -16067362.200 7 -12286660.52046  20097734.9064
      2577.000
  22258702.848    -3027723.160 5  -2132763.14245  22258702.6024
      3636.219
 98  6 16  0 19 59.9960000  0  8 09 08 21 03 31 23 01 29
  22548367.129    -2165215.755 5  -1613038.30743  22548366.1214
       781.172
  22463660.504    -3113493.061 5  -2294718.17743  22463661.8874
      2661.500
  19877964.824   -20093355.385 7 -15505447.29646  19877962.9734
       735.688
  20284155.504   -16160546.964 7 -12426019.32546  20284153.7464
       311.375
  22329902.965    -3059317.649 5  -2247958.66943  22329902.7894
      2464.969
  20384881.371   -17602845.990 7 -13529230.51046  20384879.7894
     -1053.781
  20083068.176   -16144443.242 7 -12346723.63346  20083066.8164
      2561.469
  22237960.184    -3136724.777 5  -2217699.31245  22237961.3914
      3630.313
 98  6 16  0 20 29.9960000  0  8 09 08 21 03 31 23 01 29
  22543953.277    -2188408.567 5  -1631110.59643  22543952.8324
       764.781
  22448489.496    -3193220.749 5  -2356843.56843  22448488.6524
      2653.531
  19873779.715   -20115346.305 7 -15522583.07446  19873778.1214
       730.188
  20282432.231   -16169602.926 7 -12433075.92146  20282430.6724
       292.047
  22315869.645    -3133053.775 5  -2305415.33043  22315870.2074
      2450.609
  20390908.520   -17571172.352 7 -13504549.76546  20390906.9614
     -1058.156
  20068490.449   -16221051.103 7 -12406418.03946  20068488.6334
      2545.375
  22217251.285    -3245550.752 5  -2302498.60345  22217252.4454
      3624.391
 98  6 16  0 20 59.9960000  0  8 09 08 21 03 31 23 01 29
  22539632.668    -2211116.928 5  -1648805.41743  22539631.6374
       748.797
  22433360.160    -3272720.860 5  -2418791.66243  22433359.8794
      2646.203
  19869625.504   -20137176.855 7 -15539593.88546  19869623.9814
       724.859
  20280819.434   -16178077.226 7 -12439679.28846  20280818.2154
       272.453
  22301919.801    -3206361.514 5  -2362538.22943  22301918.4884
      2436.172
  20396960.277   -17539370.987 7 -13479769.49946  20396958.9184
     -1062.094
  20054003.902   -16297175.540 7 -12465735.74246  20054002.0744
      2529.281
  22196577.676    -3354194.127 5  -2387155.64345  22196577.6764
      3618.109
 98  6 16  0 21 29.9960000  0  8 09 08 21 03 31 23 01 29
  22535402.340    -2233348.571 5  -1666128.73243  22535399.6914
       732.859
  22418272.621    -3352005.735 5  -2480572.03044  22418272.2464
      2639.063
  19865502.402   -20158844.515 7 -15556477.77546  19865500.8324
       719.234
  20279319.473   -16185962.587 7 -12445823.72246  20279317.5394
       252.906
  22288055.293    -3279225.427 5  -2419315.25043  22288053.8164
      2421.047
  20403032.395   -17507460.487 7 -13454904.19146  20403030.9414
     -1065.609
  20039607.590   -16372829.916 7 -12524687.15946  20039605.7854
      2514.109
  22175940.340    -3462646.684 5  -2471663.93645  22175939.4844
      3611.547
 98  6 16  0 21 59.9960000  0  8 09 08 21 03 31 23 01 29
  22531266.949    -2255075.754 5  -1683058.97844  22531265.5084
       715.969
  22403228.051    -3431066.935 5  -2542178.09944  22403228.1214
      2632.016
  19861412.590   -20180335.912 7 -15573224.31946  19861410.7974
       713.703
  20277931.231   -16193254.449 7 -12451505.71246  20277929.7314
       233.500
  22274277.387    -3351628.153 5  -2475732.93443  22274274.9614
      2405.969
  20409125.535   -17475440.519 7 -13429953.58046  20409124.3754
     -1069.031
  20025295.941   -16448037.809 7 -12583290.68146  20025294.4534
      2500.078
  22155343.340    -3570882.112 5  -2556003.06445  22155342.5204
      3604.313
 98  6 16  0 22 29.9960000  0  8 09 08 21 03 31 23 01 29
  22527224.559    -2276318.917 5
       700.141
  22388221.668    -3509927.124 5  -2603627.55844  22388221.6454
      2625.156
  19857356.238   -20201652.811 7 -15589834.88246  19857354.5744
       707.375
  20276655.301   -16199963.488 7 -12456733.54846  20276653.6484
       213.625
  22260585.543    -3423575.052 5  -2531795.42143  22260584.9574
      2390.422
  20415238.629   -17443316.628 7 -13404921.99646  20415237.4224
     -1072.453
  20011062.551   -16522831.753 7 -12641571.65646  20011061.2624
      2486.453
  22134788.731    -3678896.670 5  -2640170.08745  22134788.5434
      3596.828
 98  6 16  0 22 59.9960000  0  8 09 08 21 03 31 23 01 29
  22523274.512    -2297076.145 5     -9117.54354  22523276.0594
       683.156
  22373256.887    -3588567.935 5  -2664906.03244  22373257.5904
      2617.063
  19853336.676   -20222775.640 7 -15606294.22946  19853334.7544
       700.484
  20275492.410   -16206071.034 7 -12461492.69646  20275490.9574
       193.234
  22246986.668    -3495042.336 5  -2587484.21343  22246984.9104
      2373.594
  20421369.934   -17411096.480 7 -13379815.40046  20421368.7504
     -1075.813
  19996905.356   -16597230.229 7 -12699544.46446  19996904.0554
      2472.984
  22114274.957    -3786692.622 5  -2724166.79244  22114274.9224
      3589.219
 98  6 16  0 23 29.9960000  0  8 09 08 21 03 31 23 01 29
  22519425.738    -2317301.061 5    -24877.17444  22519425.7974
       665.219
  22358341.535    -3666949.999 5  -2725982.88344  22358342.0514
      2608.375
  19849358.629   -20243681.470 7 -15622584.48746  19849356.6604
       693.438
  20274448.168   -16211561.236 7 -12465770.79046  20274446.4104
       172.906
  22233484.504    -3565995.202 5  -2642772.15144  22233483.8244
      2356.750
  20427523.832   -17378758.839 7 -13354617.25546  20427522.7074
     -1080.047
  19982827.887   -16671208.071 7 -12757189.50946  19982826.0354
      2458.906
  22093807.871    -3894249.978 5  -2807977.55245  22093807.5204
      3581.500
 98  6 16  0 23 59.9960000  0  8 09 08 21 03 31 23 01 29
  22515678.106    -2336998.448 5    -40225.80144  22515677.1454
       647.828
  22343474.902    -3745073.221 5  -2786858.04244  22343475.5004
      2599.672
  19845416.223   -20264397.767 7 -15638727.05246  19845414.4184
       687.531
  20273517.238   -16216451.057 7 -12469581.06846  20273515.5744
       152.828
  22220076.098    -3636457.607 5  -2697677.86744  22220075.4534
      2340.531
  20433700.309   -17346300.586 7 -13329325.12746  20433699.0664
     -1084.125
  19968830.473   -16744765.105 7 -12814506.64646  19968828.8204
      2444.625
  22073380.387    -4001593.691 5  -2891621.87645  22073380.0944
      3574.688
 98  6 16  0 24 29.9960000  0  8 09 08 21 03 31 23 01 29
  22512029.449    -2356170.443 5    -55164.98544  22512030.0234
       629.953
  22328661.106    -3822919.755 5  -2847517.63544  22328660.7194
      2589.938
  19841509.551   -20284926.985 7 -15654723.84546  19841507.7344
       681.109
  20272704.457   -16220725.009 7 -12472911.43646  20272702.6994
       132.125
  22206762.356    -3706420.297 5  -2752194.22344  22206762.6604
      2323.750
  20439902.488   -17313708.139 7 -13303928.42746  20439900.9064
     -1088.609
  19954919.848   -16817865.869 7 -12871468.24046  19954917.9494
      2428.688
  22052994.371    -4108725.811 5  -2975101.31545  22052993.9494
      3567.469
 98  6 16  0 24 59.9960000  0  8 09 08 21 03 31 23 01 29
  22508485.691    -2374795.517 5    -69678.00544  22508485.7154
       611.672
  22313901.441    -3900481.584 5  -2907955.36244  22313901.7464
      2580.797
  19837636.738   -20305277.782 7 -15670581.61046  19837635.1094
       675.438
  20272005.949   -16224393.872 7 -12475770.31246  20272004.2154
       112.375
  22193541.832    -3775894.754 5  -2806330.13144  22193540.5784
      2307.781
  20446128.863   -17280988.839 7 -13278432.88246  20446127.2344
     -1092.781
  19941100.098   -16890487.411 7 -12928056.42946  19941098.4924
      2412.359
  22032647.809    -4215647.429 5  -3058416.72545  22032647.3164
      3560.375
 98  6 16  0 25 29.9960000  0  8 09 08 21 03 31 23 01 29
  22505041.707    -2392894.470 5    -83781.06744  22505039.5394
       594.734
  22299191.691    -3977781.936 5  -2968189.33944  22299191.6564
      2572.203
  19833795.871   -20325462.735 7 -15686310.14346  19833794.3134
       669.906
  20271419.879   -16227474.511 7 -12478170.82646  20271418.1564
        92.688
  22180409.262    -3844910.029 5  -2860108.24745  22180409.0044
      2292.875
  20452376.457   -17248158.806 7 -13252851.04746  20452374.6994
     -1096.203
  19927373.582   -16962620.401 7 -12984263.92146  19927372.0234
      2396.266
  22012340.652    -4322359.579 5  -3141568.90145  22012340.5004
      3553.516
 98  6 16  0 25 59.9960000  0  8 09 08 21 03 31 23 01 29
  22501691.395    -2410498.610 5    -97498.55244  22501690.2234
       579.094
  22284531.535    -4054822.064 5  -3028220.55345  22284531.9224
      2564.063
  19829985.809   -20345484.980 7 -15701911.89146  19829984.0394
       665.031
  20270945.277   -16229968.501 7 -12480114.19946  20270943.5434
        73.766
  22167360.356    -3913478.111 5  -2913537.89244  22167357.6604
      2278.516
  20458641.184   -17215237.027 7 -13227197.73046  20458639.4494
     -1098.375
  19913737.488   -17034280.918 7 -13040103.26246  19913735.8364
      2381.313
  21992074.043    -4428861.441 5  -3224557.22945  21992073.5744
      3546.813
 98  6 16  0 26 29.9960000  0  8 09 08 21 03 31 23 01 29
  22498434.762    -2427610.875 5   -110832.72145  22498436.4384
       562.391
  22269921.434    -4131597.448 5  -3088045.47445  22269921.7154
      2554.891
  19826209.566   -20365328.084 7 -15717374.05046  19826207.8094
       658.391
  20270582.410   -16231876.640 7 -12481601.07846  20270580.7814
        54.141
  22154398.496    -3981593.794 5  -2966615.03844  22154397.2424
      2263.203
  20464921.645   -17182232.852 7 -13201480.21246  20464920.1214
     -1101.281
  19900190.270   -17105472.159 7 -13095576.92947  19900188.7934
      2365.484
  21971850.371    -4535135.747 5  -3307368.23345  21971850.2894
      3538.859
 98  6 16  0 26 59.9960000  0  8 09 08 21 03 31 23 01 29
  22495271.941    -2444232.475 5   -123784.62544  22495271.2154
       545.938
  22255361.879    -4208110.309 5  -3147665.80244  22255363.0744
      2546.063
  19822471.176   -20384973.868 7 -15732682.45046  19822469.6174
       651.422
  20270329.996   -16233201.832 7 -12482633.69746  20270328.3674
        34.266
  22141522.457    -4049255.856 5  -3019338.68044  22141521.6134
      2247.625
  20471217.551   -17149147.210 7 -13175699.21946  20471216.3914
     -1104.266
  19886729.973   -17176207.286 7 -13150695.17147  19886728.3444
      2350.328
  21951669.184    -4641188.957 6  -3390006.97845  21951668.7974
      3531.516
 98  6 16  0 27 29.9960000  0  8 09 08 21 03 31 23 01 29
  22492202.356    -2460362.989 5   -136353.81945  22492202.1804
       529.297
  22240852.418    -4284354.281 5  -3207076.61844  22240852.7934
      2536.859
  19818771.793   -20404415.505 7 -15747831.77246  19818769.9654
       644.922
  20270192.223   -16233925.742 7 -12483197.79746  20270190.5004
        14.203
  22128737.254    -4116444.025 5  -3071693.08544  22128736.0824
      2231.578
  20477529.957   -17115975.616 7 -13149851.23646  20477528.5164
     -1107.219
  19873353.965   -17246497.296 7 -13205466.59047  19873352.3134
      2335.859
  21931530.160    -4747021.477 6  -3472473.75145  21931530.0204
      3524.078
 98  6 16  0 27 59.9960000  0  8 09 08 21 03 31 23 01 29
  22489229.465    -2475983.488 5   -148525.60645  22489229.2664
       512.344
  22226395.785    -4360325.712 5  -3266275.04645  22226397.0044
      2528.281
  19815106.809   -20423674.517 7 -15762838.79846  19815104.9574
       639.375
  20270166.434   -16234061.285 7 -12483303.43146  20270164.6294
        -4.750
  22116044.293    -4183144.494 5  -3123667.44744  22116043.0164
      2215.594
  20483859.684   -17082710.871 7 -13123930.67046  20483857.8914
     -1110.141
  19860059.340   -17316359.051 7 -13259904.29046  19860057.7934
      2321.813
  21911431.738    -4852639.475 6  -3554773.38445  21911431.4814
      3517.578
